[[{"header":{"parameterUnit":"m.s-1","parameterCategory":1,"la1":31.0,"la2":29.5877,"lo1":-88.7671,"lo2":-86.6584,"dy":0.0162,"dx":0.0185,"nx":115,"ny":88,"refTime":"2024-07-12T12:00:00:Z","depth":0,"parameterNumber":2,"parameterNumberName":"U-component_of_WINDS"},"data":[0.0,0.0,0.0,0.0,0.0,0.0,0.0,0.0,0.0,0.0,0.0,0.0,0.0,0.0,0.0,0.0,0.0,0.0,0.0,0.0,0.0,0.0,0.0,0.0,0.0,0.0,0.0,0.0,0.0,0.0,0.0,0.0,0.0,0.0,0.0,0.0,0.0,0.0,0.0,0.0,0.0,0.0,0.0,0.0,0.0,0.0,0.0,0.0,0.0,0.0,0.0,0.0,0.0,0.0,0.0,0.0,0.0,0.0,0.0,0.0,0.0,0.0,0.0,0.0,0.0,0.0,0.0,0.0,0.0,0.0,0.0,0.0,0.0,0.0,0.0,0.0,0.0,0.0,0.0,0.0,0.0,0.0,0.0,0.0,0.0,0.0,0.0,0.0,0.0,0.0,0.0,0.0,0.0,0.0,0.0,0.0,0.0,0.0,0.0,0.0,0.0,0.0,0.0,0.0,0.0,0.0,0.0,0.0,0.0,0.0,0.0,0.0,0.0,0.0,0.0,0.0,0.0,0.0,0.0,0.0,0.0,0.0,0.0,0.0,0.0,0.0,0.0,0.0,0.0,0.0,0.0,0.0,0.0,0.0,0.0,0.0,0.0,0.0,0.0,0.0,0.0,0.0,0.0,0.0,0.0,0.0,0.0,0.0,0.0,0.0,0.0,0.0,0.0,0.0,0.0,0.0,0.0,0.0,0.0,0.0,0.0,0.0,0.0,0.0,0.0,0.0,0.0,0.0,0.0,0.0,0.0,0.0,0.0,0.0,0.0,0.0,0.0,0.0,0.0,0.0,0.0,0.0,0.0,0.0,0.0,0.0,0.0,0.0,0.0,0.0,0.0,0.0,0.0,0.0,0.0,0.0,0.0,0.0,0.0,0.0,0.0,0.0,0.0,0.0,0.0,0.0,0.0,0.0,0.0,0.0,0.0,0.0,0.0,0.0,0.0,0.0,0.0,0.0,0.0,0.0,0.0,0.0,0.0,0.0,0.0,0.0,0.0,0.0,0.0,0.0,0.0,0.0,0.0,0.0,0.0,0.0,0.0,0.0,0.0,0.0,0.0,0.0,0.0,0.0,0.0,0.0,0.0,0.0,0.0,0.0,0.0,0.0,0.0,0.0,0.0,0.0,0.0,0.0,0.0,0.0,0.0,0.0,0.0,0.0,0.0,0.0,0.0,0.0,0.0,0.0,0.0,0.0,0.0,0.0,0.0,0.0,0.0,0.0,0.0,0.0,0.0,0.0,0.0,0.0,0.0,0.0,0.0,0.0,0.0,0.0,0.0,0.0,0.0,0.0,0.0,0.0,0.0,0.0,0.0,0.0,0.0,0.0,0.0,0.0,0.0,0.0,0.0,0.0,0.0,0.0,0.0,0.0,0.0,0.0,0.0,0.0,0.0,0.0,0.0,0.0,0.0,0.0,0.0,0.0,0.0,0.0,0.0,0.0,0.0,0.0,0.0,0.0,0.0,0.0,0.0,0.0,0.0,0.0,0.0,0.0,0.0,0.0,0.0,0.0,0.0,0.0,0.0,0.0,0.0,0.0,0.0,0.0,0.0,0.0,0.0,0.0,0.0,0.0,0.0,0.0,0.0,0.0,0.0,0.0,0.0,0.0,0.0,0.0,0.0,0.0,0.0,0.0,0.0,0.0,0.0,0.0,0.0,0.0,0.0,0.0,0.0,0.0,0.0,0.0,0.0,0.0,0.0,0.0,0.0,0.0,0.0,0.0,0.0,0.0,0.0,0.0,0.0,0.0,0.0,0.0,0.0,0.0,0.0,0.0,0.0,0.0,0.0,0.0,0.0,0.0,0.0,0.0,0.0,0.0,0.0,0.0,0.0,0.0,0.0,0.0,0.0,0.0,0.0,0.0,0.0,0.0,0.0,0.0,0.0,0.0,0.0,0.0,0.0,0.0,0.0,0.0,0.0,0.0,0.0,0.0,0.0,0.0,0.0,0.0,0.0,0.0,0.0,0.0,0.0,0.0,0.0,0.0,0.0,0.0,0.0,0.0,0.0,0.0,0.0,0.0,0.0,0.0,0.0,0.0,0.0,0.0,0.0,0.0,0.0,0.0,0.0,0.0,0.0,0.0,0.0,0.0,0.0,0.0,0.0,0.0,0.0,0.0,0.0,0.0,0.0,0.0,0.0,0.0,0.0,0.0,0.0,0.0,0.0,0.0,0.0,0.0,0.0,0.0,0.0,0.0,0.0,0.0,0.0,0.0,0.0,0.0,0.0,0.0,0.0,0.0,0.0,0.0,0.0,0.0,0.0,0.0,0.0,0.0,0.0,0.0,0.0,0.0,0.0,0.0,0.0,0.0,0.0,0.0,0.0,0.0,0.0,0.0,0.0,0.0,0.0,0.0,0.0,0.0,0.0,0.0,0.0,0.0,0.0,0.0,0.0,0.0,0.0,0.0,0.0,0.0,0.0,0.0,0.0,0.0,0.0,0.0,0.0,0.0,0.0,0.0,0.0,0.0,0.0,0.0,0.0,0.0,0.0,0.0,0.0,0.0,0.0,0.0,0.0,0.0,0.0,0.0,0.0,0.0,0.0,0.0,0.0,0.0,0.0,0.0,0.0,0.0,0.0,0.0,0.0,0.0,0.0,0.0,0.0,0.0,0.0,0.0,0.0,0.0,0.0,0.0,0.0,0.0,0.0,0.0,0.0,0.0,0.0,0.0,0.0,0.0,0.0,0.0,0.0,0.0,0.0,0.0,0.0,0.0,0.0,0.0,0.0,0.0,0.0,0.0,0.0,0.0,0.0,0.0,0.0,0.0,0.0,0.0,0.0,0.0,0.0,0.0,0.0,0.0,0.0,0.0,0.0,0.0,0.0,0.0,0.0,0.0,0.0,0.0,0.0,0.0,0.0,0.0,0.0,0.0,0.0,0.0,0.0,0.0,0.0,0.0,0.0,0.0,0.0,0.0,0.0,0.0,0.0,0.0,0.0,0.0,0.0,0.0,0.0,0.0,0.0,0.0,0.0,0.0,0.0,0.0,0.0,0.0,0.0,0.0,0.0,0.0,0.0,0.0,0.0,0.0,0.0,0.0,0.0,0.0,0.0,0.0,0.0,0.0,0.0,0.0,0.0,0.0,0.0,0.0,0.0,0.0,0.0,0.0,0.0,0.0,0.0,0.0,0.0,0.0,0.0,0.0,0.0,0.0,0.0,0.0,0.0,0.0,0.0,0.0,0.0,0.0,0.0,0.0,0.0,0.0,0.0,0.0,0.0,0.0,0.0,0.0,0.0,0.0,0.0,0.0,0.0,0.0,0.0,0.0,0.0,0.0,0.0,0.0,0.0,0.0,0.0,0.0,0.0,0.0,0.0,0.0,0.0,0.0,0.0,0.0,0.0,0.0,0.0,0.0,0.0,0.0,0.0,0.0,0.0,0.0,0.0,0.0,0.0,0.0,0.0,0.0,0.0,0.0,0.0,0.0,0.0,0.0,0.0,0.0,0.0,0.0,0.0,0.0,0.0,0.0,0.0,0.0,0.0,0.0,0.0,0.0,0.0,0.0,0.0,0.0,0.0,0.0,0.0,0.0,0.0,0.0,0.0,0.0,0.0,0.0,0.0,0.0,0.0,0.0,0.0,0.0,0.0,0.0,0.0,0.0,0.0,0.0,0.0,0.0,0.0,0.0,0.0,0.0,0.0,0.0,0.0,0.0,0.0,0.0,0.0,0.0,0.0,0.0,0.0,0.0,0.0,0.0,0.0,0.0,0.0,0.0,0.0,0.0,0.0,0.0,0.0,0.0,0.0,0.0,0.0,0.0,0.0,0.0,0.0,0.0,0.0,0.0,0.0,0.0,0.0,0.0,0.0,0.0,0.0,0.0,0.0,0.0,0.0,0.0,0.0,0.0,0.0,0.0,0.0,0.0,0.0,0.0,0.0,0.0,0.0,0.0,0.0,0.0,0.0,0.0,0.0,0.0,0.0,0.0,0.0,0.0,0.0,0.0,0.0,0.0,0.0,0.0,0.0,0.0,0.0,0.0,0.0,0.0,0.0,0.0,0.0,0.0,0.0,0.0,0.0,0.0,0.0,0.0,0.0,0.0,0.0,0.0,0.0,0.0,0.0,0.0,0.0,0.0,0.0,0.0,0.0,0.0,0.0,0.0,0.0,0.0,0.0,0.0,0.0,0.0,0.0,0.0,0.0,0.0,0.0,0.0,0.0,0.0,0.0,0.0,0.0,0.0,0.0,0.0,0.0,0.0,0.0,0.0,0.0,0.0,0.0,0.0,0.0,0.0,0.0,0.0,-2.4332,0.0,0.0,0.0,0.0,0.0,0.0,0.0,0.0,0.0,0.0,0.0,0.0,0.0,0.0,0.0,0.0,0.0,0.0,0.0,0.0,0.0,0.0,0.0,0.0,0.0,0.0,0.0,0.0,0.0,0.0,0.0,0.0,0.0,0.0,0.0,0.0,0.0,0.0,0.0,0.0,0.0,0.0,0.0,0.0,0.0,0.0,0.0,0.0,0.0,0.0,0.0,0.0,0.0,0.0,0.0,0.0,0.0,0.0,0.0,0.0,0.0,0.0,0.0,0.0,0.0,0.0,0.0,0.0,0.0,0.0,0.0,0.0,0.0,0.0,0.0,0.0,0.0,0.0,0.0,0.0,0.0,0.0,0.0,0.0,0.0,0.0,0.0,0.0,0.0,0.0,0.0,0.0,0.0,0.0,0.0,0.0,0.0,0.0,0.0,0.0,0.0,0.0,0.0,0.0,0.0,0.0,0.0,0.0,0.0,0.0,-2.8964,-2.8426,-2.7564,-2.6465,-2.5088,0.0,0.0,0.0,0.0,0.0,0.0,0.0,0.0,0.0,0.0,0.0,0.0,0.0,0.0,0.0,0.0,0.0,0.0,0.0,0.0,0.0,0.0,0.0,0.0,0.0,0.0,0.0,0.0,0.0,0.0,0.0,0.0,0.0,0.0,0.0,0.0,0.0,0.0,0.0,0.0,0.0,0.0,0.0,0.0,0.0,0.0,0.0,0.0,0.0,0.0,0.0,0.0,0.0,0.0,0.0,0.0,0.0,0.0,0.0,0.0,0.0,0.0,0.0,0.0,0.0,0.0,0.0,0.0,0.0,0.0,0.0,0.0,0.0,0.0,0.0,0.0,0.0,0.0,0.0,0.0,0.0,0.0,0.0,0.0,0.0,0.0,0.0,0.0,0.0,0.0,0.0,0.0,0.0,0.0,0.0,0.0,0.0,0.0,0.0,0.0,0.0,0.0,0.0,0.0,0.0,0.0,0.0,0.0,0.0,0.0,0.0,0.0,-2.9783,-2.8391,-2.593,0.0,0.0,0.0,0.0,0.0,0.0,0.0,0.0,0.0,0.0,0.0,0.0,0.0,0.0,0.0,0.0,0.0,0.0,0.0,0.0,0.0,0.0,0.0,0.0,0.0,0.0,0.0,0.0,0.0,0.0,0.0,0.0,0.0,0.0,0.0,0.0,0.0,0.0,0.0,0.0,0.0,0.0,0.0,0.0,0.0,0.0,0.0,0.0,0.0,0.0,0.0,0.0,0.0,0.0,0.0,0.0,0.0,0.0,0.0,0.0,0.0,0.0,0.0,0.0,0.0,0.0,0.0,0.0,0.0,0.0,0.0,0.0,0.0,0.0,0.0,0.0,0.0,0.0,0.0,0.0,0.0,0.0,0.0,0.0,0.0,0.0,0.0,0.0,0.0,0.0,0.0,0.0,0.0,0.0,0.0,0.0,0.0,0.0,0.0,0.0,0.0,0.0,0.0,0.0,0.0,0.0,0.0,0.0,0.0,0.0,-3.1129,-3.1595,-3.1297,0.0,-2.6863,0.0,0.0,0.0,0.0,0.0,0.0,0.0,0.0,0.0,0.0,0.0,0.0,0.0,0.0,0.0,0.0,0.0,0.0,0.0,0.0,0.0,0.0,0.0,0.0,0.0,0.0,0.0,0.0,0.0,0.0,0.0,0.0,0.0,0.0,0.0,0.0,0.0,0.0,0.0,0.0,0.0,0.0,0.0,0.0,0.0,0.0,0.0,0.0,0.0,0.0,0.0,0.0,0.0,0.0,0.0,0.0,0.0,0.0,0.0,0.0,0.0,0.0,0.0,0.0,0.0,0.0,0.0,0.0,0.0,0.0,0.0,0.0,0.0,0.0,0.0,0.0,0.0,0.0,0.0,0.0,0.0,0.0,0.0,0.0,0.0,0.0,0.0,0.0,0.0,0.0,0.0,0.0,0.0,0.0,0.0,0.0,0.0,0.0,0.0,0.0,0.0,0.0,0.0,0.0,0.0,0.0,0.0,0.0,0.0,0.0,0.0,-3.3222,-3.1652,-2.9866,0.0,0.0,0.0,0.0,0.0,0.0,0.0,0.0,0.0,0.0,0.0,0.0,0.0,0.0,0.0,0.0,0.0,0.0,0.0,0.0,0.0,0.0,0.0,0.0,0.0,0.0,0.0,0.0,0.0,0.0,0.0,0.0,0.0,0.0,0.0,0.0,0.0,0.0,0.0,0.0,0.0,0.0,0.0,0.0,0.0,0.0,0.0,0.0,0.0,0.0,0.0,0.0,0.0,0.0,0.0,0.0,0.0,0.0,0.0,0.0,0.0,0.0,0.0,0.0,0.0,0.0,0.0,0.0,0.0,0.0,0.0,0.0,0.0,0.0,0.0,0.0,0.0,0.0,0.0,0.0,0.0,0.0,0.0,0.0,0.0,0.0,0.0,0.0,0.0,0.0,0.0,0.0,0.0,0.0,0.0,0.0,0.0,0.0,0.0,0.0,0.0,0.0,0.0,0.0,0.0,0.0,0.0,0.0,0.0,0.0,-3.3634,0.0,-3.4507,-3.2511,-3.0387,-2.8219,0.0,0.0,0.0,0.0,0.0,0.0,0.0,0.0,0.0,0.0,0.0,0.0,0.0,0.0,0.0,0.0,0.0,0.0,0.0,0.0,0.0,0.0,0.0,0.0,0.0,0.0,0.0,0.0,0.0,0.0,0.0,0.0,0.0,0.0,0.0,0.0,0.0,0.0,0.0,0.0,0.0,0.0,0.0,0.0,0.0,0.0,0.0,0.0,0.0,0.0,0.0,0.0,0.0,0.0,0.0,0.0,0.0,0.0,0.0,0.0,0.0,0.0,0.0,0.0,0.0,0.0,0.0,0.0,0.0,0.0,0.0,0.0,0.0,0.0,0.0,0.0,0.0,0.0,0.0,0.0,0.0,0.0,0.0,0.0,0.0,0.0,0.0,0.0,0.0,0.0,0.0,0.0,0.0,0.0,0.0,0.0,0.0,0.0,0.0,0.0,0.0,0.0,0.0,0.0,0.0,0.0,0.0,0.0,0.0,-3.4643,-3.4666,-3.5647,-3.4462,-3.1877,0.0,0.0,0.0,0.0,0.0,0.0,0.0,0.0,0.0,0.0,0.0,0.0,0.0,0.0,0.0,0.0,0.0,0.0,0.0,0.0,0.0,0.0,0.0,0.0,0.0,0.0,0.0,0.0,0.0,0.0,0.0,0.0,0.0,0.0,0.0,0.0,0.0,0.0,0.0,0.0,0.0,0.0,0.0,0.0,0.0,0.0,0.0,0.0,0.0,0.0,0.0,0.0,0.0,0.0,0.0,0.0,0.0,0.0,0.0,0.0,0.0,0.0,0.0,0.0,0.0,0.0,0.0,0.0,0.0,0.0,0.0,0.0,0.0,0.0,0.0,0.0,0.0,0.0,0.0,0.0,0.0,0.0,0.0,0.0,0.0,0.0,0.0,0.0,0.0,0.0,0.0,0.0,0.0,0.0,0.0,0.0,0.0,0.0,0.0,0.0,0.0,0.0,0.0,0.0,0.0,0.0,0.0,0.0,0.0,-3.3294,-3.4791,-3.6596,-3.8611,-3.5172,-3.2144,0.0,0.0,0.0,0.0,0.0,0.0,0.0,0.0,0.0,0.0,0.0,0.0,0.0,0.0,0.0,0.0,0.0,0.0,0.0,0.0,0.0,0.0,0.0,0.0,0.0,0.0,0.0,0.0,0.0,0.0,0.0,0.0,0.0,0.0,0.0,0.0,0.0,0.0,0.0,0.0,0.0,0.0,0.0,0.0,0.0,0.0,0.0,0.0,0.0,0.0,0.0,0.0,0.0,0.0,0.0,0.0,0.0,0.0,0.0,0.0,0.0,0.0,0.0,0.0,0.0,0.0,0.0,0.0,0.0,0.0,0.0,0.0,0.0,0.0,0.0,0.0,0.0,0.0,0.0,0.0,0.0,0.0,0.0,0.0,0.0,0.0,0.0,0.0,0.0,0.0,0.0,0.0,0.0,0.0,0.0,0.0,0.0,0.0,0.0,0.0,0.0,0.0,0.0,0.0,0.0,0.0,0.0,0.0,0.0,-3.3437,0.0,-3.814,0.0,-3.5561,-3.2248,0.0,0.0,0.0,0.0,0.0,0.0,0.0,0.0,0.0,0.0,0.0,0.0,0.0,0.0,0.0,0.0,0.0,0.0,0.0,0.0,0.0,0.0,0.0,0.0,0.0,0.0,0.0,0.0,0.0,0.0,0.0,0.0,0.0,0.0,0.0,0.0,0.0,0.0,0.0,0.0,0.0,0.0,0.0,0.0,0.0,0.0,0.0,0.0,0.0,0.0,0.0,0.0,0.0,0.0,0.0,0.0,0.0,0.0,0.0,0.0,0.0,0.0,0.0,0.0,0.0,0.0,0.0,0.0,0.0,0.0,0.0,0.0,0.0,0.0,0.0,0.0,0.0,0.0,0.0,0.0,0.0,0.0,0.0,0.0,0.0,0.0,0.0,0.0,0.0,0.0,0.0,0.0,0.0,0.0,0.0,0.0,0.0,0.0,0.0,0.0,0.0,0.0,0.0,0.0,0.0,0.0,0.0,0.0,-3.1996,-3.6111,-3.8798,-3.8942,-3.6399,-3.565,-3.2323,0.0,0.0,0.0,0.0,0.0,0.0,0.0,0.0,0.0,0.0,0.0,0.0,0.0,0.0,0.0,0.0,0.0,0.0,0.0,0.0,0.0,0.0,0.0,0.0,0.0,0.0,0.0,0.0,0.0,0.0,0.0,0.0,0.0,0.0,0.0,0.0,0.0,0.0,0.0,0.0,0.0,0.0,0.0,0.0,0.0,0.0,0.0,0.0,0.0,0.0,0.0,0.0,0.0,0.0,0.0,0.0,0.0,0.0,0.0,0.0,0.0,0.0,0.0,0.0,0.0,0.0,0.0,0.0,0.0,0.0,0.0,0.0,0.0,0.0,0.0,0.0,0.0,0.0,0.0,0.0,0.0,0.0,0.0,0.0,0.0,0.0,0.0,0.0,0.0,0.0,0.0,0.0,0.0,0.0,0.0,0.0,0.0,0.0,0.0,0.0,0.0,0.0,0.0,0.0,0.0,0.0,0.0,0.0,0.0,-3.5675,-3.7238,-3.8227,-3.8457,-3.5444,-3.2641,0.0,0.0,0.0,0.0,0.0,0.0,0.0,0.0,0.0,0.0,0.0,0.0,0.0,0.0,0.0,0.0,0.0,0.0,0.0,0.0,0.0,0.0,0.0,0.0,0.0,0.0,0.0,0.0,0.0,0.0,0.0,0.0,0.0,0.0,0.0,0.0,0.0,0.0,0.0,0.0,0.0,0.0,0.0,0.0,0.0,0.0,0.0,0.0,0.0,0.0,0.0,0.0,0.0,0.0,0.0,0.0,0.0,0.0,0.0,0.0,0.0,0.0,0.0,0.0,0.0,0.0,0.0,0.0,0.0,0.0,0.0,0.0,0.0,0.0,0.0,0.0,0.0,0.0,0.0,0.0,0.0,0.0,0.0,0.0,0.0,0.0,0.0,0.0,0.0,0.0,0.0,0.0,0.0,0.0,0.0,0.0,0.0,0.0,0.0,0.0,0.0,0.0,0.0,0.0,0.0,0.0,0.0,0.0,0.0,-3.6834,-3.851,-3.9494,-3.9652,-3.6379,-3.3751,-3.189,0.0,0.0,0.0,0.0,0.0,0.0,0.0,0.0,0.0,0.0,0.0,0.0,0.0,0.0,0.0,0.0,0.0,0.0,0.0,0.0,0.0,0.0,0.0,0.0,0.0,0.0,0.0,0.0,0.0,0.0,0.0,0.0,0.0,0.0,0.0,0.0,0.0,0.0,0.0,0.0,0.0,0.0,0.0,0.0,0.0,0.0,0.0,0.0,0.0,0.0,0.0,0.0,0.0,0.0,0.0,0.0,0.0,0.0,0.0,0.0,0.0,0.0,0.0,0.0,0.0,0.0,0.0,0.0,0.0,0.0,0.0,0.0,0.0,0.0,0.0,0.0,0.0,0.0,0.0,0.0,0.0,0.0,0.0,0.0,0.0,0.0,0.0,0.0,0.0,0.0,0.0,0.0,0.0,0.0,0.0,0.0,0.0,0.0,0.0,0.0,0.0,0.0,0.0,0.0,0.0,0.0,0.0,0.0,-3.9138,-4.199,-4.225,-3.9767,-3.8117,-3.5457,0.0,0.0,0.0,0.0,0.0,0.0,0.0,0.0,0.0,0.0,0.0,0.0,0.0,0.0,0.0,0.0,0.0,0.0,0.0,0.0,0.0,0.0,0.0,0.0,0.0,0.0,0.0,0.0,0.0,0.0,0.0,0.0,0.0,0.0,0.0,0.0,0.0,0.0,0.0,0.0,0.0,0.0,0.0,0.0,0.0,0.0,0.0,0.0,0.0,0.0,0.0,0.0,0.0,0.0,0.0,0.0,0.0,0.0,0.0,0.0,0.0,0.0,0.0,0.0,0.0,0.0,0.0,0.0,0.0,0.0,0.0,0.0,0.0,0.0,0.0,0.0,0.0,0.0,0.0,0.0,0.0,0.0,0.0,0.0,0.0,0.0,0.0,0.0,0.0,0.0,0.0,0.0,0.0,0.0,0.0,0.0,0.0,0.0,0.0,0.0,0.0,0.0,0.0,0.0,0.0,0.0,0.0,0.0,0.0,-4.0935,-4.2607,-4.2555,-4.0577,-3.8587,-3.6288,0.0,0.0,0.0,0.0,0.0,0.0,0.0,0.0,0.0,0.0,0.0,0.0,0.0,0.0,0.0,0.0,0.0,0.0,0.0,0.0,0.0,0.0,0.0,0.0,0.0,0.0,0.0,0.0,0.0,0.0,0.0,0.0,0.0,0.0,0.0,0.0,0.0,0.0,0.0,0.0,0.0,0.0,0.0,0.0,0.0,0.0,0.0,0.0,0.0,0.0,0.0,0.0,0.0,0.0,0.0,0.0,0.0,0.0,0.0,0.0,0.0,0.0,0.0,0.0,0.0,0.0,0.0,0.0,0.0,0.0,0.0,0.0,0.0,0.0,0.0,0.0,0.0,0.0,0.0,0.0,0.0,0.0,0.0,0.0,0.0,0.0,0.0,0.0,0.0,0.0,0.0,0.0,0.0,0.0,0.0,0.0,0.0,0.0,0.0,0.0,0.0,0.0,0.0,0.0,0.0,0.0,0.0,0.0,-4.0877,-4.2079,-4.3014,-4.2792,-4.1296,-3.9764,-3.7637,0.0,0.0,0.0,0.0,0.0,0.0,0.0,0.0,0.0,0.0,0.0,0.0,0.0,0.0,0.0,0.0,0.0,0.0,0.0,0.0,0.0,0.0,0.0,0.0,0.0,0.0,0.0,0.0,0.0,0.0,0.0,0.0,0.0,0.0,0.0,0.0,0.0,0.0,0.0,0.0,0.0,0.0,0.0,0.0,0.0,0.0,0.0,0.0,0.0,0.0,0.0,0.0,0.0,0.0,0.0,0.0,0.0,0.0,0.0,0.0,0.0,0.0,0.0,0.0,0.0,0.0,0.0,0.0,0.0,0.0,0.0,0.0,0.0,0.0,0.0,0.0,0.0,0.0,0.0,0.0,0.0,0.0,0.0,0.0,0.0,0.0,0.0,0.0,0.0,0.0,0.0,0.0,0.0,0.0,0.0,0.0,0.0,0.0,0.0,0.0,0.0,0.0,0.0,0.0,0.0,0.0,0.0,0.0,-4.1334,-4.2818,-4.3287,-4.2995,-4.1902,-4.1132,-3.9091,0.0,0.0,0.0,0.0,0.0,0.0,0.0,0.0,0.0,0.0,0.0,0.0,0.0,0.0,0.0,0.0,0.0,0.0,0.0,0.0,0.0,0.0,0.0,0.0,0.0,0.0,0.0,0.0,0.0,0.0,0.0,0.0,0.0,0.0,0.0,0.0,0.0,0.0,0.0,0.0,0.0,0.0,0.0,0.0,0.0,0.0,0.0,0.0,0.0,0.0,0.0,0.0,0.0,0.0,0.0,0.0,0.0,0.0,0.0,0.0,0.0,0.0,0.0,0.0,0.0,0.0,0.0,0.0,0.0,0.0,0.0,0.0,0.0,0.0,0.0,0.0,0.0,0.0,0.0,0.0,0.0,0.0,0.0,0.0,0.0,0.0,0.0,0.0,0.0,0.0,0.0,0.0,0.0,0.0,0.0,0.0,0.0,0.0,0.0,0.0,0.0,0.0,0.0,0.0,0.0,0.0,0.0,0.0,-4.2829,-4.3186,-4.3397,-4.316,-4.2537,-4.1337,-3.9091,0.0,0.0,0.0,0.0,0.0,0.0,0.0,0.0,0.0,0.0,0.0,0.0,0.0,0.0,0.0,0.0,0.0,0.0,0.0,0.0,0.0,0.0,0.0,0.0,0.0,0.0,0.0,0.0,0.0,0.0,0.0,0.0,0.0,0.0,0.0,0.0,0.0,0.0,0.0,0.0,0.0,0.0,0.0,0.0,0.0,0.0,0.0,0.0,-3.8961,0.0,0.0,0.0,0.0,0.0,0.0,0.0,0.0,0.0,0.0,0.0,0.0,0.0,0.0,0.0,0.0,0.0,0.0,0.0,0.0,0.0,0.0,0.0,0.0,0.0,0.0,0.0,0.0,0.0,0.0,0.0,0.0,0.0,0.0,0.0,0.0,0.0,0.0,0.0,0.0,0.0,0.0,0.0,0.0,0.0,0.0,0.0,0.0,0.0,0.0,0.0,0.0,0.0,0.0,0.0,0.0,0.0,0.0,0.0,-4.3479,-4.3894,-4.3645,-4.3124,-4.2284,-4.1588,-3.9585,0.0,0.0,0.0,0.0,0.0,0.0,0.0,0.0,0.0,0.0,0.0,0.0,0.0,0.0,0.0,0.0,0.0,0.0,0.0,0.0,0.0,0.0,0.0,0.0,0.0,0.0,0.0,0.0,0.0,0.0,0.0,0.0,0.0,0.0,0.0,0.0,0.0,0.0,0.0,0.0,0.0,0.0,0.0,0.0,0.0,0.0,0.0,0.0,0.0,0.0,0.0,0.0,0.0,0.0,0.0,0.0,0.0,0.0,0.0,0.0,0.0,0.0,0.0,0.0,0.0,0.0,0.0,0.0,0.0,0.0,0.0,0.0,0.0,0.0,0.0,0.0,0.0,0.0,0.0,0.0,0.0,0.0,0.0,0.0,0.0,0.0,0.0,0.0,0.0,0.0,0.0,0.0,0.0,0.0,0.0,0.0,0.0,0.0,0.0,0.0,0.0,0.0,0.0,0.0,0.0,0.0,0.0,-4.2021,-4.3521,-4.4417,-4.3754,-4.2903,-4.1979,-4.1768,-4.0049,-3.6626,0.0,0.0,0.0,0.0,0.0,0.0,0.0,0.0,0.0,0.0,0.0,0.0,0.0,0.0,0.0,0.0,0.0,0.0,0.0,0.0,0.0,0.0,0.0,0.0,0.0,0.0,0.0,0.0,0.0,0.0,0.0,0.0,0.0,0.0,0.0,0.0,0.0,0.0,-2.539,-3.1532,0.0,0.0,0.0,0.0,0.0,0.0,0.0,0.0,-4.121,0.0,0.0,0.0,0.0,0.0,0.0,0.0,0.0,0.0,0.0,0.0,0.0,0.0,0.0,0.0,0.0,0.0,0.0,0.0,0.0,0.0,0.0,0.0,0.0,0.0,0.0,0.0,0.0,0.0,0.0,0.0,0.0,0.0,0.0,0.0,0.0,0.0,0.0,0.0,0.0,0.0,0.0,0.0,0.0,0.0,0.0,0.0,0.0,0.0,0.0,0.0,0.0,0.0,0.0,0.0,0.0,-4.1231,-4.167,-4.2604,-4.405,-4.3283,-4.2732,-4.2537,-4.156,-3.9616,-3.6696,0.0,0.0,0.0,0.0,0.0,0.0,0.0,0.0,0.0,0.0,0.0,0.0,0.0,0.0,0.0,0.0,0.0,0.0,0.0,0.0,0.0,0.0,0.0,0.0,0.0,0.0,0.0,0.0,0.0,0.0,0.0,0.0,0.0,0.0,0.0,0.0,0.0,0.0,0.0,-3.5025,-3.8629,0.0,0.0,0.0,0.0,0.0,0.0,0.0,0.0,-4.1893,0.0,0.0,0.0,0.0,0.0,0.0,0.0,0.0,0.0,0.0,0.0,0.0,0.0,0.0,0.0,0.0,0.0,0.0,0.0,0.0,0.0,0.0,0.0,0.0,0.0,0.0,0.0,0.0,0.0,0.0,0.0,0.0,0.0,0.0,0.0,0.0,0.0,0.0,0.0,0.0,0.0,0.0,0.0,0.0,0.0,0.0,0.0,0.0,0.0,0.0,0.0,0.0,0.0,0.0,0.0,-3.9888,-4.1853,-4.3215,-4.3949,-4.3159,-4.2559,-4.2226,-4.063,-3.8597,0.0,0.0,0.0,0.0,0.0,0.0,0.0,0.0,0.0,0.0,0.0,0.0,0.0,0.0,0.0,0.0,0.0,0.0,0.0,0.0,0.0,0.0,0.0,0.0,0.0,0.0,0.0,0.0,0.0,0.0,0.0,0.0,0.0,0.0,0.0,0.0,0.0,0.0,0.0,0.0,-3.6348,-3.9292,-4.1615,0.0,0.0,0.0,0.0,0.0,0.0,-4.1542,-4.1597,0.0,0.0,0.0,0.0,0.0,0.0,0.0,0.0,0.0,0.0,0.0,0.0,0.0,0.0,0.0,0.0,0.0,0.0,0.0,0.0,0.0,0.0,0.0,0.0,0.0,0.0,0.0,0.0,0.0,0.0,0.0,0.0,0.0,0.0,0.0,0.0,0.0,0.0,0.0,0.0,0.0,0.0,0.0,0.0,0.0,0.0,0.0,0.0,0.0,0.0,0.0,0.0,0.0,0.0,0.0,-3.8407,-4.1551,-4.338,-4.368,-4.2923,-4.2221,-4.1603,-3.9765,-3.7779,0.0,0.0,0.0,0.0,0.0,0.0,0.0,0.0,0.0,0.0,0.0,0.0,0.0,0.0,0.0,0.0,0.0,0.0,0.0,0.0,0.0,0.0,0.0,0.0,0.0,0.0,0.0,0.0,0.0,0.0,0.0,0.0,0.0,0.0,0.0,0.0,0.0,0.0,0.0,0.0,0.0,-3.9789,-4.1938,-4.1398,0.0,0.0,0.0,0.0,-4.0634,-4.1145,0.0,0.0,0.0,0.0,0.0,0.0,0.0,0.0,0.0,0.0,0.0,0.0,0.0,0.0,0.0,0.0,0.0,0.0,0.0,0.0,0.0,0.0,0.0,0.0,0.0,0.0,0.0,0.0,0.0,0.0,0.0,0.0,0.0,0.0,0.0,0.0,0.0,0.0,0.0,0.0,0.0,0.0,0.0,0.0,0.0,0.0,0.0,0.0,0.0,0.0,0.0,0.0,0.0,0.0,0.0,0.0,-3.7935,-3.9585,-4.1196,-4.2701,-4.2244,-4.1621,-4.1041,-3.9645,-3.7916,0.0,0.0,0.0,0.0,0.0,0.0,0.0,0.0,0.0,0.0,0.0,0.0,0.0,0.0,0.0,0.0,0.0,0.0,0.0,0.0,0.0,0.0,0.0,0.0,0.0,0.0,0.0,0.0,0.0,0.0,0.0,0.0,0.0,0.0,0.0,0.0,0.0,0.0,0.0,0.0,0.0,-4.0682,-4.0896,-4.0894,-4.1039,0.0,0.0,-4.0861,-4.111,-4.1474,0.0,0.0,0.0,0.0,0.0,0.0,0.0,0.0,0.0,0.0,0.0,0.0,0.0,0.0,0.0,0.0,0.0,0.0,0.0,0.0,0.0,0.0,0.0,0.0,0.0,0.0,0.0,0.0,0.0,0.0,0.0,0.0,0.0,0.0,0.0,0.0,0.0,0.0,0.0,0.0,0.0,0.0,0.0,0.0,0.0,0.0,0.0,0.0,0.0,0.0,0.0,0.0,0.0,0.0,0.0,-3.4222,-3.6897,-3.9443,-4.1144,-4.1897,-4.152,-4.0969,-4.0279,-3.8611,-3.6688,0.0,0.0,0.0,0.0,0.0,0.0,0.0,0.0,0.0,0.0,0.0,0.0,0.0,0.0,0.0,0.0,0.0,0.0,0.0,0.0,0.0,0.0,0.0,0.0,0.0,0.0,0.0,0.0,0.0,0.0,0.0,0.0,0.0,0.0,0.0,0.0,0.0,0.0,0.0,0.0,0.0,0.0,-4.0709,-4.0486,0.0,0.0,0.0,-3.9952,-4.0408,0.0,0.0,0.0,0.0,0.0,0.0,0.0,0.0,0.0,0.0,0.0,0.0,0.0,0.0,0.0,0.0,0.0,0.0,0.0,0.0,0.0,0.0,0.0,0.0,0.0,0.0,0.0,0.0,0.0,0.0,0.0,0.0,0.0,0.0,0.0,0.0,0.0,0.0,0.0,0.0,0.0,0.0,0.0,0.0,0.0,0.0,0.0,0.0,0.0,0.0,0.0,0.0,0.0,0.0,0.0,0.0,0.0,-3.5685,-3.8954,-4.0643,-4.0724,-4.049,-4.0026,-3.9307,-3.749,0.0,0.0,0.0,0.0,0.0,0.0,0.0,0.0,0.0,0.0,0.0,0.0,0.0,0.0,0.0,0.0,0.0,0.0,0.0,0.0,0.0,0.0,0.0,0.0,0.0,0.0,0.0,-2.31,0.0,0.0,0.0,0.0,0.0,0.0,0.0,0.0,0.0,0.0,0.0,0.0,0.0,0.0,-3.9059,-4.0001,-3.9632,-3.9329,0.0,0.0,-3.887,-3.9578,-4.0069,-4.0331,0.0,0.0,0.0,0.0,0.0,0.0,0.0,0.0,0.0,0.0,0.0,0.0,0.0,0.0,0.0,0.0,0.0,0.0,0.0,0.0,0.0,0.0,0.0,0.0,0.0,0.0,0.0,0.0,0.0,0.0,0.0,0.0,0.0,0.0,0.0,0.0,0.0,0.0,0.0,0.0,0.0,0.0,0.0,0.0,0.0,0.0,0.0,0.0,0.0,0.0,0.0,0.0,0.0,0.0,0.0,-3.4463,-3.7182,-3.8695,-3.886,-3.8825,-3.8601,-3.8034,-3.6502,-3.4979,0.0,0.0,0.0,0.0,0.0,0.0,0.0,0.0,0.0,0.0,0.0,0.0,0.0,0.0,0.0,0.0,0.0,0.0,0.0,0.0,0.0,0.0,0.0,0.0,0.0,0.0,0.0,0.0,0.0,0.0,0.0,0.0,0.0,0.0,0.0,0.0,0.0,0.0,0.0,0.0,0.0,-3.8652,-3.8107,-3.7975,-3.7937,0.0,0.0,-3.8108,-3.8865,-3.8995,-3.9282,-3.9952,0.0,0.0,0.0,0.0,0.0,0.0,0.0,0.0,0.0,0.0,0.0,0.0,0.0,0.0,0.0,0.0,0.0,0.0,0.0,0.0,0.0,0.0,0.0,0.0,0.0,0.0,0.0,0.0,0.0,0.0,0.0,0.0,0.0,0.0,0.0,0.0,0.0,0.0,0.0,0.0,0.0,0.0,0.0,0.0,0.0,0.0,0.0,0.0,0.0,0.0,0.0,0.0,0.0,-3.2435,-3.3584,-3.6382,-3.7875,-3.7975,-3.8122,-3.7899,-3.7212,-3.6637,-3.5199,0.0,0.0,0.0,0.0,0.0,0.0,0.0,0.0,0.0,0.0,0.0,0.0,0.0,0.0,0.0,0.0,0.0,0.0,0.0,0.0,0.0,0.0,0.0,0.0,0.0,0.0,0.0,0.0,-2.704,-2.7439,-2.762,0.0,0.0,0.0,0.0,0.0,0.0,0.0,0.0,0.0,0.0,-3.7607,-3.7769,-3.7382,0.0,0.0,-3.7306,-3.7285,-3.7979,-3.8178,-3.8318,-3.8613,-3.8423,0.0,0.0,0.0,0.0,0.0,0.0,0.0,0.0,0.0,0.0,0.0,0.0,0.0,0.0,0.0,0.0,0.0,0.0,0.0,0.0,0.0,0.0,0.0,0.0,0.0,0.0,0.0,0.0,0.0,0.0,0.0,0.0,0.0,0.0,0.0,0.0,0.0,0.0,0.0,0.0,0.0,0.0,0.0,0.0,0.0,0.0,0.0,0.0,0.0,0.0,0.0,0.0,-3.1869,-3.2869,-3.5322,-3.6715,-3.6895,-3.7092,-3.6975,-3.6451,-3.6214,-3.4895,0.0,0.0,0.0,0.0,0.0,0.0,0.0,0.0,0.0,0.0,0.0,0.0,0.0,0.0,0.0,0.0,0.0,0.0,0.0,0.0,0.0,0.0,0.0,0.0,0.0,0.0,0.0,0.0,-2.7725,-2.7976,-2.8881,0.0,0.0,0.0,0.0,0.0,0.0,0.0,0.0,0.0,0.0,-3.6827,-3.7377,-3.6753,-3.6444,-3.6919,-3.6582,-3.6445,-3.6877,-3.7244,-3.7515,-3.7764,0.0,0.0,0.0,0.0,0.0,0.0,0.0,0.0,0.0,0.0,0.0,0.0,0.0,0.0,0.0,0.0,0.0,0.0,0.0,0.0,0.0,0.0,0.0,0.0,0.0,0.0,0.0,0.0,0.0,0.0,-2.6725,0.0,0.0,0.0,0.0,0.0,0.0,0.0,0.0,0.0,0.0,0.0,0.0,0.0,0.0,0.0,0.0,0.0,0.0,0.0,0.0,0.0,0.0,-3.0891,-3.2297,-3.3838,-3.4955,-3.5622,-3.5673,-3.5707,-3.5656,-3.4945,-3.3846,-3.2347,0.0,0.0,0.0,0.0,0.0,0.0,0.0,0.0,0.0,0.0,0.0,0.0,0.0,0.0,0.0,0.0,0.0,0.0,0.0,0.0,0.0,0.0,0.0,0.0,0.0,0.0,-2.8953,-2.7972,-2.7581,0.0,0.0,0.0,0.0,0.0,0.0,0.0,0.0,0.0,0.0,-3.6644,-3.66,-3.66,-3.6006,-3.5504,-3.5599,-3.5519,-3.5503,-3.5599,-3.6153,-3.6904,0.0,0.0,0.0,0.0,0.0,0.0,0.0,0.0,0.0,0.0,0.0,0.0,0.0,0.0,0.0,0.0,0.0,0.0,0.0,0.0,0.0,0.0,0.0,0.0,0.0,0.0,0.0,-2.8693,-2.7674,0.0,0.0,0.0,0.0,0.0,0.0,0.0,0.0,0.0,0.0,0.0,-3.3308,-3.2992,0.0,0.0,0.0,0.0,0.0,0.0,0.0,0.0,0.0,0.0,0.0,0.0,-3.0835,-3.2313,-3.3744,-3.4844,-3.5588,-3.5639,-3.5639,-3.5605,-3.5385,-3.4303,-3.2381,0.0,0.0,0.0,0.0,0.0,0.0,0.0,0.0,0.0,0.0,0.0,0.0,0.0,0.0,0.0,0.0,0.0,0.0,0.0,0.0,0.0,0.0,0.0,0.0,0.0,-2.9256,0.0,0.0,0.0,0.0,0.0,0.0,0.0,0.0,0.0,0.0,0.0,-3.5388,-3.5841,-3.5861,-3.5894,-3.5894,-3.5088,-3.4758,0.0,0.0,0.0,0.0,0.0,0.0,0.0,0.0,0.0,0.0,0.0,0.0,0.0,0.0,-3.3955,-3.2928,-3.2426,-3.1723,-3.0232,0.0,0.0,0.0,0.0,0.0,0.0,0.0,0.0,0.0,0.0,0.0,0.0,0.0,0.0,-2.9295,0.0,-2.8596,0.0,0.0,0.0,0.0,0.0,0.0,0.0,0.0,-3.3481,-3.4117,-3.4597,-3.4296,-3.4184,0.0,-3.3186,-3.2357,0.0,0.0,0.0,0.0,0.0,0.0,0.0,0.0,-3.0818,-3.2239,-3.322,-3.4201,-3.5165,-3.5233,-3.5351,-3.5605,-3.5131,-3.3931,-3.1968,-3.0277,-2.8898,0.0,0.0,0.0,0.0,0.0,0.0,0.0,0.0,0.0,0.0,0.0,0.0,0.0,0.0,0.0,0.0,0.0,0.0,0.0,0.0,0.0,0.0,0.0,-2.9834,0.0,0.0,0.0,0.0,0.0,0.0,0.0,0.0,0.0,-3.3016,-3.4164,-3.4911,-3.4558,-3.4501,-3.4491,-3.4491,0.0,0.0,0.0,0.0,0.0,0.0,0.0,-3.5487,-3.5519,-3.5489,-3.5489,-3.5489,-3.5489,-3.5489,-3.5489,0.0,0.0,-3.3093,-3.2047,-3.1103,-3.0445,-3.0347,-3.0355,-3.0521,-3.0118,-2.9908,0.0,0.0,0.0,0.0,0.0,0.0,0.0,0.0,-2.9922,-3.0192,0.0,-2.9417,0.0,0.0,0.0,0.0,0.0,0.0,0.0,0.0,-3.4776,-3.5554,-3.5554,-3.5554,-3.5622,-3.5622,-3.5554,-3.5165,-3.432,-3.1613,0.0,0.0,0.0,0.0,0.0,0.0,-3.0818,-3.2222,-3.2347,-3.3042,-3.4404,-3.4455,-3.4793,-3.5453,-3.4117,-3.2713,-3.1309,-3.0514,-2.977,-2.9042,-2.7827,0.0,0.0,0.0,0.0,0.0,0.0,0.0,0.0,0.0,0.0,0.0,0.0,0.0,0.0,0.0,0.0,0.0,0.0,0.0,0.0,-3.045,0.0,0.0,0.0,0.0,0.0,0.0,0.0,0.0,0.0,0.0,-3.2047,-3.3176,-3.3682,-3.2779,0.0,0.0,0.0,0.0,-3.2354,-3.184,-3.2747,-3.3494,-3.3528,-3.4632,-3.5398,-3.5434,0.0,0.0,-3.5489,-3.5489,-3.5489,-3.5489,-3.5424,-3.4839,-3.2933,-3.1267,-3.0028,-2.9859,-2.9858,-2.9767,-2.9767,-2.9833,-2.9806,-3.3119,0.0,0.0,0.0,0.0,-3.1619,-3.1546,-3.1433,-3.2138,-3.1867,-3.0869,-3.0649,0.0,0.0,0.0,0.0,0.0,0.0,-3.141,-3.2628,-3.3592,-3.432,-3.4827,-3.5368,-3.5639,-3.5639,-3.5639,-3.5233,-3.4455,-3.3119,-3.1935,-3.0903,0.0,0.0,0.0,0.0,-3.0818,-3.2212,-3.2313,-3.2747,-3.3694,-3.3728,-3.3829,-3.4032,-3.3119,-3.2408,-3.1968,-3.0768,-2.982,-2.922,-2.8373,0.0,0.0,0.0,0.0,0.0,0.0,0.0,0.0,0.0,0.0,0.0,0.0,0.0,0.0,0.0,0.0,0.0,0.0,0.0,-2.9532,-2.9646,-2.979,0.0,0.0,0.0,0.0,0.0,0.0,0.0,0.0,0.0,-3.0815,-3.2082,-3.2932,0.0,0.0,-3.2593,-3.2593,-3.2019,-3.1648,-3.1697,0.0,0.0,0.0,-3.3476,-3.4419,-3.4409,-3.4986,-3.5489,-3.5489,-3.5489,-3.5489,-3.5489,-3.4765,-3.3776,-3.2862,-3.2212,-3.1329,-3.019,-2.9779,-2.9779,-2.9779,-2.9779,-2.9779,-3.4985,-3.4465,-3.3253,-3.273,-3.273,-3.2713,-3.273,-3.2763,-3.322,-3.2899,-3.2036,-3.1765,-3.097,-2.9854,-2.955,0.0,0.0,0.0,-3.1596,-3.2747,-3.3203,-3.3795,-3.4489,-3.4658,-3.5064,-3.5543,-3.5318,-3.4945,-3.4472,-3.4049,-3.3085,-3.1647,0.0,0.0,-3.0548,-3.0548,-3.097,-3.1799,-3.1833,-3.2205,-3.2949,-3.3254,-3.3271,-3.2966,-3.251,-3.2154,-3.185,-3.1004,-3.0398,-3.0072,-2.9332,-2.839,0.0,0.0,0.0,0.0,0.0,0.0,0.0,0.0,0.0,0.0,0.0,-2.6221,0.0,0.0,0.0,0.0,-2.8767,-2.9518,-3.0112,-3.0833,0.0,0.0,0.0,0.0,0.0,0.0,0.0,-3.1891,-3.1612,-3.1218,-3.0665,-3.1116,-3.1489,-3.1476,-3.1489,-3.1476,-3.1489,0.0,-3.0706,-3.0882,-3.0803,-3.0878,-3.1568,-3.2877,-3.398,-3.4476,-3.5067,-3.5504,-3.5489,-3.5489,-3.5489,-3.5409,-3.4846,-3.4008,-3.2792,-3.2593,-3.2033,-3.0216,-2.9779,-2.9779,-2.9779,-2.9779,-2.9779,-3.6457,-3.6295,-3.4497,-3.3626,-3.3508,-3.3491,-3.3491,-3.3491,-3.3558,-3.3525,-3.3355,-3.2679,-3.1935,-3.1157,-3.0497,0.0,-3.1224,-3.1884,-3.2527,-3.3237,-3.3288,-3.3694,-3.437,-3.3728,-3.415,-3.552,-3.4827,-3.4438,-3.4303,-3.4353,-3.366,-3.2205,-3.1529,-3.119,-3.119,-3.119,-3.119,-3.119,-3.119,-3.1512,-3.2229,-3.2865,-3.2899,-3.2205,-3.2188,-3.1867,-3.1241,-3.119,-3.119,-3.1173,-3.0548,-2.9614,-2.8406,0.0,0.0,0.0,0.0,0.0,0.0,0.0,0.0,0.0,0.0,0.0,0.0,0.0,0.0,0.0,-3.0971,0.0,-3.1275,-3.3027,0.0,0.0,0.0,-3.2216,-3.1411,-3.1811,-3.1976,-3.164,0.0,0.0,-3.1106,0.0,-2.9779,-2.9779,-2.9779,-2.9779,-2.9779,-2.9856,-2.9779,-2.9844,-2.9779,-3.0253,-3.1532,-3.2818,-3.4054,-3.5192,-3.5489,-3.5489,-3.5489,-3.5489,-3.5489,-3.5489,-3.5489,-3.4839,-3.2961,-3.2566,-3.1933,-3.0139,-2.9779,-2.9779,-2.9779,-2.9779,-2.9779,-3.6999,-3.6964,-3.6478,-3.5475,-3.4235,-3.4235,-3.4235,-3.4303,-3.4844,-3.4472,-3.3406,-3.322,-3.2425,-3.1173,-3.1021,-3.1021,-3.1207,-3.1376,-3.1546,-3.1749,-3.229,-3.2933,-3.3643,-3.3491,-3.388,-3.4709,-3.4573,-3.3897,-3.2923,-3.3389,-3.2916,-3.1512,-3.1275,-3.119,-3.119,-3.119,-3.119,-3.119,-3.119,-3.1275,-3.1444,-3.163,-3.1647,-3.1461,-3.1461,-3.1376,-3.1207,-3.119,-3.119,-3.119,-3.1021,-3.056,-2.9703,-2.7685,0.0,0.0,0.0,0.0,0.0,0.0,0.0,0.0,0.0,-2.6907,-2.627,0.0,-2.8979,0.0,-3.0486,-3.1534,-3.1917,-3.2009,0.0,0.0,-3.3513,-3.324,-3.3287,-3.2857,-3.2164,-3.1382,-3.0618,-3.0139,-3.0139,-2.9934,-2.9779,-2.9779,-2.9779,-2.9779,-2.9779,-2.9779,-2.9779,-2.9779,-2.9779,-3.0228,-3.1516,-3.2974,-3.4278,-3.5309,-3.5489,-3.5489,-3.5489,-3.5489,-3.5489,-3.5489,-3.5489,-3.4758,-3.2933,-3.2272,-3.1441,-3.0165,-2.9779,-2.9779,-2.9779,-2.9779,-2.9779,-3.7506,-3.7506,-3.7285,-3.6619,-3.5693,-3.5462,-3.5197,-3.4996,-3.5081,-3.4472,-3.3355,-3.2713,-3.1968,-3.1207,-3.119,-3.119,-3.119,-3.119,-3.119,-3.1224,-3.1613,-3.2188,-3.2865,-3.2577,-3.2983,-3.3981,-3.3677,-3.3085,-3.2341,-3.2696,-3.2307,-3.1207,-3.119,-3.119,-3.119,-3.119,-3.119,-3.119,-3.119,-3.119,-3.119,-3.119,-3.119,-3.119,-3.119,-3.119,-3.119,-3.119,-3.0943,-3.0426,-3.0352,-3.0018,-2.9281,-2.7718,-2.672,0.0,0.0,0.0,0.0,0.0,0.0,0.0,0.0,0.0,0.0,0.0,-2.9941,0.0,-3.2051,0.0,-3.3161,-3.3479,-3.3986,-3.4775,-3.4181,-3.3609,-3.3393,-3.2522,-3.1609,-3.0696,-3.0139,-2.9779,-2.9779,-2.9779,-2.9779,-2.9779,-2.9779,-2.9779,-2.9779,-2.9779,-2.9779,-2.9779,-2.9779,-3.0381,-3.1863,-3.3534,-3.4839,-3.5359,-3.5489,-3.5489,-3.5489,-3.5489,-3.5415,-3.513,-3.4768,-3.3885,-3.2138,-3.1181,-3.0374,-2.94,-2.9038,-2.9227,-2.9679,-2.9779,-2.9754,-3.798,-3.7946,-3.756,-3.7324,-3.7124,-3.6646,-3.6094,-3.5508,-3.4718,-3.3931,-3.3169,-3.1884,-3.1275,-3.1207,-3.1292,-3.1292,-3.119,-3.119,-3.119,-3.119,-3.119,-3.1579,-3.228,-3.1546,-3.1918,-3.322,-3.2594,-3.2239,-3.2178,-3.2239,-3.1918,-3.1224,-3.119,-3.119,-3.119,-3.119,-3.119,-3.119,-3.119,-3.119,-3.119,-3.119,-3.119,-3.119,-3.119,-3.1157,-3.1055,-3.1157,-3.0639,-2.949,-2.9483,-2.9234,-2.8471,-2.7818,-2.7299,0.0,-2.602,0.0,0.0,0.0,0.0,0.0,0.0,0.0,0.0,-3.0045,-3.1061,-3.2363,-3.436,-3.5326,-3.4586,-3.5707,-3.6212,-3.5554,-3.4624,-3.3656,-3.2664,-3.1742,-3.0833,-2.9946,-2.9779,-2.9779,-2.9779,-2.9779,-2.9779,-2.9779,-2.9779,-2.9741,-2.9679,-2.9729,-2.9779,-2.9779,-3.0113,-3.1136,-3.2522,-3.4172,-3.526,-3.534,-3.5205,-3.5265,-3.516,-3.5215,-3.5081,-3.4468,-3.3607,-3.2459,-3.1015,-3.0159,-2.928,-2.8391,-2.821,-2.8486,-2.9264,-2.9706,-2.9554,-3.8546,-3.8546,-3.8465,-3.7787,-3.6786,-3.6682,-3.616,-3.5283,-3.4125,-3.3186,-3.2476,-3.2188,-3.1765,-3.1258,-3.1816,-3.1765,-3.119,-3.119,-3.119,-3.119,-3.119,-3.1562,-3.2222,-3.1546,-3.163,-3.2442,-3.2357,-3.1968,-3.141,-3.2026,-3.1918,-3.1207,-3.119,-3.119,-3.119,0.0,0.0,0.0,-3.119,-3.119,-3.119,-3.119,-3.119,-3.119,-3.119,0.0,-3.0362,-3.0886,-3.0813,-3.0044,-3.0533,0.0,0.0,0.0,0.0,0.0,0.0,0.0,0.0,0.0,0.0,0.0,-2.9305,-2.9087,-2.8876,-3.0769,-3.2639,-3.394,-3.4923,-3.5483,-3.5292,-3.5503,-3.5668,-3.5489,-3.461,-3.3602,-3.2664,-3.1756,-3.0833,-2.9934,-2.9779,-2.9779,-2.9767,-2.9779,-2.9779,-2.9716,-2.9779,-2.9603,-2.9151,-2.9465,-2.9767,-2.9869,-3.1312,-3.2814,-3.335,-3.4134,-3.4666,-3.4622,-3.4203,-3.3933,-3.3916,-3.4207,-3.4218,-3.3689,-3.25,-3.1408,-3.0865,-3.0132,-2.9118,-2.8217,-2.8084,-2.8172,-2.8386,-2.9183,-2.9571,-3.8707,0.0,-3.8267,-3.7705,0.0,-3.6023,-3.5132,-3.4473,-3.3593,-3.2667,-3.1749,-3.1732,-3.1529,-3.1207,-3.1579,-3.1546,-3.119,-3.119,-3.119,-3.119,-3.119,-3.1393,-3.1715,-3.136,-3.1393,-3.1732,-3.1749,-3.1546,-3.1224,-3.1562,-3.1562,-3.119,-3.119,-3.119,-3.119,-3.119,-3.119,-3.119,-3.119,-3.119,-3.119,-3.119,-3.119,-3.119,0.0,0.0,0.0,0.0,0.0,0.0,0.0,0.0,0.0,0.0,0.0,-2.7953,-2.7443,-2.723,-2.7575,-2.8188,-2.8996,-2.9968,-3.0357,-3.0552,-3.0522,-3.2048,-3.3559,-3.4846,-3.531,-3.5489,-3.5489,-3.5489,-3.5489,-3.5424,-3.4177,-3.3087,-3.2536,-3.1328,-3.0355,-2.9934,-2.9779,-2.9704,-2.9402,-2.9365,-2.9239,-2.9013,-2.8963,-2.9,-2.9129,-2.9289,-2.9441,-2.9799,-3.1719,-3.3015,-3.2734,-3.3436,-3.3933,-3.366,-3.3217,-3.2897,-3.2882,-3.2701,-3.2457,-3.1853,-3.0779,-2.9862,-2.947,-2.8728,-2.7888,-2.7422,-2.7293,-2.7293,-2.7344,-2.8333,-2.9023,-3.8634,-3.8432,-3.7801,-3.7342,-3.6927,-3.523,-3.411,-3.3455,0.0,0.0,0.0,-3.1326,-3.1309,-3.1207,-3.1326,-3.1309,-3.119,-3.119,-3.119,-3.119,-3.119,-3.119,-3.119,-3.119,-3.1123,-3.1004,-3.1004,-3.092,-3.0818,-3.0801,-3.0801,-3.0801,-3.0818,-3.0784,-3.0801,-3.0801,-3.0801,-3.0818,-3.1055,-3.119,-3.119,-3.119,-3.119,-3.119,-3.119,-3.1123,-3.1004,-3.1123,-3.0406,-2.8799,-2.8721,-2.8451,-2.7857,-2.7252,-2.7319,-2.8255,-2.8389,-2.8472,-2.8607,-2.9205,-2.9909,-3.0642,-3.121,-3.1809,-3.2467,-3.3006,-3.3873,-3.522,-3.5325,-3.5355,-3.5489,-3.5489,-3.5489,-3.5504,-3.3754,-3.2593,-3.2451,-3.0803,-2.968,-2.9641,-2.9503,-2.9327,-2.885,-2.8787,-2.8637,-2.8235,-2.8404,-2.8587,-2.9258,-2.9392,-2.9541,-3.0127,-3.1573,-3.25,-3.2231,-3.2599,-3.3093,-3.2608,-3.2145,-3.1809,-3.1554,-3.097,-3.0394,-3.0266,-2.9133,-2.8438,-2.8186,-2.7335,-2.6438,-2.6294,-2.6257,-2.6163,-2.6332,-2.7215,-2.7804,-3.8303,-3.7643,-3.7533,-3.6652,-3.532,-3.5026,-3.4069,-3.261,-3.1812,-3.1353,-3.1241,-3.1867,-3.1782,-3.1241,-3.185,-3.1799,-3.1207,-3.119,-3.119,0.0,-3.119,-3.119,-3.119,-3.119,-3.0869,-3.0294,-3.026,-2.9922,-2.9347,-2.9333,-2.9316,-2.9313,-2.9296,-2.935,-2.9296,-2.9296,-2.9296,-2.9313,-3.0548,-3.119,-3.119,-3.119,-3.119,-3.119,-3.119,-3.0886,-3.0294,-3.0869,-3.0774,-2.9895,-2.9955,-2.9789,-2.9173,-2.8545,-2.8082,-2.7745,-2.775,-2.7979,-2.8562,-2.922,-3.0103,-3.1255,-3.1495,-3.175,-3.2452,-3.2602,-3.32,-3.4457,-3.4622,-3.4876,-3.54,-3.5444,-3.5415,-3.5299,-3.3739,-3.2579,-3.2524,-3.0511,-2.9126,-2.9126,-2.8624,-2.836,-2.8321,-2.8283,-2.8245,-2.8243,-2.8744,-2.931,-2.9699,-3.0065,-3.0446,-3.0797,-3.1553,-3.2411,-3.262,-3.2734,-3.2257,-3.1511,-3.0924,-3.0268,-2.9645,-2.9012,-2.8793,-2.9559,-2.804,-2.7442,-2.8365,-2.7105,-2.5927,-2.5517,-2.53,-2.5159,-2.5184,-2.5684,-2.594,-3.7422,-3.7349,-3.6523,-3.5716,-3.4954,-3.4298,-3.3448,-3.2451,-3.1806,-3.1428,-3.1207,-3.1546,-3.1512,-3.1241,-3.1546,-3.1512,-3.119,-3.119,-3.119,-3.119,-3.119,-3.119,-3.1157,-3.0784,-3.0429,-3.0091,-2.9685,-2.9313,-2.9008,-2.9011,-2.9011,-2.9011,-2.9011,-2.9011,-2.9011,-2.9011,-2.9011,-2.8991,-3.004,-3.0598,-3.0632,-3.0987,-3.119,-3.119,-3.119,-3.1038,-3.0717,-3.1004,-3.0727,-2.979,-2.9772,-2.939,-2.8496,-2.8174,-2.791,-2.764,-2.7919,-2.8263,-2.8577,-2.9535,-3.0342,-3.0926,-3.133,-3.1601,-3.1885,-3.2302,-3.2916,-3.3829,-3.3948,-3.4068,-3.4382,-3.4412,-3.4412,-3.4412,-3.3151,-3.239,-3.2078,-3.0516,-2.9168,-2.907,-2.854,-2.8189,-2.8261,-2.8293,-2.8417,-2.8607,-2.9372,-2.9887,-3.0066,-3.0654,-3.0788,-3.0168,-3.0906,-3.1469,-3.15,-3.1102,-3.0705,-3.0353,-2.9375,-2.8595,-2.8022,-2.7409,-2.7019,-2.7008,-2.6205,-2.6217,-2.7389,-2.6324,-2.5136,-2.4295,-2.4616,-2.473,-2.482,-2.4734,-2.4683,-3.6523,-3.6798,-3.555,-3.488,-3.4632,-3.3633,-3.2983,-3.2616,-3.2057,-3.1623,-3.1351,-3.1269,-3.119,-3.119,-3.119,-3.119,-3.119,-3.119,-3.119,-3.119,-3.119,-3.1123,-3.0903,-3.0345,-2.9939,-2.9567,-2.8991,-2.8636,-2.8484,-2.8467,-2.8503,-2.8467,-2.8467,-2.8503,-2.8503,-2.8467,-2.8503,-2.8518,-2.9211,-2.9668,-2.9871,-3.0412,-3.0729,-3.0746,-3.0763,-3.0847,-3.0998,-3.1015,-3.0559,-2.9673,-2.948,-2.8904,-2.7894,-2.766,-2.756,-2.7619,-2.8068,-2.8442,-2.8637,-2.9505,-3.0193,-3.0492,-3.1001,-3.1302,-3.1497,-3.1988,-3.2557,-3.314,-3.3275,-3.3335,-3.3529,-3.3544,-3.3499,-3.3423,-3.2694,-3.2148,-3.1947,-3.0553,-2.9462,-2.9393,-2.8825,-2.8386,-2.8543,-2.8439,-2.8448,-2.8851,-2.9476,-2.9837,-3.0148,-3.0717,-3.0439,-2.9959,-3.044,-3.0743,-2.9643,-2.956,-2.9216,-2.8759,-2.7824,-2.7216,-2.6762,-2.6021,-2.5584,-2.5153,-2.4947,-2.5037,-2.5576,-2.5192,-2.4329,-2.355,-2.3802,-2.4292,-2.4318,-2.4067,-2.3841,-3.5881,-3.5275,-3.5045,-3.4578,-3.3899,-3.3397,-3.3184,-3.3014,-3.2196,-3.1789,-3.166,-3.1334,-3.119,-3.119,-3.119,-3.119,-3.119,-3.119,-3.119,-3.119,-3.119,-3.0869,-3.026,-3.0142,-2.9381,-2.8195,-2.7994,-2.7621,-2.7063,-2.6996,-2.6928,-2.6894,-2.6894,-2.6962,-2.6945,-2.6945,-2.6928,-2.6928,-2.7638,-2.8383,-2.9042,-2.918,-2.924,-2.9369,-2.9386,-2.97,-3.0319,-3.0377,-3.0335,-3.0208,-2.9625,-2.9073,-2.84,-2.7894,-2.756,-2.756,-2.7649,-2.7934,-2.8517,-2.8712,-2.9295,-3.0357,-3.0537,-3.0866,-3.1377,-3.1511,-3.1898,-3.2452,-3.2602,-3.2841,-3.3395,-3.344,-3.335,-3.332,-3.2562,-3.2091,-3.1868,-3.0709,-2.9786,-2.9786,-2.9165,-2.8935,-2.8853,-2.8518,-2.8274,-2.8539,-2.8728,-2.9086,-2.9622,-2.9858,-3.0008,-2.9973,-3.0453,-3.0045,-2.9107,-2.9241,-2.8307,-2.5972,-2.6302,-2.6344,-2.5638,-2.5077,-2.4847,-2.4608,-2.4682,-2.4417,-2.3991,-2.3642,-2.3891,-2.3331,-2.328,-2.3326,-2.3228,-2.3226,-2.3213,-3.4908,-3.4935,-3.4504,-3.41,-3.378,-3.3625,-3.3255,-3.2763,-3.2366,-3.1933,-3.1449,-3.1252,-3.119,-3.119,-3.119,-3.119,-3.119,-3.119,-3.119,-3.119,-3.119,-3.0801,-3.0125,-2.9634,-2.8856,-2.7806,-2.7368,-2.6996,-2.6742,-2.6708,-2.6708,-2.6708,-2.6708,-2.6708,-2.6708,-2.6708,-2.6708,-2.6708,-2.6996,-2.7317,-2.7706,-2.8554,-2.9019,-2.903,-2.8793,-2.8735,-2.8975,-2.8788,-2.844,-2.8099,-2.7794,-2.7595,-2.7385,-2.7139,-2.7171,-2.7515,-2.756,-2.7694,-2.7979,-2.8368,-2.8831,-2.9355,-2.9744,-3.0238,-3.0851,-3.0926,-3.121,-3.1794,-3.1928,-3.2063,-3.2317,-3.2332,-3.2332,-3.2273,-3.1945,-3.1764,-3.1735,-3.0754,-3.0072,-3.0029,-2.9087,-2.8663,-2.9068,-2.9043,-2.8999,-2.9072,-2.9028,-2.9163,-2.9564,-2.9594,-2.9499,-2.9274,-2.9349,-2.9015,-2.8282,-2.8203,-2.7365,-2.6092,-2.5739,-2.5612,-2.4865,-2.4477,-2.4343,-2.3903,-2.3828,-2.3679,-2.3329,-2.3218,-2.3376,-2.3075,-2.3065,-2.2959,-2.2329,-2.2292,-2.2559,-3.4137,-3.4559,-3.4027,-3.3807,-3.3807,-3.3807,-3.3429,-3.284,-3.2616,-3.2127,-3.1562,-3.1329,-3.119,-3.119,-3.119,-3.119,-3.119,-3.119,-3.119,-3.1157,-3.1004,-3.0514,-2.9786,-2.9025,-2.8264,-2.7537,-2.6979,-2.6708,-2.6708,-2.6708,-2.6708,-2.6708,-2.6708,-2.6708,-2.6708,-2.6708,-2.6624,-2.6505,-2.6505,-2.6436,-2.6465,-2.7384,-2.8052,-2.8198,-2.7838,-2.7748,-2.7945,-2.7428,-2.701,-2.6741,-2.6567,-2.6535,-2.6576,-2.6602,-2.6886,-2.752,-2.756,-2.756,-2.7625,-2.8038,-2.8397,-2.8607,-2.9056,-2.9564,-3.0103,-3.0253,-3.0477,-3.0896,-3.115,-3.13,-3.1452,-3.1467,-3.1467,-3.1467,-3.1467,-3.1467,-3.1439,-3.097,-3.0585,-3.0308,-2.9502,-2.872,-2.9073,-2.9182,-2.9167,-2.8943,-2.8981,-2.9041,-2.9041,-2.8966,-2.8801,-2.8412,-2.8323,-2.8047,-2.7401,-2.7495,-2.7016,-2.6318,-2.577,-2.5467,-2.4332,-2.405,-2.3741,-2.3132,-2.2883,-2.2602,-2.2489,-2.2552,-2.2639,-2.2648,-2.266,-2.2553,-2.1989,-2.1812,-2.1951,-3.3825,-3.388,-3.3825,-3.3807,-3.3807,-3.3807,-3.3762,-3.356,-3.2872,-3.2502,-3.2248,-3.1562,-3.119,-3.119,-3.119,-3.119,-3.119,-3.1157,-3.1157,-3.1123,-3.0463,-2.9753,-2.8991,-2.8247,-2.7503,-2.6877,-2.6759,-2.6708,-2.6708,-2.6708,-2.6708,-2.6708,-2.6708,-2.6708,-2.6691,-2.6657,-2.647,-2.612,-2.6049,-2.5799,-2.5389,-2.5432,-2.5796,-2.6334,-2.6318,-2.6574,-2.7118,-2.6796,-2.6694,-2.7179,-2.6632,-2.6473,-2.6564,-2.6557,-2.6841,-2.746,-2.758,-2.7545,-2.753,-2.767,-2.7904,-2.8442,-2.8592,-2.8921,-2.9535,-2.9609,-2.9684,-2.9729,-3.0283,-3.0791,-3.1243,-3.1392,-3.1467,-3.1467,-3.1467,-3.1467,-3.1437,-3.1304,-3.1138,-3.0589,-3.0122,-2.9518,-2.8717,-2.8614,-2.8382,-2.7979,-2.779,-2.782,-2.7859,-2.782,-2.773,-2.7664,-2.7554,-2.7291,-2.6524,-2.7018,-2.6861,-2.5977,-2.5568,-2.5558,-2.4254,-2.3197,-2.2795,-2.2344,-2.197,-2.1725,-2.1631,-2.1581,-2.1587,-2.1681,-2.1939,-2.1779,-2.1382,-2.1169,-2.1299,-3.3807,-3.3807,-3.3807,-3.3807,-3.3807,-3.3807,-3.3652,-3.3408,-3.3075,-3.2616,-3.2074,-3.1696,-3.1449,-3.119,-3.119,-3.119,-3.1157,-3.0717,-3.0751,-3.1004,-2.9956,-2.9245,-2.8941,-2.818,-2.7435,-2.6793,-2.6708,-2.6708,-2.6708,-2.6708,-2.6708,-2.6708,-2.6708,-2.6708,-2.6657,-2.6401,-2.6156,-2.5977,-2.5689,-2.5373,-2.5221,-2.5221,-2.5171,-2.5058,-2.5049,-2.5158,-2.5434,-2.4937,-2.4722,-2.4921,-2.5064,-2.5201,-2.5363,-2.5734,-2.6048,-2.6333,-2.6707,-2.6946,-2.6991,-2.735,-2.7649,-2.7904,-2.7934,-2.8248,-2.8786,-2.8966,-2.9116,-2.949,-2.9744,-3.0073,-3.0372,-3.1016,-3.1467,-3.1467,-3.1452,-3.1258,-3.1001,-3.0866,-3.0627,-3.0013,-2.9564,-2.8906,-2.8278,-2.7934,-2.7844,-2.7634,-2.756,-2.7545,-2.747,-2.723,-2.6946,-2.6946,-2.6931,-2.6777,-2.6366,-2.7021,-2.7121,-2.5787,-2.5008,-2.435,-2.3269,-2.2721,-2.2339,-2.17,-2.1244,-2.0933,-2.0859,-2.0686,-2.0662,-2.0978,-2.1218,-2.1078,-2.0646,-2.0548,-2.0643,-3.3807,-3.3807,-3.3807,-3.3807,-3.3807,-3.3807,-3.3652,-3.3361,-3.3075,-3.2598,-3.2057,-3.1733,-3.1449,-3.123,-3.119,-3.119,-3.1106,-3.0446,-3.0378,-3.0683,-2.9296,-2.8619,-2.8484,-2.7824,-2.7199,-2.6759,-2.6708,-2.6708,-2.6708,-2.6708,-2.6708,-2.6708,-2.6708,-2.6708,-2.6657,-2.6367,-2.6104,-2.5779,-2.5389,-2.5067,-2.4792,-2.4855,-2.4697,-2.4266,-2.4307,-2.4405,-2.4389,-2.4032,-2.3837,-2.3921,-2.4184,-2.4464,-2.4627,-2.5255,-2.56,-2.5659,-2.6019,-2.6273,-2.6348,-2.6886,-2.7245,-2.7325,-2.752,-2.7799,-2.8233,-2.8263,-2.8502,-2.8846,-2.919,-2.9265,-2.946,-3.0253,-3.0896,-3.0896,-3.0911,-3.0731,-3.0283,-3.0208,-2.9909,-2.934,-2.8697,-2.8113,-2.7745,-2.7604,-2.764,-2.756,-2.746,-2.731,-2.7171,-2.6707,-2.6366,-2.6426,-2.6381,-2.6354,-2.6156,-2.6576,-2.6692,-2.5544,-2.4883,-2.3913,-2.2751,-2.2284,-2.1774,-2.1091,-2.063,-2.0268,-2.0037,-1.9855,-2.0035,-2.0373,-2.0454,-2.0431,-2.0139,-1.9911,-2.0153,-3.3807,-3.3807,-3.3807,-3.3807,-3.3807,-3.3807,-3.3788,-3.3634,-3.2952,-3.255,-3.2316,-3.1637,-3.1291,-3.119,-3.119,-3.1173,-3.0954,-3.0311,-3.0057,-3.0057,-2.8552,-2.7875,-2.7875,-2.7182,-2.681,-2.6708,-2.6708,-2.6708,-2.6708,-2.6708,-2.6708,-2.6708,-2.6708,-2.6708,-2.6708,-2.6556,-2.6104,-2.5395,-2.5144,-2.4632,-2.3794,-2.4158,-2.4158,-2.3767,-2.4116,-2.4348,-2.4364,-2.4307,-2.4282,-2.4266,-2.4348,-2.448,-2.4626,-2.5106,-2.551,-2.5435,-2.5555,-2.56,-2.5659,-2.6213,-2.6587,-2.6632,-2.7175,-2.7395,-2.753,-2.7625,-2.7685,-2.791,-2.8263,-2.8592,-2.8682,-2.9175,-2.9639,-2.9624,-2.9819,-2.9774,-2.9609,-2.9549,-2.9325,-2.8667,-2.8053,-2.7619,-2.7595,-2.7505,-2.7395,-2.7215,-2.6901,-2.6572,-2.6527,-2.5908,-2.5826,-2.5995,-2.5749,-2.5429,-2.5674,-2.5888,-2.5721,-2.5399,-2.4989,-2.4281,-2.26,-2.172,-2.1262,-2.0686,-2.0257,-1.9977,-1.9964,-1.9797,-1.9788,-2.0012,-1.9911,-1.9936,-1.9861,-1.9798,-1.9798,-3.3807,-3.3807,-3.3807,-3.3807,-3.3807,-3.3807,-3.3807,-3.3753,-3.3196,-3.2827,-3.2417,-3.1861,-3.1432,-3.1213,-3.119,-3.0903,-3.0395,-2.9702,-2.96,-2.9668,-2.7994,-2.7334,-2.7588,-2.7046,-2.6708,-2.6708,-2.6708,-2.6708,-2.6708,-2.6708,-2.6708,-2.6708,-2.6708,-2.6708,-2.6624,-2.6035,-2.5433,-2.5166,-2.4471,-2.3921,-2.3638,-2.3752,-2.3752,-2.3638,-2.3767,-2.3837,-2.3837,-2.3837,-2.3837,-2.3879,-2.4199,-2.4431,-2.4453,-2.4307,-2.4223,-2.4268,-2.4702,-2.4896,-2.5016,-2.5525,-2.5914,-2.5959,-2.6123,-2.6437,-2.6811,-2.6901,-2.7096,-2.7505,-2.7784,-2.7889,-2.7985,-2.8053,-2.8592,-2.949,-2.9579,-2.9325,-2.8921,-2.8532,-2.8158,-2.7949,-2.7694,-2.7395,-2.7021,-2.6916,-2.6737,-2.6378,-2.6078,-2.5914,-2.5762,-2.505,-2.4678,-2.5197,-2.4741,-2.4349,-2.4399,-2.4534,-2.4484,-2.4224,-2.3989,-2.3703,-2.2259,-2.1308,-2.0823,-2.0322,-1.9952,-1.9773,-1.9761,-1.9798,-1.9798,-1.9798,-1.9836,-1.9836,-1.9811,-1.9798,-1.9798,-3.3807,-3.3807,-3.3807,-3.3807,-3.3807,-3.3807,-3.3807,-3.368,-3.3034,-3.2504,-3.2007,-3.1255,-3.0724,-3.0438,-3.0378,-3.0125,-2.9617,-2.8907,-2.8805,-2.8991,-2.7588,-2.6996,-2.7334,-2.6962,-2.6708,-2.6708,-2.6708,-2.6708,-2.6708,-2.6708,-2.6708,-2.6708,-2.6556,-2.6436,-2.6367,-2.5635,-2.5144,-2.4831,-2.4266,-2.3794,-2.3681,-2.3809,-2.3794,-2.3681,-2.3794,-2.3864,-2.3864,-2.3879,-2.3794,-2.3666,-2.3964,-2.4074,-2.4074,-2.3809,-2.3595,-2.3684,-2.3969,-2.4253,-2.4313,-2.4866,-2.5255,-2.527,-2.5465,-2.5779,-2.6153,-2.6228,-2.6527,-2.7066,-2.7215,-2.732,-2.758,-2.7575,-2.8045,-2.8712,-2.8786,-2.8652,-2.8203,-2.7844,-2.7619,-2.756,-2.7149,-2.6807,-2.6658,-2.6046,-2.5901,-2.558,-2.5405,-2.5241,-2.5014,-2.4369,-2.4178,-2.4045,-2.3866,-2.3481,-2.3024,-2.3081,-2.3235,-2.2973,-2.2644,-2.2249,-2.1403,-2.0954,-2.0563,-2.0016,-1.9573,-1.9573,-1.956,-1.9762,-1.9798,-1.9798,-1.9698,-1.9798,-1.9798,-1.9798,-1.9798,-3.377,-3.3733,-3.3733,-3.3623,-3.355,-3.3532,-3.3476,-3.3405,-3.2379,-3.1655,-3.1137,-3.0142,-2.9436,-2.9115,-2.9228,-2.9127,-2.8805,-2.8281,-2.7875,-2.7706,-2.7012,-2.6776,-2.6793,-2.6742,-2.6708,-2.6708,-2.6708,-2.6708,-2.6708,-2.6708,-2.6708,-2.6657,-2.6367,-2.6085,-2.6033,-2.5508,-2.5028,-2.4736,-2.443,-2.4032,-2.3794,-2.4116,-2.4241,-2.3794,-2.4142,-2.4364,-2.4307,-2.4148,-2.3967,-2.3649,-2.3616,-2.3601,-2.3563,-2.3565,-2.3595,-2.3595,-2.361,-2.367,-2.3759,-2.4223,-2.4522,-2.4612,-2.5001,-2.554,-2.5525,-2.5585,-2.5839,-2.6437,-2.6542,-2.6752,-2.72,-2.729,-2.743,-2.749,-2.764,-2.7625,-2.758,-2.7505,-2.7325,-2.7166,-2.6423,-2.5783,-2.6284,-2.5412,-2.5162,-2.507,-2.4775,-2.4446,-2.4192,-2.3583,-2.2908,-2.2908,-2.3156,-2.2684,-2.23,-2.1851,-2.1985,-2.1685,-2.1389,-2.1029,-2.0722,-2.0403,-1.9984,-1.9457,-1.9169,-1.9244,-1.9232,-1.9334,-1.9397,-1.9334,-1.9409,-1.966,-1.9623,-1.9447,-1.9485,-3.3458,-3.2944,-3.2926,-3.2577,-3.2082,-3.2027,-3.2045,-3.1931,-3.1121,-3.0701,-3.0304,-2.9541,-2.9036,-2.8994,-2.8924,-2.8687,-2.8163,-2.7874,-2.7452,-2.7012,-2.681,-2.6708,-2.6708,-2.6708,-2.6708,-2.6708,-2.6708,-2.6708,-2.6708,-2.6708,-2.6708,-2.6708,-2.6556,-2.6487,-2.6385,-2.5635,-2.5427,-2.5335,-2.4292,-2.4168,-2.4554,-2.4368,-2.4552,-2.4792,-2.4465,-2.4384,-2.4287,-2.359,-2.329,-2.3446,-2.3381,-2.3208,-2.2993,-2.331,-2.3535,-2.3535,-2.358,-2.3595,-2.364,-2.3774,-2.3879,-2.3864,-2.4133,-2.4358,-2.4852,-2.4896,-2.5211,-2.5704,-2.5869,-2.5944,-2.6108,-2.6183,-2.6168,-2.6183,-2.6542,-2.6811,-2.6861,-2.6748,-2.6492,-2.6138,-2.609,-2.5744,-2.5282,-2.4832,-2.4474,-2.4179,-2.3807,-2.3332,-2.3273,-2.2626,-2.1928,-2.2558,-2.2698,-2.2122,-2.1569,-2.0983,-2.063,-2.0415,-2.0133,-1.9938,-1.9736,-1.9646,-1.913,-1.8641,-1.8601,-1.8589,-1.8528,-1.853,-1.8631,-1.8783,-1.8807,-1.8882,-1.8731,-1.8581,-1.8791,-3.2504,-3.21,-3.21,-3.1825,-3.1421,-3.1403,-3.1403,-3.1261,-3.055,-3.0016,-2.9619,-2.8871,-2.8322,-2.8046,-2.7994,-2.7807,-2.7402,-2.7351,-2.7114,-2.6793,-2.6708,-2.6708,-2.6708,-2.6708,-2.6708,-2.6708,-2.6708,-2.6708,-2.6708,-2.6708,-2.6708,-2.6657,-2.6505,-2.6401,-2.6332,-2.5635,-2.5029,-2.4782,-2.3955,-2.3758,-2.3919,-2.3513,-2.3553,-2.3772,-2.3513,-2.3329,-2.3381,-2.2809,-2.2663,-2.2922,-2.2802,-2.2515,-2.2404,-2.2862,-2.3191,-2.3221,-2.343,-2.3595,-2.3595,-2.3595,-2.3595,-2.3595,-2.3595,-2.3789,-2.4103,-2.4208,-2.4477,-2.503,-2.5196,-2.5345,-2.5555,-2.56,-2.56,-2.5674,-2.5719,-2.5899,-2.6123,-2.6099,-2.5888,-2.5644,-2.5371,-2.5163,-2.4566,-2.4163,-2.3807,-2.3613,-2.3496,-2.3128,-2.279,-2.1823,-2.1244,-2.1745,-2.1587,-2.0836,-2.0302,-1.9763,-1.9461,-1.9245,-1.9079,-1.8853,-1.8865,-1.883,-1.8427,-1.8037,-1.7974,-1.7937,-1.7877,-1.7919,-1.8147,-1.8234,-1.8144,-1.8179,-1.8213,-1.7965,-1.816,-3.1347,-3.1274,-3.1274,-3.1219,-3.1091,-3.1127,-3.098,-3.0962,-3.0198,-2.9582,-2.8973,-2.8216,-2.7591,-2.6741,-2.7046,-2.6759,-2.6742,-2.6826,-2.6657,-2.6539,-2.6471,-2.642,-2.6234,-2.6573,-2.6674,-2.6708,-2.6708,-2.6607,-2.6505,-2.6505,-2.6454,-2.6235,-2.5897,-2.5857,-2.5675,-2.5241,-2.4499,-2.3925,-2.3528,-2.3248,-2.2979,-2.26,-2.2593,-2.2752,-2.2424,-2.2254,-2.2315,-2.2092,-2.2087,-2.2439,-2.1929,-2.1738,-2.1704,-2.2218,-2.2532,-2.2664,-2.2951,-2.3221,-2.3325,-2.3221,-2.331,-2.3251,-2.3266,-2.3475,-2.346,-2.343,-2.3625,-2.4448,-2.4418,-2.4627,-2.5091,-2.53,-2.5226,-2.5106,-2.4822,-2.4881,-2.5226,-2.539,-2.539,-2.5329,-2.4332,-2.4097,-2.3997,-2.3628,-2.2995,-2.3197,-2.292,-2.2236,-2.1713,-2.0862,-2.0502,-2.0678,-2.0191,-1.936,-1.8901,-1.8423,-1.8287,-1.8096,-1.8033,-1.7949,-1.8033,-1.7958,-1.7693,-1.7465,-1.737,-1.73,-1.7287,-1.7443,-1.7613,-1.7659,-1.7518,-1.7907,-1.8168,-1.7723,-1.7634,-3.1017,-3.0467,-3.0448,-3.0099,-2.9567,-2.9507,-2.9549,-2.9525,-2.9046,-2.8797,-2.8407,-2.776,-2.7365,-2.7115,-2.6858,-2.6708,-2.6691,-2.6623,-2.642,-2.5862,-2.5845,-2.5473,-2.5389,-2.6031,-2.6623,-2.6607,-2.6674,-2.637,-2.5981,-2.5795,-2.5541,-2.5084,-2.5073,-2.4839,-2.481,-2.4496,-2.4198,-2.405,-2.3487,-2.3211,-2.3195,-2.2833,-2.2618,-2.2746,-2.2325,-2.2057,-2.1726,-2.1288,-2.1069,-2.1144,-2.1265,-2.1174,-2.1098,-2.1545,-2.1874,-2.1964,-2.2039,-2.2158,-2.2128,-2.2218,-2.2128,-2.2233,-2.2293,-2.2323,-2.2802,-2.2428,-2.2742,-2.3415,-2.3415,-2.3535,-2.3999,-2.4059,-2.4059,-2.4014,-2.3924,-2.3879,-2.4014,-2.4059,-2.4163,-2.4029,-2.3822,-2.3658,-2.3775,-2.3583,-2.3124,-2.2897,-2.2176,-2.1309,-2.0617,-1.9942,-1.9713,-1.971,-1.894,-1.8169,-1.7867,-1.7524,-1.7492,-1.7383,-1.7275,-1.7225,-1.7307,-1.739,-1.7251,-1.6992,-1.6722,-1.6748,-1.6886,-1.6823,-1.6973,-1.6942,-1.6986,-1.7206,-1.7307,-1.7087,-1.7124,-3.0026,-2.9659,-2.9659,-2.9379,-2.9012,-2.8975,-2.8975,-2.8952,-2.8773,-2.8489,-2.8156,-2.7736,-2.7378,-2.7019,-2.6825,-2.6708,-2.659,-2.6302,-2.5778,-2.522,-2.5084,-2.4864,-2.4709,-2.52,-2.5659,-2.5659,-2.5625,-2.5389,-2.5152,-2.505,-2.4898,-2.4557,-2.4489,-2.4577,-2.4523,-2.4141,-2.3912,-2.3566,-2.3162,-2.2817,-2.2524,-2.2294,-2.1975,-2.184,-2.1526,-2.1213,-2.0738,-2.0438,-2.0243,-2.0302,-2.0455,-2.0476,-2.0407,-2.0857,-2.1201,-2.1261,-2.1575,-2.1665,-2.1695,-2.1695,-2.1724,-2.1665,-2.168,-2.1874,-2.2099,-2.1859,-2.1994,-2.2517,-2.2712,-2.2888,-2.3116,-2.3176,-2.3086,-2.2832,-2.2996,-2.3146,-2.3206,-2.34,-2.3595,-2.3535,-2.3385,-2.3236,-2.3146,-2.3041,-2.2488,-2.1889,-2.1664,-2.087,-2.0147,-1.9459,-1.8803,-1.843,-1.7699,-1.7099,-1.6854,-1.6723,-1.6785,-1.6767,-1.6798,-1.6785,-1.6798,-1.6892,-1.693,-1.671,-1.6559,-1.6547,-1.6635,-1.6534,-1.6534,-1.6647,-1.6697,-1.6584,-1.6584,-1.676,-1.6785,-2.9021,-2.8975,-2.8975,-2.8975,-2.8975,-2.8975,-2.8975,-2.8975,-2.8975,-2.8676,-2.8138,-2.8,-2.753,-2.7019,-2.6758,-2.6657,-2.6319,-2.5727,-2.5033,-2.4391,-2.4323,-2.4154,-2.4069,-2.4086,-2.4154,-2.4171,-2.4543,-2.4557,-2.4404,-2.4289,-2.4171,-2.415,-2.4103,-2.3917,-2.4083,-2.4086,-2.3611,-2.2865,-2.269,-2.218,-2.1456,-2.1231,-2.1118,-2.0805,-2.0534,-2.0393,-2.0086,-1.9903,-1.975,-1.9705,-1.9705,-1.9705,-1.9839,-2.0168,-2.0543,-2.0572,-2.0976,-2.1126,-2.1126,-2.1231,-2.1261,-2.138,-2.1335,-2.1425,-2.147,-2.138,-2.147,-2.1829,-2.2158,-2.2484,-2.2532,-2.2517,-2.2263,-2.2024,-2.2263,-2.2514,-2.2664,-2.3011,-2.3146,-2.3325,-2.2969,-2.273,-2.2473,-2.2248,-2.1562,-2.1009,-2.0802,-2.0423,-1.9693,-1.8906,-1.8108,-1.7666,-1.7079,-1.6829,-1.6567,-1.6517,-1.6498,-1.6529,-1.6534,-1.6534,-1.6534,-1.6609,-1.6697,-1.6635,-1.6534,-1.6534,-1.6534,-1.6534,-1.6534,-1.6534,-1.6534,-1.6534,-1.6534,-1.6534,-1.6534,-2.9203,-2.8975,-2.8975,-2.8975,-2.8975,-2.8998,-2.8938,-2.8975,-2.8943,-2.8929,-2.8718,-2.8156,-2.7741,-2.7447,-2.6905,-2.6386,-2.5625,-2.4949,-2.4272,-2.368,-2.3545,-2.3376,-2.297,-2.297,-2.2835,-2.3038,-2.3646,-2.4049,-2.368,-2.3562,-2.3359,-2.2852,-2.2801,-2.2818,-2.2852,-2.2682,-2.2789,-2.2521,-2.2408,-2.19,-2.1277,-2.1213,-2.1213,-2.0829,-2.0516,-2.028,-2.0089,-1.9889,-1.9705,-1.9705,-1.9705,-1.9705,-1.972,-1.9839,-1.9914,-1.9989,-2.0109,-2.0288,-2.0258,-2.0139,-2.0064,-2.0019,-2.0139,-2.0423,-2.0602,-2.0498,-2.0737,-2.1395,-2.1724,-2.1859,-2.1859,-2.1859,-2.1814,-2.1724,-2.1724,-2.1859,-2.1889,-2.2069,-2.2308,-2.2577,-2.2402,-2.2166,-2.1834,-2.1515,-2.0976,-2.0396,-2.0016,-1.9655,-1.9018,-1.8126,-1.7174,-1.6897,-1.6658,-1.6584,-1.6516,-1.6516,-1.6504,-1.6504,-1.6534,-1.6534,-1.6534,-1.6534,-1.6534,-1.6534,-1.6534,-1.6534,-1.6534,-1.6534,-1.6534,-1.6534,-1.6534,-1.6534,-1.6534,-1.6534,-1.6534,-2.8489,-2.8374,-2.8374,-2.8374,-2.8393,-2.8393,-2.8393,-2.8393,-2.8374,-2.8503,-2.8366,-2.7754,-2.7183,-2.6819,-2.599,-2.5184,-2.4526,-2.4137,-2.3494,-2.297,-2.2801,-2.2699,-2.2327,-2.2327,-2.2327,-2.2496,-2.3021,-2.3274,-2.2868,-2.2835,-2.2649,-2.2462,-2.2327,-2.2327,-2.2327,-2.2378,-2.2327,-2.2327,-2.2254,-2.1886,-2.1103,-2.1244,-2.1118,-2.0991,-2.0764,-2.0449,-2.0,-1.9839,-1.9726,-1.9705,-1.9705,-1.9705,-1.9705,-1.9705,-1.9705,-1.9705,-1.9705,-1.9705,-1.9705,-1.9705,-1.9735,-1.972,-1.9705,-1.9824,-2.0019,-2.0004,-2.0168,-2.0842,-2.1186,-2.1186,-2.1201,-2.1186,-2.1021,-2.0797,-2.0961,-2.1171,-2.1261,-2.147,-2.1635,-2.1739,-2.1515,-2.1296,-2.1201,-2.0818,-2.0362,-1.9874,-1.9343,-1.8896,-1.8433,-1.7666,-1.6837,-1.6795,-1.6752,-1.6522,-1.6534,-1.6534,-1.6534,-1.6534,-1.6534,-1.6534,-1.6534,-1.6534,-1.6534,-1.6534,-1.6534,-1.6534,-1.6534,-1.6534,-1.6534,-1.6534,-1.6534,-1.6534,-1.6534,-1.6534,-1.6534,-2.7638,-2.7548,-2.7548,-2.7567,-2.7567,-2.7548,-2.7567,-2.7567,-2.7548,-2.7725,-2.7857,-2.7014,-2.6362,-2.5831,-2.4915,-2.3985,-2.3393,-2.3308,-2.2835,-2.2513,-2.2395,-2.2344,-2.2327,-2.2327,-2.2327,-2.2344,-2.2412,-2.2327,-2.2412,-2.2412,-2.2344,-2.2327,-2.2327,-2.2327,-2.2327,-2.2327,-2.2327,-2.2327,-2.2282,-2.1886,-2.1415,-2.1103,-2.1071,-2.1071,-2.0959,-2.0499,-1.9965,-1.9782,-1.9726,-1.9705,-1.9705,-1.9705,-1.9705,-1.9705,-1.9705,-1.9705,-1.9705,-1.9705,-1.9705,-1.9705,-1.9705,-1.9705,-1.9705,-1.9705,-1.9705,-1.9794,-1.9914,-2.0378,-2.0498,-2.0498,-2.0513,-2.0513,-2.0273,-2.0049,-2.0228,-2.0528,-2.0617,-2.0722,-2.0767,-2.0752,-2.0557,-2.0498,-2.0483,-2.0378,-2.0005,-1.976,-1.9252,-1.8825,-1.8341,-1.7747,-1.7146,-1.7146,-1.6993,-1.6607,-1.6534,-1.6534,-1.6534,-1.6534,-1.6534,-1.6534,-1.6534,-1.6534,-1.6534,-1.6534,-1.6534,-1.6534,-1.6534,-1.6534,-1.6534,-1.6534,-1.6534,-1.6534,-1.6534,-1.6534,-1.6534,-2.7065,-2.6741,-2.6759,-2.6741,-2.6741,-2.6741,-2.6741,-2.6741,-2.6741,-2.6738,-2.6922,-2.6043,-2.5649,-2.5154,-2.4093,-2.3507,-2.3207,-2.2801,-2.2479,-2.2327,-2.2327,-2.2327,-2.2327,-2.2327,-2.2327,-2.2327,-2.2327,-2.2327,-2.2327,-2.2327,-2.2327,-2.2327,-2.2327,-2.2327,-2.2327,-2.2327,-2.2327,-2.2327,-2.2282,-2.2225,-2.1991,-2.1385,-2.1275,-2.1244,-2.0878,-2.0382,-2.0174,-1.9874,-1.9741,-1.9705,-1.9705,-1.9705,-1.9705,-1.9705,-1.9705,-1.9705,-1.9705,-1.9705,-1.9705,-1.9705,-1.9705,-1.9705,-1.9705,-1.9705,-1.9705,-1.9705,-1.975,-1.975,-1.9854,-1.9914,-1.9944,-1.9869,-1.9765,-1.9765,-1.9839,-1.9929,-1.9959,-2.0213,-2.0228,-2.0168,-2.0109,-1.9989,-1.9929,-1.9809,-1.9669,-1.9493,-1.9207,-1.8803,-1.8302,-1.776,-1.7105,-1.6993,-1.6951,-1.6607,-1.6534,-1.6534,-1.6534,-1.6534,-1.6534,-1.6534,-1.6534,-1.6534,-1.6534,-1.6534,-1.6534,-1.6534,-1.6534,-1.6534,-1.6534,-1.6534,-1.6534,-1.6534,-1.6534,-1.6534,-1.6534,-2.5937,-2.6096,-2.5976,-2.5915,-2.5915,-2.5915,-2.5915,-2.5915,-2.5915,-2.6172,-2.6347,-2.5551,-2.474,-2.3946,-2.3044,-2.2784,-2.2699,-2.2446,-2.2327,-2.2327,-2.2327,-2.2327,-2.2327,-2.2327,-2.2327,-2.2327,-2.2327,-2.2327,-2.2327,-2.2327,-2.2327,-2.2327,-2.2327,-2.2327,-2.2327,-2.2327,-2.2327,-2.2209,-2.2089,-2.2061,-2.2061,-2.1735,-2.143,-2.1552,-2.0975,-2.0583,-2.0246,-1.9909,-1.9726,-1.9705,-1.9705,-1.9705,-1.9705,-1.9705,-1.9705,-1.9705,-1.9705,-1.9705,-1.9705,-1.9705,-1.9705,-1.9705,-1.9705,-1.9705,-1.9705,-1.9705,-1.9705,-1.9705,-1.9705,-1.9705,-1.9705,-1.9705,-1.9705,-1.9705,-1.9705,-1.9705,-1.9705,-1.9705,-1.9794,-1.9735,-1.9705,-1.9705,-1.9705,-1.969,-1.969,-1.9603,-1.9406,-1.9118,-1.8563,-1.7962,-1.7269,-1.6637,-1.6595,-1.6522,-1.6534,-1.6534,-1.6534,-1.6534,-1.6534,-1.6534,-1.6534,-1.6534,-1.6534,-1.6534,-1.6534,-1.6534,-1.6534,-1.6534,-1.6534,-1.6534,-1.6534,-1.6534,-1.6534,-1.6534,-1.6534,-2.5076,-2.5442,-2.5207,-2.5109,-2.5109,-2.5127,-2.5109,-2.5109,-2.5109,-2.5438,-2.5651,-2.4958,-2.3857,-2.2911,-2.2569,-2.2473,-2.2344,-2.2327,-2.2327,-2.2327,-2.2327,-2.2327,-2.2327,-2.2327,-2.2327,-2.2327,-2.2327,-2.2327,-2.2327,-2.2327,-2.2327,-2.2327,-2.2327,-2.2327,-2.2327,-2.2327,-2.2327,-2.2265,-2.2032,-2.2032,-2.2135,-2.1823,-2.1628,-2.143,-2.1118,-2.0665,-2.0314,-1.9894,-1.9726,-1.9705,-1.9705,-1.9705,-1.9705,-1.9705,-1.9705,-1.9705,-1.9705,-1.9705,-1.9705,-1.9705,-1.9705,-1.9705,-1.9705,-1.9705,-1.9705,-1.9705,-1.9705,-1.9705,-1.9705,-1.9705,-1.9705,-1.9705,-1.9705,-1.9705,-1.9705,-1.9705,-1.9705,-1.9705,-1.9705,-1.9705,-1.9705,-1.9705,-1.9705,-1.9705,-1.9705,-1.9705,-1.9566,-1.9332,-1.8679,-1.7895,-1.7282,-1.6522,-1.6522,-1.6534,-1.6534,-1.6534,-1.6534,-1.6534,-1.6534,-1.6534,-1.6534,-1.6534,-1.6534,-1.6534,-1.6441,-1.6534,-1.6534,-1.6534,-1.6534,-1.6534,-1.6534,-1.6534,-1.6534,-1.6534,-1.6534,-2.4827,-2.484,-2.4468,-2.4337,-2.4318,-2.4281,-2.43,-2.4392,-2.4337,-2.441,-2.4536,-2.3961,-2.3424,-2.284,-2.2625,-2.2463,-2.2327,-2.2327,-2.2327,-2.2327,-2.2327,-2.2327,-2.2327,-2.2327,-2.2327,-2.2327,-2.2327,-2.2327,-2.2327,-2.2327,-2.2327,-2.2327,-2.2327,-2.2327,-2.2327,-2.2327,-2.2327,-2.2282,-2.218,-2.218,-2.218,-2.1928,-2.1658,-2.1413,-2.0862,-2.0299,-2.0265,-1.9909,-1.9705,-1.9705,-1.9705,-1.9705,-1.9705,-1.9705,-1.9705,-1.9705,-1.9705,-1.9705,-1.9705,-1.9705,-1.9705,-1.9705,-1.9705,-1.9705,-1.9705,-1.9705,-1.9705,-1.9705,-1.9705,-1.9705,-1.9705,-1.9705,-1.9705,-1.9705,-1.9705,-1.9705,-1.9705,-1.9705,-1.9705,-1.9705,-1.9705,-1.9705,-1.9705,-1.9705,-1.9705,-1.9705,-1.9207,-1.893,-1.8171,-1.7407,-1.6976,-1.6522,-1.6522,-1.6534,-1.6534,-1.6534,-1.6534,-1.6534,-1.6534,-1.6534,-1.6534,-1.6522,-1.6266,-1.6291,-1.6186,-1.6353,-1.6522,-1.6454,-1.6441,-1.6522,-1.6534,-1.6534,-1.6534,-1.6534,-1.6534,-2.4795,-2.4591,-2.4444,-2.4321,-2.419,-2.419,-2.419,-2.419,-2.419,-2.419,-2.4189,-2.3631,-2.3253,-2.2972,-2.2563,-2.2398,-2.231,-2.2327,-2.2327,-2.2327,-2.2327,-2.2327,-2.2327,-2.2327,-2.2327,-2.2327,-2.2327,-2.2327,-2.2327,-2.2327,-2.2327,-2.2327,-2.2327,-2.2327,-2.2327,-2.2327,-2.2327,-2.2327,-2.2327,-2.2327,-2.2282,-2.2152,-2.1899,-2.1552,-2.1118,-2.0583,-2.0314,-1.9909,-1.9762,-1.9705,-1.9705,-1.9705,-1.9705,-1.9705,-1.9705,-1.9705,-1.9705,-1.9705,-1.9705,-1.9705,-1.9705,-1.9705,-1.9705,-1.9705,-1.9705,-1.9705,-1.9705,-1.9705,-1.9705,-1.9705,-1.9705,-1.9705,-1.9705,-1.9705,-1.9705,-1.9705,-1.9705,-1.9705,-1.9705,-1.9705,-1.9705,-1.9705,-1.9705,-1.9705,-1.9705,-1.9654,-1.9095,-1.8458,-1.7747,-1.7146,-1.6723,-1.6534,-1.6534,-1.6534,-1.6534,-1.6534,-1.6522,-1.6522,-1.6509,-1.6421,-1.6291,-1.5923,-1.5745,-1.5807,-1.5899,-1.5899,-1.6011,-1.6291,-1.6403,-1.6509,-1.6534,-1.6534,-1.6534,-1.6534,-1.6534,-2.4809,-2.4594,-2.4479,-2.4321,-2.4209,-2.419,-2.419,-2.419,-2.419,-2.419,-2.417,-2.3606,-2.33,-2.3087,-2.2695,-2.2377,-2.2338,-2.2327,-2.2327,-2.2327,-2.2327,-2.2327,-2.2327,-2.2327,-2.2327,-2.2327,-2.2327,-2.2327,-2.2327,-2.2327,-2.2327,-2.2327,-2.2327,-2.2327,-2.2327,-2.2327,-2.2327,-2.2327,-2.2327,-2.2327,-2.2327,-2.2282,-2.218,-2.1764,-2.1275,-2.0862,-2.0449,-2.007,-1.9726,-1.9705,-1.9705,-1.9705,-1.9705,-1.9705,-1.9705,-1.9705,-1.9705,-1.9705,-1.9705,-1.9705,-1.9705,-1.9705,-1.9705,-1.9705,-1.9705,-1.9705,-1.9705,-1.9705,-1.9705,-1.9705,-1.9705,-1.9705,-1.9705,-1.9705,-1.9705,-1.9705,-1.9705,-1.9705,-1.9705,-1.9705,-1.9705,-1.9705,-1.9705,-1.969,-1.953,-1.9369,-1.8779,-1.8185,-1.7558,-1.7034,-1.665,-1.6534,-1.6534,-1.6534,-1.6534,-1.6497,-1.6459,-1.6421,-1.6371,-1.6195,-1.5978,-1.5533,-1.5402,-1.5598,-1.557,-1.5424,-1.5756,-1.6258,-1.6443,-1.6522,-1.6522,-1.6522,-1.6534,-1.6534,-1.6534,-2.4818,-2.4727,-2.4393,-2.4228,-2.4209,-2.419,-2.419,-2.419,-2.419,-2.419,-2.417,-2.3795,-2.3477,-2.3183,-2.2789,-2.2527,-2.2338,-2.2327,-2.2327,-2.2327,-2.2327,-2.2327,-2.2327,-2.2327,-2.2327,-2.2327,-2.2327,-2.2327,-2.2327,-2.2327,-2.2327,-2.2327,-2.2327,-2.2327,-2.2327,-2.2327,-2.2327,-2.2327,-2.2327,-2.2327,-2.2327,-2.2299,-2.2225,-2.1915,-2.1446,-2.1055,-2.0731,-2.0311,-1.9995,-1.9854,-1.9818,-1.9782,-1.9726,-1.9726,-1.9705,-1.9705,-1.9705,-1.9705,-1.9705,-1.9705,-1.9705,-1.9705,-1.9705,-1.9705,-1.9705,-1.9705,-1.9705,-1.9705,-1.9705,-1.9705,-1.9705,-1.9705,-1.9705,-1.9705,-1.9705,-1.9705,-1.9705,-1.9705,-1.9705,-1.9705,-1.9705,-1.9705,-1.9705,-1.9654,-1.9369,-1.9006,-1.8458,-1.7867,-1.7312,-1.6921,-1.6565,-1.6534,-1.6534,-1.6534,-1.6522,-1.6446,-1.6396,-1.6346,-1.6132,-1.5844,-1.5542,-1.5178,-1.5131,-1.5325,-1.5093,-1.4759,-1.5522,-1.6432,-1.6379,-1.6351,-1.6484,-1.6522,-1.6522,-1.6534,-1.6534,-2.4987,-2.479,-2.4654,-2.4445,-2.4228,-2.419,-2.419,-2.419,-2.419,-2.419,-2.4113,-2.3855,-2.3522,-2.3165,-2.2848,-2.2563,-2.2377,-2.2327,-2.2327,-2.231,-2.231,-2.2327,-2.2327,-2.2327,-2.2327,-2.2327,-2.2327,-2.2327,-2.2327,-2.2327,-2.2327,-2.2327,-2.2327,-2.2327,-2.2327,-2.2327,-2.2327,-2.2327,-2.2327,-2.2327,-2.2327,-2.2282,-2.218,-2.1899,-2.1538,-2.1275,-2.1039,-2.0581,-2.0311,-2.007,-2.0035,-1.9909,-1.9762,-1.9705,-1.9705,-1.9705,-1.9705,-1.9705,-1.9705,-1.9705,-1.9705,-1.9705,-1.9705,-1.9705,-1.9705,-1.9705,-1.9705,-1.9705,-1.9705,-1.9705,-1.9705,-1.9705,-1.9705,-1.9705,-1.9705,-1.9705,-1.9705,-1.9705,-1.9705,-1.9705,-1.9705,-1.9705,-1.9705,-1.9654,-1.9406,-1.8968,-1.8458,-1.7666,-1.7034,-1.6808,-1.6534,-1.6534,-1.6534,-1.6534,-1.6484,-1.6183,-1.5928,-1.5802,-1.5567,-1.5216,-1.4966,-1.4689,-1.4576,-1.46,-1.435,-1.4149,-1.4902,-1.5616,-1.6036,-1.6195,-1.625,-1.6421,-1.6522,-1.6534,-1.6534,-2.5072,-2.485,-2.476,-2.4543,-2.4321,-2.4228,-2.419,-2.419,-2.419,-2.419,-2.4113,-2.3837,-2.3588,-2.33,-2.2923,-2.2746,-2.2571,-2.2377,-2.2398,-2.2398,-2.2338,-2.231,-2.2327,-2.2327,-2.2327,-2.2327,-2.2327,-2.2327,-2.2327,-2.2327,-2.2327,-2.2327,-2.2327,-2.2327,-2.2327,-2.2327,-2.2327,-2.2327,-2.2327,-2.2327,-2.2327,-2.2282,-2.218,-2.1928,-2.1705,-2.1477,-2.1213,-2.0926,-2.0616,-2.0382,-2.0158,-2.0,-1.9797,-1.9705,-1.9705,-1.9705,-1.9705,-1.9705,-1.9705,-1.9705,-1.9705,-1.9705,-1.9705,-1.9705,-1.9705,-1.9705,-1.9705,-1.9705,-1.9705,-1.9705,-1.9705,-1.9705,-1.9705,-1.9705,-1.9705,-1.9705,-1.9762,-1.9762,-1.9762,-1.9762,-1.9666,-1.9681,-1.9645,-1.9603,-1.9479,-1.8968,-1.8458,-1.7626,-1.6831,-1.6617,-1.6464,-1.6494,-1.6283,-1.6103,-1.5957,-1.568,-1.5452,-1.5274,-1.4963,-1.4613,-1.4437,-1.4198,-1.4046,-1.3981,-1.3974,-1.4026,-1.425,-1.4713,-1.518,-1.5623,-1.591,-1.612,-1.6446,-1.6534,-1.6534,-2.4991,-2.4949,-2.4651,-2.4512,-2.4444,-2.4284,-2.419,-2.419,-2.419,-2.419,-2.417,-2.3876,-2.3714,-2.3566,-2.3045,-2.2923,-2.2947,-2.2571,-2.2527,-2.251,-2.2415,-2.2349,-2.2327,-2.2327,-2.2327,-2.2327,-2.2327,-2.2327,-2.2327,-2.2327,-2.2327,-2.2327,-2.2327,-2.2327,-2.2327,-2.2327,-2.2327,-2.2327,-2.2327,-2.2327,-2.2327,-2.2299,-2.2254,-2.2106,-2.1899,-2.1688,-2.1368,-2.1007,-2.0567,-2.0246,-2.0,-1.9818,-1.9726,-1.9705,-1.9705,-1.9705,-1.9705,-1.9705,-1.9705,-1.9705,-1.9705,-1.9705,-1.9705,-1.9705,-1.9705,-1.9705,-1.9705,-1.9705,-1.9705,-1.9705,-1.9705,-1.9705,-1.9705,-1.9705,-1.9705,-1.9726,-1.9782,-1.9818,-1.9818,-1.9737,-1.9576,-1.9531,-1.942,-1.94,-1.901,-1.8585,-1.8024,-1.754,-1.6824,-1.6414,-1.6346,-1.6379,-1.6119,-1.5627,-1.5377,-1.5012,-1.4761,-1.4509,-1.4325,-1.4047,-1.3822,-1.3735,-1.3644,-1.3644,-1.3858,-1.3949,-1.3976,-1.41,-1.4337,-1.4788,-1.5172,-1.5939,-1.6321,-1.6471,-1.6534,-2.5053,-2.4836,-2.476,-2.4561,-2.4303,-2.4228,-2.419,-2.419,-2.419,-2.419,-2.4208,-2.4094,-2.3917,-2.3671,-2.3482,-2.3346,-2.3093,-2.2822,-2.2686,-2.2599,-2.2463,-2.2349,-2.2327,-2.2327,-2.2327,-2.2327,-2.2327,-2.2327,-2.2327,-2.2327,-2.2327,-2.2327,-2.2327,-2.2327,-2.2327,-2.2327,-2.2327,-2.2327,-2.2327,-2.2327,-2.2327,-2.2327,-2.2327,-2.2209,-2.2152,-2.1899,-2.1521,-2.129,-2.0894,-2.0314,-2.0227,-2.0035,-1.9726,-1.9705,-1.9705,-1.9705,-1.9705,-1.9705,-1.9705,-1.9705,-1.966,-1.9645,-1.9696,-1.969,-1.9705,-1.9675,-1.9675,-1.9705,-1.9705,-1.9705,-1.9705,-1.9705,-1.9705,-1.9705,-1.9726,-1.9818,-1.9874,-1.9929,-1.9914,-1.9602,-1.9456,-1.9021,-1.8957,-1.8657,-1.8287,-1.7959,-1.7617,-1.7174,-1.6742,-1.6336,-1.6059,-1.6064,-1.5665,-1.5076,-1.452,-1.4123,-1.3964,-1.3754,-1.3652,-1.3584,-1.3509,-1.3421,-1.3261,-1.3323,-1.3536,-1.3565,-1.3507,-1.363,-1.3631,-1.3988,-1.4393,-1.5367,-1.6138,-1.6241,-1.6446,-2.5138,-2.4896,-2.4814,-2.4578,-2.4247,-2.419,-2.419,-2.419,-2.419,-2.419,-2.419,-2.419,-2.4094,-2.3896,-2.3753,-2.3649,-2.3588,-2.3141,-2.2905,-2.2848,-2.2581,-2.2443,-2.2349,-2.231,-2.2327,-2.2327,-2.2327,-2.2327,-2.2327,-2.2327,-2.2327,-2.2327,-2.2327,-2.2327,-2.2327,-2.2327,-2.2327,-2.2327,-2.2327,-2.2327,-2.2327,-2.2327,-2.2327,-2.2327,-2.2327,-2.2032,-2.1658,-2.1521,-2.1007,-2.0382,-2.0227,-1.998,-1.9726,-1.9705,-1.9705,-1.9705,-1.9705,-1.9705,-1.9705,-1.9705,-1.9555,-1.945,-1.951,-1.9495,-1.9495,-1.9465,-1.96,-1.9705,-1.9705,-1.9705,-1.9705,-1.9705,-1.9705,-1.9705,-1.9782,-1.9874,-1.9965,-2.007,-1.9856,-1.9512,-1.9042,-1.8515,-1.8149,-1.7849,-1.7665,-1.7667,-1.7388,-1.6884,-1.6457,-1.5998,-1.5685,-1.5541,-1.5031,-1.445,-1.3939,-1.3582,-1.3508,-1.3468,-1.3403,-1.3311,-1.321,-1.321,-1.321,-1.3201,-1.3241,-1.3293,-1.3321,-1.2962,-1.2926,-1.3362,-1.3852,-1.4651,-1.5399,-1.5774,-1.6019,-2.5182,-2.4962,-2.4795,-2.4528,-2.4228,-2.419,-2.419,-2.419,-2.419,-2.419,-2.419,-2.419,-2.417,-2.4074,-2.3917,-2.3937,-2.3816,-2.35,-2.3236,-2.3171,-2.2772,-2.2563,-2.2426,-2.2293,-2.231,-2.2327,-2.2327,-2.2327,-2.2327,-2.2327,-2.2327,-2.2327,-2.2327,-2.2327,-2.2327,-2.2327,-2.2327,-2.2327,-2.2327,-2.2327,-2.2327,-2.2327,-2.2327,-2.2327,-2.2237,-2.2089,-2.1658,-2.1244,-2.0862,-2.0398,-2.0035,-1.9854,-1.9726,-1.9705,-1.9705,-1.96,-1.9555,-1.96,-1.951,-1.9405,-1.9241,-1.9166,-1.9226,-1.9331,-1.9366,-1.9486,-1.9681,-1.9762,-1.9797,-1.9747,-1.9747,-2.0015,-2.012,-2.0085,-2.0104,-2.033,-2.0583,-2.044,-1.9942,-1.9392,-1.844,-1.7915,-1.7657,-1.7372,-1.6937,-1.7154,-1.7025,-1.6471,-1.6103,-1.5681,-1.5277,-1.4978,-1.4436,-1.3961,-1.3824,-1.3479,-1.3316,-1.3248,-1.321,-1.321,-1.321,-1.321,-1.321,-1.3213,-1.3216,-1.3216,-1.3171,-1.29,-1.2841,-1.3141,-1.3652,-1.4071,-1.4588,-1.5079,-1.579,-2.5126,-2.4809,-2.4495,-2.4266,-2.4209,-2.419,-2.419,-2.419,-2.419,-2.419,-2.419,-2.419,-2.419,-2.417,-2.4094,-2.4113,-2.4036,-2.3816,-2.3628,-2.3369,-2.3021,-2.2721,-2.2563,-2.2426,-2.2338,-2.2327,-2.2327,-2.2327,-2.2327,-2.2327,-2.2327,-2.2327,-2.2327,-2.2327,-2.2327,-2.2327,-2.2327,-2.2327,-2.2327,-2.2327,-2.2327,-2.2327,-2.2327,-2.2327,-2.2254,-2.2032,-2.1735,-2.1521,-2.1181,-2.0862,-2.0382,-2.007,-1.9762,-1.9726,-1.9726,-1.9615,-1.9241,-1.9256,-1.9166,-1.8912,-1.8627,-1.8826,-1.8966,-1.9231,-1.9413,-1.9637,-1.9717,-1.9808,-1.9763,-1.9733,-1.9823,-2.0172,-2.0407,-2.034,-2.0239,-2.0621,-2.0957,-2.0432,-1.9876,-1.8964,-1.7911,-1.7422,-1.715,-1.6833,-1.6398,-1.6219,-1.6174,-1.5905,-1.5645,-1.529,-1.4801,-1.4409,-1.3836,-1.3468,-1.3433,-1.3446,-1.3261,-1.321,-1.321,-1.321,-1.321,-1.321,-1.321,-1.3213,-1.3216,-1.3216,-1.3206,-1.3175,-1.3187,-1.3256,-1.3351,-1.3707,-1.3921,-1.4325,-1.5272,-2.4028,-2.3782,-2.3754,-2.3713,-2.3731,-2.4025,-2.419,-2.419,-2.419,-2.419,-2.419,-2.419,-2.419,-2.419,-2.419,-2.419,-2.417,-2.3998,-2.3816,-2.3566,-2.3346,-2.2996,-2.2764,-2.2563,-2.2398,-2.2349,-2.231,-2.2327,-2.2327,-2.2327,-2.2327,-2.2327,-2.2327,-2.2327,-2.2327,-2.2327,-2.2327,-2.2327,-2.2327,-2.2327,-2.2327,-2.2327,-2.2327,-2.2327,-2.2254,-2.2032,-2.1764,-2.1582,-2.1337,-2.1086,-2.0731,-2.0382,-2.0139,-2.0,-1.9693,-1.9296,-1.8927,-1.8732,-1.8597,-1.8313,-1.799,-1.8221,-1.8485,-1.8667,-1.8671,-1.8873,-1.9508,-1.9541,-1.905,-1.8923,-1.9183,-1.95,-1.9531,-1.95,-1.9279,-1.928,-1.9248,-1.8858,-1.8485,-1.8082,-1.7181,-1.6563,-1.6368,-1.6323,-1.5993,-1.5993,-1.5844,-1.5844,-1.5492,-1.5239,-1.4654,-1.4219,-1.3901,-1.3404,-1.3308,-1.3286,-1.3235,-1.321,-1.321,-1.321,-1.321,-1.321,-1.3223,-1.3213,-1.3226,-1.3204,-1.3218,-1.3221,-1.3208,-1.3216,-1.3238,-1.3358,-1.3488,-1.3628,-1.425,-2.2748,-2.2555,-2.2918,-2.2987,-2.2997,-2.3732,-2.4044,-2.4025,-2.4153,-2.419,-2.419,-2.419,-2.419,-2.419,-2.419,-2.419,-2.419,-2.4133,-2.3976,-2.3837,-2.3692,-2.3369,-2.3069,-2.2797,-2.2643,-2.2453,-2.2349,-2.231,-2.2327,-2.2327,-2.2327,-2.2327,-2.2327,-2.2327,-2.2327,-2.2327,-2.2327,-2.2327,-2.2327,-2.2327,-2.2327,-2.2327,-2.2327,-2.2327,-2.2282,-2.2061,-2.1823,-2.1628,-2.1477,-2.1306,-2.1102,-2.0654,-2.0282,-2.0069,-1.9516,-1.9076,-1.8483,-1.8238,-1.7977,-1.7567,-1.7454,-1.7548,-1.7853,-1.7986,-1.7994,-1.8314,-1.8954,-1.911,-1.8633,-1.8529,-1.8783,-1.9017,-1.9033,-1.8946,-1.8649,-1.8438,-1.8158,-1.7803,-1.7531,-1.7319,-1.6668,-1.6006,-1.5844,-1.5814,-1.5814,-1.5814,-1.5814,-1.5814,-1.5756,-1.5536,-1.518,-1.4935,-1.4721,-1.4205,-1.3412,-1.3245,-1.3279,-1.321,-1.321,-1.321,-1.321,-1.321,-1.321,-1.321,-1.3235,-1.3213,-1.3213,-1.3226,-1.3201,-1.3201,-1.3015,-1.298,-1.2946,-1.3034,-1.3107,-2.2621,-2.2357,-2.237,-2.226,-2.2204,-2.3007,-2.3324,-2.3364,-2.3914,-2.419,-2.408,-2.4153,-2.419,-2.419,-2.419,-2.419,-2.419,-2.419,-2.419,-2.4094,-2.3876,-2.3649,-2.3414,-2.3093,-2.2915,-2.2678,-2.2463,-2.2321,-2.2349,-2.2338,-2.2327,-2.2327,-2.2327,-2.2327,-2.2327,-2.2327,-2.2327,-2.2327,-2.2327,-2.2327,-2.2327,-2.2327,-2.2327,-2.2327,-2.2299,-2.2254,-2.218,-2.2163,-2.2106,-2.1974,-2.1543,-2.0839,-2.0399,-1.9972,-1.9437,-1.8703,-1.8115,-1.7838,-1.7532,-1.6864,-1.6727,-1.7319,-1.7546,-1.7537,-1.7566,-1.7615,-1.8265,-1.893,-1.8663,-1.8676,-1.8924,-1.9293,-1.9372,-1.9213,-1.8963,-1.888,-1.8695,-1.8103,-1.7565,-1.7124,-1.6573,-1.6108,-1.5829,-1.5814,-1.5814,-1.5814,-1.5814,-1.5814,-1.5814,-1.5713,-1.561,-1.549,-1.535,-1.4483,-1.3533,-1.3365,-1.3335,-1.3279,-1.321,-1.321,-1.321,-1.321,-1.321,-1.321,-1.321,-1.3223,-1.321,-1.321,-1.321,-1.3141,-1.2768,-1.2579,-1.2472,-1.2365,-1.2369]},{"header":{"parameterUnit":"m.s-1","parameterCategory":1,"la1":31.0,"la2":29.5877,"lo1":-88.7671,"lo2":-86.6584,"dy":0.0162,"dx":0.0185,"nx":115,"ny":88,"refTime":"2024-07-12T12:00:00:Z","depth":0,"parameterNumber":3,"parameterNumberName":"V-component_of_WINDS"},"data":[0.0,0.0,0.0,0.0,0.0,0.0,0.0,0.0,0.0,0.0,0.0,0.0,0.0,0.0,0.0,0.0,0.0,0.0,0.0,0.0,0.0,0.0,0.0,0.0,0.0,0.0,0.0,0.0,0.0,0.0,0.0,0.0,0.0,0.0,0.0,0.0,0.0,0.0,0.0,0.0,0.0,0.0,0.0,0.0,0.0,0.0,0.0,0.0,0.0,0.0,0.0,0.0,0.0,0.0,0.0,0.0,0.0,0.0,0.0,0.0,0.0,0.0,0.0,0.0,0.0,0.0,0.0,0.0,0.0,0.0,0.0,0.0,0.0,0.0,0.0,0.0,0.0,0.0,0.0,0.0,0.0,0.0,0.0,0.0,0.0,0.0,0.0,0.0,0.0,0.0,0.0,0.0,0.0,0.0,0.0,0.0,0.0,0.0,0.0,0.0,0.0,0.0,0.0,0.0,0.0,0.0,0.0,0.0,0.0,0.0,0.0,0.0,0.0,0.0,0.0,0.0,0.0,0.0,0.0,0.0,0.0,0.0,0.0,0.0,0.0,0.0,0.0,0.0,0.0,0.0,0.0,0.0,0.0,0.0,0.0,0.0,0.0,0.0,0.0,0.0,0.0,0.0,0.0,0.0,0.0,0.0,0.0,0.0,0.0,0.0,0.0,0.0,0.0,0.0,0.0,0.0,0.0,0.0,0.0,0.0,0.0,0.0,0.0,0.0,0.0,0.0,0.0,0.0,0.0,0.0,0.0,0.0,0.0,0.0,0.0,0.0,0.0,0.0,0.0,0.0,0.0,0.0,0.0,0.0,0.0,0.0,0.0,0.0,0.0,0.0,0.0,0.0,0.0,0.0,0.0,0.0,0.0,0.0,0.0,0.0,0.0,0.0,0.0,0.0,0.0,0.0,0.0,0.0,0.0,0.0,0.0,0.0,0.0,0.0,0.0,0.0,0.0,0.0,0.0,0.0,0.0,0.0,0.0,0.0,0.0,0.0,0.0,0.0,0.0,0.0,0.0,0.0,0.0,0.0,0.0,0.0,0.0,0.0,0.0,0.0,0.0,0.0,0.0,0.0,0.0,0.0,0.0,0.0,0.0,0.0,0.0,0.0,0.0,0.0,0.0,0.0,0.0,0.0,0.0,0.0,0.0,0.0,0.0,0.0,0.0,0.0,0.0,0.0,0.0,0.0,0.0,0.0,0.0,0.0,0.0,0.0,0.0,0.0,0.0,0.0,0.0,0.0,0.0,0.0,0.0,0.0,0.0,0.0,0.0,0.0,0.0,0.0,0.0,0.0,0.0,0.0,0.0,0.0,0.0,0.0,0.0,0.0,0.0,0.0,0.0,0.0,0.0,0.0,0.0,0.0,0.0,0.0,0.0,0.0,0.0,0.0,0.0,0.0,0.0,0.0,0.0,0.0,0.0,0.0,0.0,0.0,0.0,0.0,0.0,0.0,0.0,0.0,0.0,0.0,0.0,0.0,0.0,0.0,0.0,0.0,0.0,0.0,0.0,0.0,0.0,0.0,0.0,0.0,0.0,0.0,0.0,0.0,0.0,0.0,0.0,0.0,0.0,0.0,0.0,0.0,0.0,0.0,0.0,0.0,0.0,0.0,0.0,0.0,0.0,0.0,0.0,0.0,0.0,0.0,0.0,0.0,0.0,0.0,0.0,0.0,0.0,0.0,0.0,0.0,0.0,0.0,0.0,0.0,0.0,0.0,0.0,0.0,0.0,0.0,0.0,0.0,0.0,0.0,0.0,0.0,0.0,0.0,0.0,0.0,0.0,0.0,0.0,0.0,0.0,0.0,0.0,0.0,0.0,0.0,0.0,0.0,0.0,0.0,0.0,0.0,0.0,0.0,0.0,0.0,0.0,0.0,0.0,0.0,0.0,0.0,0.0,0.0,0.0,0.0,0.0,0.0,0.0,0.0,0.0,0.0,0.0,0.0,0.0,0.0,0.0,0.0,0.0,0.0,0.0,0.0,0.0,0.0,0.0,0.0,0.0,0.0,0.0,0.0,0.0,0.0,0.0,0.0,0.0,0.0,0.0,0.0,0.0,0.0,0.0,0.0,0.0,0.0,0.0,0.0,0.0,0.0,0.0,0.0,0.0,0.0,0.0,0.0,0.0,0.0,0.0,0.0,0.0,0.0,0.0,0.0,0.0,0.0,0.0,0.0,0.0,0.0,0.0,0.0,0.0,0.0,0.0,0.0,0.0,0.0,0.0,0.0,0.0,0.0,0.0,0.0,0.0,0.0,0.0,0.0,0.0,0.0,0.0,0.0,0.0,0.0,0.0,0.0,0.0,0.0,0.0,0.0,0.0,0.0,0.0,0.0,0.0,0.0,0.0,0.0,0.0,0.0,0.0,0.0,0.0,0.0,0.0,0.0,0.0,0.0,0.0,0.0,0.0,0.0,0.0,0.0,0.0,0.0,0.0,0.0,0.0,0.0,0.0,0.0,0.0,0.0,0.0,0.0,0.0,0.0,0.0,0.0,0.0,0.0,0.0,0.0,0.0,0.0,0.0,0.0,0.0,0.0,0.0,0.0,0.0,0.0,0.0,0.0,0.0,0.0,0.0,0.0,0.0,0.0,0.0,0.0,0.0,0.0,0.0,0.0,0.0,0.0,0.0,0.0,0.0,0.0,0.0,0.0,0.0,0.0,0.0,0.0,0.0,0.0,0.0,0.0,0.0,0.0,0.0,0.0,0.0,0.0,0.0,0.0,0.0,0.0,0.0,0.0,0.0,0.0,0.0,0.0,0.0,0.0,0.0,0.0,0.0,0.0,0.0,0.0,0.0,0.0,0.0,0.0,0.0,0.0,0.0,0.0,0.0,0.0,0.0,0.0,0.0,0.0,0.0,0.0,0.0,0.0,0.0,0.0,0.0,0.0,0.0,0.0,0.0,0.0,0.0,0.0,0.0,0.0,0.0,0.0,0.0,0.0,0.0,0.0,0.0,0.0,0.0,0.0,0.0,0.0,0.0,0.0,0.0,0.0,0.0,0.0,0.0,0.0,0.0,0.0,0.0,0.0,0.0,0.0,0.0,0.0,0.0,0.0,0.0,0.0,0.0,0.0,0.0,0.0,0.0,0.0,0.0,0.0,0.0,0.0,0.0,0.0,0.0,0.0,0.0,0.0,0.0,0.0,0.0,0.0,0.0,0.0,0.0,0.0,0.0,0.0,0.0,0.0,0.0,0.0,0.0,0.0,0.0,0.0,0.0,0.0,0.0,0.0,0.0,0.0,0.0,0.0,0.0,0.0,0.0,0.0,0.0,0.0,0.0,0.0,0.0,0.0,0.0,0.0,0.0,0.0,0.0,0.0,0.0,0.0,0.0,0.0,0.0,0.0,0.0,0.0,0.0,0.0,0.0,0.0,0.0,0.0,0.0,0.0,0.0,0.0,0.0,0.0,0.0,0.0,0.0,0.0,0.0,0.0,0.0,0.0,0.0,0.0,0.0,0.0,0.0,0.0,0.0,0.0,0.0,0.0,0.0,0.0,0.0,0.0,0.0,0.0,0.0,0.0,0.0,0.0,0.0,0.0,0.0,0.0,0.0,0.0,0.0,0.0,0.0,0.0,0.0,0.0,0.0,0.0,0.0,0.0,0.0,0.0,0.0,0.0,0.0,0.0,0.0,0.0,0.0,0.0,0.0,0.0,0.0,0.0,0.0,0.0,0.0,0.0,0.0,0.0,0.0,0.0,0.0,0.0,0.0,0.0,0.0,0.0,0.0,0.0,0.0,0.0,0.0,0.0,0.0,0.0,0.0,0.0,0.0,0.0,0.0,0.0,0.0,0.0,0.0,0.0,0.0,0.0,0.0,0.0,0.0,0.0,0.0,0.0,0.0,0.0,0.0,0.0,0.0,0.0,0.0,0.0,0.0,0.0,0.0,0.0,0.0,0.0,0.0,0.0,0.0,0.0,0.0,0.0,0.0,0.0,0.0,0.0,0.0,0.0,0.0,0.0,0.0,0.0,0.0,0.0,0.0,0.0,0.0,0.0,0.0,0.0,0.0,0.0,0.0,0.0,0.0,0.0,0.0,0.0,0.0,0.0,0.0,0.0,0.0,0.0,0.0,0.0,0.0,0.0,0.0,0.0,0.0,0.0,0.0,0.0,0.0,0.0,0.0,0.0,0.0,0.0,0.0,0.0,0.0,0.0,0.0,0.0,0.0,0.0,0.0,0.0,0.0,0.0,0.0,0.0,0.0,0.0,0.0,0.0,0.0,0.0,0.0,0.0,0.0,0.0,0.0,0.0,-1.1411,0.0,0.0,0.0,0.0,0.0,0.0,0.0,0.0,0.0,0.0,0.0,0.0,0.0,0.0,0.0,0.0,0.0,0.0,0.0,0.0,0.0,0.0,0.0,0.0,0.0,0.0,0.0,0.0,0.0,0.0,0.0,0.0,0.0,0.0,0.0,0.0,0.0,0.0,0.0,0.0,0.0,0.0,0.0,0.0,0.0,0.0,0.0,0.0,0.0,0.0,0.0,0.0,0.0,0.0,0.0,0.0,0.0,0.0,0.0,0.0,0.0,0.0,0.0,0.0,0.0,0.0,0.0,0.0,0.0,0.0,0.0,0.0,0.0,0.0,0.0,0.0,0.0,0.0,0.0,0.0,0.0,0.0,0.0,0.0,0.0,0.0,0.0,0.0,0.0,0.0,0.0,0.0,0.0,0.0,0.0,0.0,0.0,0.0,0.0,0.0,0.0,0.0,0.0,0.0,0.0,0.0,0.0,0.0,0.0,0.0,-0.7964,-0.8218,-0.9693,-1.0827,-1.1499,0.0,0.0,0.0,0.0,0.0,0.0,0.0,0.0,0.0,0.0,0.0,0.0,0.0,0.0,0.0,0.0,0.0,0.0,0.0,0.0,0.0,0.0,0.0,0.0,0.0,0.0,0.0,0.0,0.0,0.0,0.0,0.0,0.0,0.0,0.0,0.0,0.0,0.0,0.0,0.0,0.0,0.0,0.0,0.0,0.0,0.0,0.0,0.0,0.0,0.0,0.0,0.0,0.0,0.0,0.0,0.0,0.0,0.0,0.0,0.0,0.0,0.0,0.0,0.0,0.0,0.0,0.0,0.0,0.0,0.0,0.0,0.0,0.0,0.0,0.0,0.0,0.0,0.0,0.0,0.0,0.0,0.0,0.0,0.0,0.0,0.0,0.0,0.0,0.0,0.0,0.0,0.0,0.0,0.0,0.0,0.0,0.0,0.0,0.0,0.0,0.0,0.0,0.0,0.0,0.0,0.0,0.0,0.0,0.0,0.0,0.0,0.0,-0.9965,-1.1112,-1.1817,0.0,0.0,0.0,0.0,0.0,0.0,0.0,0.0,0.0,0.0,0.0,0.0,0.0,0.0,0.0,0.0,0.0,0.0,0.0,0.0,0.0,0.0,0.0,0.0,0.0,0.0,0.0,0.0,0.0,0.0,0.0,0.0,0.0,0.0,0.0,0.0,0.0,0.0,0.0,0.0,0.0,0.0,0.0,0.0,0.0,0.0,0.0,0.0,0.0,0.0,0.0,0.0,0.0,0.0,0.0,0.0,0.0,0.0,0.0,0.0,0.0,0.0,0.0,0.0,0.0,0.0,0.0,0.0,0.0,0.0,0.0,0.0,0.0,0.0,0.0,0.0,0.0,0.0,0.0,0.0,0.0,0.0,0.0,0.0,0.0,0.0,0.0,0.0,0.0,0.0,0.0,0.0,0.0,0.0,0.0,0.0,0.0,0.0,0.0,0.0,0.0,0.0,0.0,0.0,0.0,0.0,0.0,0.0,0.0,0.0,-0.8853,-0.9886,-1.0853,0.0,-1.2172,0.0,0.0,0.0,0.0,0.0,0.0,0.0,0.0,0.0,0.0,0.0,0.0,0.0,0.0,0.0,0.0,0.0,0.0,0.0,0.0,0.0,0.0,0.0,0.0,0.0,0.0,0.0,0.0,0.0,0.0,0.0,0.0,0.0,0.0,0.0,0.0,0.0,0.0,0.0,0.0,0.0,0.0,0.0,0.0,0.0,0.0,0.0,0.0,0.0,0.0,0.0,0.0,0.0,0.0,0.0,0.0,0.0,0.0,0.0,0.0,0.0,0.0,0.0,0.0,0.0,0.0,0.0,0.0,0.0,0.0,0.0,0.0,0.0,0.0,0.0,0.0,0.0,0.0,0.0,0.0,0.0,0.0,0.0,0.0,0.0,0.0,0.0,0.0,0.0,0.0,0.0,0.0,0.0,0.0,0.0,0.0,0.0,0.0,0.0,0.0,0.0,0.0,0.0,0.0,0.0,0.0,0.0,0.0,0.0,0.0,0.0,-1.0634,-1.1992,-1.3063,0.0,0.0,0.0,0.0,0.0,0.0,0.0,0.0,0.0,0.0,0.0,0.0,0.0,0.0,0.0,0.0,0.0,0.0,0.0,0.0,0.0,0.0,0.0,0.0,0.0,0.0,0.0,0.0,0.0,0.0,0.0,0.0,0.0,0.0,0.0,0.0,0.0,0.0,0.0,0.0,0.0,0.0,0.0,0.0,0.0,0.0,0.0,0.0,0.0,0.0,0.0,0.0,0.0,0.0,0.0,0.0,0.0,0.0,0.0,0.0,0.0,0.0,0.0,0.0,0.0,0.0,0.0,0.0,0.0,0.0,0.0,0.0,0.0,0.0,0.0,0.0,0.0,0.0,0.0,0.0,0.0,0.0,0.0,0.0,0.0,0.0,0.0,0.0,0.0,0.0,0.0,0.0,0.0,0.0,0.0,0.0,0.0,0.0,0.0,0.0,0.0,0.0,0.0,0.0,0.0,0.0,0.0,0.0,0.0,0.0,-0.9963,0.0,-1.1966,-1.3884,-1.4821,-1.4612,0.0,0.0,0.0,0.0,0.0,0.0,0.0,0.0,0.0,0.0,0.0,0.0,0.0,0.0,0.0,0.0,0.0,0.0,0.0,0.0,0.0,0.0,0.0,0.0,0.0,0.0,0.0,0.0,0.0,0.0,0.0,0.0,0.0,0.0,0.0,0.0,0.0,0.0,0.0,0.0,0.0,0.0,0.0,0.0,0.0,0.0,0.0,0.0,0.0,0.0,0.0,0.0,0.0,0.0,0.0,0.0,0.0,0.0,0.0,0.0,0.0,0.0,0.0,0.0,0.0,0.0,0.0,0.0,0.0,0.0,0.0,0.0,0.0,0.0,0.0,0.0,0.0,0.0,0.0,0.0,0.0,0.0,0.0,0.0,0.0,0.0,0.0,0.0,0.0,0.0,0.0,0.0,0.0,0.0,0.0,0.0,0.0,0.0,0.0,0.0,0.0,0.0,0.0,0.0,0.0,0.0,0.0,0.0,0.0,-1.0674,-1.2106,-1.4222,-1.6623,-1.6594,0.0,0.0,0.0,0.0,0.0,0.0,0.0,0.0,0.0,0.0,0.0,0.0,0.0,0.0,0.0,0.0,0.0,0.0,0.0,0.0,0.0,0.0,0.0,0.0,0.0,0.0,0.0,0.0,0.0,0.0,0.0,0.0,0.0,0.0,0.0,0.0,0.0,0.0,0.0,0.0,0.0,0.0,0.0,0.0,0.0,0.0,0.0,0.0,0.0,0.0,0.0,0.0,0.0,0.0,0.0,0.0,0.0,0.0,0.0,0.0,0.0,0.0,0.0,0.0,0.0,0.0,0.0,0.0,0.0,0.0,0.0,0.0,0.0,0.0,0.0,0.0,0.0,0.0,0.0,0.0,0.0,0.0,0.0,0.0,0.0,0.0,0.0,0.0,0.0,0.0,0.0,0.0,0.0,0.0,0.0,0.0,0.0,0.0,0.0,0.0,0.0,0.0,0.0,0.0,0.0,0.0,0.0,0.0,0.0,-0.9233,-1.1304,-1.4048,-1.7191,-1.6494,-1.6114,0.0,0.0,0.0,0.0,0.0,0.0,0.0,0.0,0.0,0.0,0.0,0.0,0.0,0.0,0.0,0.0,0.0,0.0,0.0,0.0,0.0,0.0,0.0,0.0,0.0,0.0,0.0,0.0,0.0,0.0,0.0,0.0,0.0,0.0,0.0,0.0,0.0,0.0,0.0,0.0,0.0,0.0,0.0,0.0,0.0,0.0,0.0,0.0,0.0,0.0,0.0,0.0,0.0,0.0,0.0,0.0,0.0,0.0,0.0,0.0,0.0,0.0,0.0,0.0,0.0,0.0,0.0,0.0,0.0,0.0,0.0,0.0,0.0,0.0,0.0,0.0,0.0,0.0,0.0,0.0,0.0,0.0,0.0,0.0,0.0,0.0,0.0,0.0,0.0,0.0,0.0,0.0,0.0,0.0,0.0,0.0,0.0,0.0,0.0,0.0,0.0,0.0,0.0,0.0,0.0,0.0,0.0,0.0,0.0,-1.0143,0.0,-1.5506,0.0,-1.6677,-1.6254,0.0,0.0,0.0,0.0,0.0,0.0,0.0,0.0,0.0,0.0,0.0,0.0,0.0,0.0,0.0,0.0,0.0,0.0,0.0,0.0,0.0,0.0,0.0,0.0,0.0,0.0,0.0,0.0,0.0,0.0,0.0,0.0,0.0,0.0,0.0,0.0,0.0,0.0,0.0,0.0,0.0,0.0,0.0,0.0,0.0,0.0,0.0,0.0,0.0,0.0,0.0,0.0,0.0,0.0,0.0,0.0,0.0,0.0,0.0,0.0,0.0,0.0,0.0,0.0,0.0,0.0,0.0,0.0,0.0,0.0,0.0,0.0,0.0,0.0,0.0,0.0,0.0,0.0,0.0,0.0,0.0,0.0,0.0,0.0,0.0,0.0,0.0,0.0,0.0,0.0,0.0,0.0,0.0,0.0,0.0,0.0,0.0,0.0,0.0,0.0,0.0,0.0,0.0,0.0,0.0,0.0,0.0,0.0,-0.8798,-1.3054,-1.5283,-1.643,-1.6397,-1.7484,-1.7006,0.0,0.0,0.0,0.0,0.0,0.0,0.0,0.0,0.0,0.0,0.0,0.0,0.0,0.0,0.0,0.0,0.0,0.0,0.0,0.0,0.0,0.0,0.0,0.0,0.0,0.0,0.0,0.0,0.0,0.0,0.0,0.0,0.0,0.0,0.0,0.0,0.0,0.0,0.0,0.0,0.0,0.0,0.0,0.0,0.0,0.0,0.0,0.0,0.0,0.0,0.0,0.0,0.0,0.0,0.0,0.0,0.0,0.0,0.0,0.0,0.0,0.0,0.0,0.0,0.0,0.0,0.0,0.0,0.0,0.0,0.0,0.0,0.0,0.0,0.0,0.0,0.0,0.0,0.0,0.0,0.0,0.0,0.0,0.0,0.0,0.0,0.0,0.0,0.0,0.0,0.0,0.0,0.0,0.0,0.0,0.0,0.0,0.0,0.0,0.0,0.0,0.0,0.0,0.0,0.0,0.0,0.0,0.0,0.0,-1.4414,-1.6288,-1.8029,-1.9384,-1.8157,-1.7447,0.0,0.0,0.0,0.0,0.0,0.0,0.0,0.0,0.0,0.0,0.0,0.0,0.0,0.0,0.0,0.0,0.0,0.0,0.0,0.0,0.0,0.0,0.0,0.0,0.0,0.0,0.0,0.0,0.0,0.0,0.0,0.0,0.0,0.0,0.0,0.0,0.0,0.0,0.0,0.0,0.0,0.0,0.0,0.0,0.0,0.0,0.0,0.0,0.0,0.0,0.0,0.0,0.0,0.0,0.0,0.0,0.0,0.0,0.0,0.0,0.0,0.0,0.0,0.0,0.0,0.0,0.0,0.0,0.0,0.0,0.0,0.0,0.0,0.0,0.0,0.0,0.0,0.0,0.0,0.0,0.0,0.0,0.0,0.0,0.0,0.0,0.0,0.0,0.0,0.0,0.0,0.0,0.0,0.0,0.0,0.0,0.0,0.0,0.0,0.0,0.0,0.0,0.0,0.0,0.0,0.0,0.0,0.0,0.0,-1.5446,-1.6446,-1.7895,-1.9878,-1.8039,-1.7476,-1.8319,0.0,0.0,0.0,0.0,0.0,0.0,0.0,0.0,0.0,0.0,0.0,0.0,0.0,0.0,0.0,0.0,0.0,0.0,0.0,0.0,0.0,0.0,0.0,0.0,0.0,0.0,0.0,0.0,0.0,0.0,0.0,0.0,0.0,0.0,0.0,0.0,0.0,0.0,0.0,0.0,0.0,0.0,0.0,0.0,0.0,0.0,0.0,0.0,0.0,0.0,0.0,0.0,0.0,0.0,0.0,0.0,0.0,0.0,0.0,0.0,0.0,0.0,0.0,0.0,0.0,0.0,0.0,0.0,0.0,0.0,0.0,0.0,0.0,0.0,0.0,0.0,0.0,0.0,0.0,0.0,0.0,0.0,0.0,0.0,0.0,0.0,0.0,0.0,0.0,0.0,0.0,0.0,0.0,0.0,0.0,0.0,0.0,0.0,0.0,0.0,0.0,0.0,0.0,0.0,0.0,0.0,0.0,0.0,-1.6111,-1.5908,-1.6643,-1.8333,-1.7572,-1.739,0.0,0.0,0.0,0.0,0.0,0.0,0.0,0.0,0.0,0.0,0.0,0.0,0.0,0.0,0.0,0.0,0.0,0.0,0.0,0.0,0.0,0.0,0.0,0.0,0.0,0.0,0.0,0.0,0.0,0.0,0.0,0.0,0.0,0.0,0.0,0.0,0.0,0.0,0.0,0.0,0.0,0.0,0.0,0.0,0.0,0.0,0.0,0.0,0.0,0.0,0.0,0.0,0.0,0.0,0.0,0.0,0.0,0.0,0.0,0.0,0.0,0.0,0.0,0.0,0.0,0.0,0.0,0.0,0.0,0.0,0.0,0.0,0.0,0.0,0.0,0.0,0.0,0.0,0.0,0.0,0.0,0.0,0.0,0.0,0.0,0.0,0.0,0.0,0.0,0.0,0.0,0.0,0.0,0.0,0.0,0.0,0.0,0.0,0.0,0.0,0.0,0.0,0.0,0.0,0.0,0.0,0.0,0.0,0.0,-1.3995,-1.5192,-1.7301,-2.0342,-1.9344,-1.8991,0.0,0.0,0.0,0.0,0.0,0.0,0.0,0.0,0.0,0.0,0.0,0.0,0.0,0.0,0.0,0.0,0.0,0.0,0.0,0.0,0.0,0.0,0.0,0.0,0.0,0.0,0.0,0.0,0.0,0.0,0.0,0.0,0.0,0.0,0.0,0.0,0.0,0.0,0.0,0.0,0.0,0.0,0.0,0.0,0.0,0.0,0.0,0.0,0.0,0.0,0.0,0.0,0.0,0.0,0.0,0.0,0.0,0.0,0.0,0.0,0.0,0.0,0.0,0.0,0.0,0.0,0.0,0.0,0.0,0.0,0.0,0.0,0.0,0.0,0.0,0.0,0.0,0.0,0.0,0.0,0.0,0.0,0.0,0.0,0.0,0.0,0.0,0.0,0.0,0.0,0.0,0.0,0.0,0.0,0.0,0.0,0.0,0.0,0.0,0.0,0.0,0.0,0.0,0.0,0.0,0.0,0.0,0.0,-1.2987,-1.3267,-1.4916,-1.7289,-2.0477,-1.9609,-1.9488,0.0,0.0,0.0,0.0,0.0,0.0,0.0,0.0,0.0,0.0,0.0,0.0,0.0,0.0,0.0,0.0,0.0,0.0,0.0,0.0,0.0,0.0,0.0,0.0,0.0,0.0,0.0,0.0,0.0,0.0,0.0,0.0,0.0,0.0,0.0,0.0,0.0,0.0,0.0,0.0,0.0,0.0,0.0,0.0,0.0,0.0,0.0,0.0,0.0,0.0,0.0,0.0,0.0,0.0,0.0,0.0,0.0,0.0,0.0,0.0,0.0,0.0,0.0,0.0,0.0,0.0,0.0,0.0,0.0,0.0,0.0,0.0,0.0,0.0,0.0,0.0,0.0,0.0,0.0,0.0,0.0,0.0,0.0,0.0,0.0,0.0,0.0,0.0,0.0,0.0,0.0,0.0,0.0,0.0,0.0,0.0,0.0,0.0,0.0,0.0,0.0,0.0,0.0,0.0,0.0,0.0,0.0,0.0,-1.2835,-1.3193,-1.4905,-1.6936,-1.9206,-1.8962,-1.9384,0.0,0.0,0.0,0.0,0.0,0.0,0.0,0.0,0.0,0.0,0.0,0.0,0.0,0.0,0.0,0.0,0.0,0.0,0.0,0.0,0.0,0.0,0.0,0.0,0.0,0.0,0.0,0.0,0.0,0.0,0.0,0.0,0.0,0.0,0.0,0.0,0.0,0.0,0.0,0.0,0.0,0.0,0.0,0.0,0.0,0.0,0.0,0.0,0.0,0.0,0.0,0.0,0.0,0.0,0.0,0.0,0.0,0.0,0.0,0.0,0.0,0.0,0.0,0.0,0.0,0.0,0.0,0.0,0.0,0.0,0.0,0.0,0.0,0.0,0.0,0.0,0.0,0.0,0.0,0.0,0.0,0.0,0.0,0.0,0.0,0.0,0.0,0.0,0.0,0.0,0.0,0.0,0.0,0.0,0.0,0.0,0.0,0.0,0.0,0.0,0.0,0.0,0.0,0.0,0.0,0.0,0.0,0.0,-1.1978,-1.2078,-1.452,-1.6567,-1.8056,-1.8512,-1.9384,0.0,0.0,0.0,0.0,0.0,0.0,0.0,0.0,0.0,0.0,0.0,0.0,0.0,0.0,0.0,0.0,0.0,0.0,0.0,0.0,0.0,0.0,0.0,0.0,0.0,0.0,0.0,0.0,0.0,0.0,0.0,0.0,0.0,0.0,0.0,0.0,0.0,0.0,0.0,0.0,0.0,0.0,0.0,0.0,0.0,0.0,0.0,0.0,-1.0349,0.0,0.0,0.0,0.0,0.0,0.0,0.0,0.0,0.0,0.0,0.0,0.0,0.0,0.0,0.0,0.0,0.0,0.0,0.0,0.0,0.0,0.0,0.0,0.0,0.0,0.0,0.0,0.0,0.0,0.0,0.0,0.0,0.0,0.0,0.0,0.0,0.0,0.0,0.0,0.0,0.0,0.0,0.0,0.0,0.0,0.0,0.0,0.0,0.0,0.0,0.0,0.0,0.0,0.0,0.0,0.0,0.0,0.0,0.0,-1.1752,-1.1864,-1.4392,-1.6662,-1.8495,-1.8953,-1.9307,0.0,0.0,0.0,0.0,0.0,0.0,0.0,0.0,0.0,0.0,0.0,0.0,0.0,0.0,0.0,0.0,0.0,0.0,0.0,0.0,0.0,0.0,0.0,0.0,0.0,0.0,0.0,0.0,0.0,0.0,0.0,0.0,0.0,0.0,0.0,0.0,0.0,0.0,0.0,0.0,0.0,0.0,0.0,0.0,0.0,0.0,0.0,0.0,0.0,0.0,0.0,0.0,0.0,0.0,0.0,0.0,0.0,0.0,0.0,0.0,0.0,0.0,0.0,0.0,0.0,0.0,0.0,0.0,0.0,0.0,0.0,0.0,0.0,0.0,0.0,0.0,0.0,0.0,0.0,0.0,0.0,0.0,0.0,0.0,0.0,0.0,0.0,0.0,0.0,0.0,0.0,0.0,0.0,0.0,0.0,0.0,0.0,0.0,0.0,0.0,0.0,0.0,0.0,0.0,0.0,0.0,0.0,-1.1456,-1.1967,-1.2318,-1.4746,-1.7117,-1.9131,-1.9588,-1.9425,-1.8763,0.0,0.0,0.0,0.0,0.0,0.0,0.0,0.0,0.0,0.0,0.0,0.0,0.0,0.0,0.0,0.0,0.0,0.0,0.0,0.0,0.0,0.0,0.0,0.0,0.0,0.0,0.0,0.0,0.0,0.0,0.0,0.0,0.0,0.0,0.0,0.0,0.0,0.0,-2.1878,-1.9418,0.0,0.0,0.0,0.0,0.0,0.0,0.0,0.0,-1.3291,0.0,0.0,0.0,0.0,0.0,0.0,0.0,0.0,0.0,0.0,0.0,0.0,0.0,0.0,0.0,0.0,0.0,0.0,0.0,0.0,0.0,0.0,0.0,0.0,0.0,0.0,0.0,0.0,0.0,0.0,0.0,0.0,0.0,0.0,0.0,0.0,0.0,0.0,0.0,0.0,0.0,0.0,0.0,0.0,0.0,0.0,0.0,0.0,0.0,0.0,0.0,0.0,0.0,0.0,0.0,0.0,-1.2507,-1.274,-1.3025,-1.3573,-1.6075,-1.7591,-1.8056,-1.9935,-2.0294,-1.8798,0.0,0.0,0.0,0.0,0.0,0.0,0.0,0.0,0.0,0.0,0.0,0.0,0.0,0.0,0.0,0.0,0.0,0.0,0.0,0.0,0.0,0.0,0.0,0.0,0.0,0.0,0.0,0.0,0.0,0.0,0.0,0.0,0.0,0.0,0.0,0.0,0.0,0.0,0.0,-1.8623,-1.7199,0.0,0.0,0.0,0.0,0.0,0.0,0.0,0.0,-1.5041,0.0,0.0,0.0,0.0,0.0,0.0,0.0,0.0,0.0,0.0,0.0,0.0,0.0,0.0,0.0,0.0,0.0,0.0,0.0,0.0,0.0,0.0,0.0,0.0,0.0,0.0,0.0,0.0,0.0,0.0,0.0,0.0,0.0,0.0,0.0,0.0,0.0,0.0,0.0,0.0,0.0,0.0,0.0,0.0,0.0,0.0,0.0,0.0,0.0,0.0,0.0,0.0,0.0,0.0,0.0,-1.325,-1.3397,-1.3626,-1.3962,-1.6351,-1.7956,-1.858,-1.9927,-2.0307,0.0,0.0,0.0,0.0,0.0,0.0,0.0,0.0,0.0,0.0,0.0,0.0,0.0,0.0,0.0,0.0,0.0,0.0,0.0,0.0,0.0,0.0,0.0,0.0,0.0,0.0,0.0,0.0,0.0,0.0,0.0,0.0,0.0,0.0,0.0,0.0,0.0,0.0,0.0,0.0,-1.862,-1.7391,-1.6497,0.0,0.0,0.0,0.0,0.0,0.0,-1.6784,-1.6595,0.0,0.0,0.0,0.0,0.0,0.0,0.0,0.0,0.0,0.0,0.0,0.0,0.0,0.0,0.0,0.0,0.0,0.0,0.0,0.0,0.0,0.0,0.0,0.0,0.0,0.0,0.0,0.0,0.0,0.0,0.0,0.0,0.0,0.0,0.0,0.0,0.0,0.0,0.0,0.0,0.0,0.0,0.0,0.0,0.0,0.0,0.0,0.0,0.0,0.0,0.0,0.0,0.0,0.0,0.0,-1.3884,-1.4004,-1.42,-1.4721,-1.6908,-1.8688,-1.9844,-2.0261,-2.0512,0.0,0.0,0.0,0.0,0.0,0.0,0.0,0.0,0.0,0.0,0.0,0.0,0.0,0.0,0.0,0.0,0.0,0.0,0.0,0.0,0.0,0.0,0.0,0.0,0.0,0.0,0.0,0.0,0.0,0.0,0.0,0.0,0.0,0.0,0.0,0.0,0.0,0.0,0.0,0.0,0.0,-1.8238,-1.8018,-1.8757,0.0,0.0,0.0,0.0,-1.9381,-1.8319,0.0,0.0,0.0,0.0,0.0,0.0,0.0,0.0,0.0,0.0,0.0,0.0,0.0,0.0,0.0,0.0,0.0,0.0,0.0,0.0,0.0,0.0,0.0,0.0,0.0,0.0,0.0,0.0,0.0,0.0,0.0,0.0,0.0,0.0,0.0,0.0,0.0,0.0,0.0,0.0,0.0,0.0,0.0,0.0,0.0,0.0,0.0,0.0,0.0,0.0,0.0,0.0,0.0,0.0,0.0,0.0,-1.5231,-1.4702,-1.53,-1.7252,-1.8588,-1.9852,-2.1025,-2.1863,-2.1671,0.0,0.0,0.0,0.0,0.0,0.0,0.0,0.0,0.0,0.0,0.0,0.0,0.0,0.0,0.0,0.0,0.0,0.0,0.0,0.0,0.0,0.0,0.0,0.0,0.0,0.0,0.0,0.0,0.0,0.0,0.0,0.0,0.0,0.0,0.0,0.0,0.0,0.0,0.0,0.0,0.0,-2.0394,-1.8962,-2.0056,-2.0685,0.0,0.0,-2.082,-1.9608,-1.934,0.0,0.0,0.0,0.0,0.0,0.0,0.0,0.0,0.0,0.0,0.0,0.0,0.0,0.0,0.0,0.0,0.0,0.0,0.0,0.0,0.0,0.0,0.0,0.0,0.0,0.0,0.0,0.0,0.0,0.0,0.0,0.0,0.0,0.0,0.0,0.0,0.0,0.0,0.0,0.0,0.0,0.0,0.0,0.0,0.0,0.0,0.0,0.0,0.0,0.0,0.0,0.0,0.0,0.0,0.0,-1.5237,-1.6043,-1.6036,-1.6519,-1.7462,-1.9472,-2.065,-2.0968,-2.1512,-2.1182,0.0,0.0,0.0,0.0,0.0,0.0,0.0,0.0,0.0,0.0,0.0,0.0,0.0,0.0,0.0,0.0,0.0,0.0,0.0,0.0,0.0,0.0,0.0,0.0,0.0,0.0,0.0,0.0,0.0,0.0,0.0,0.0,0.0,0.0,0.0,0.0,0.0,0.0,0.0,0.0,0.0,0.0,-2.0297,-2.1414,0.0,0.0,0.0,-2.3183,-2.2978,0.0,0.0,0.0,0.0,0.0,0.0,0.0,0.0,0.0,0.0,0.0,0.0,0.0,0.0,0.0,0.0,0.0,0.0,0.0,0.0,0.0,0.0,0.0,0.0,0.0,0.0,0.0,0.0,0.0,0.0,0.0,0.0,0.0,0.0,0.0,0.0,0.0,0.0,0.0,0.0,0.0,0.0,0.0,0.0,0.0,0.0,0.0,0.0,0.0,0.0,0.0,0.0,0.0,0.0,0.0,0.0,0.0,-1.6735,-1.714,-1.7567,-1.7919,-1.9858,-2.0947,-2.101,-2.0995,0.0,0.0,0.0,0.0,0.0,0.0,0.0,0.0,0.0,0.0,0.0,0.0,0.0,0.0,0.0,0.0,0.0,0.0,0.0,0.0,0.0,0.0,0.0,0.0,0.0,0.0,0.0,-1.327,0.0,0.0,0.0,0.0,0.0,0.0,0.0,0.0,0.0,0.0,0.0,0.0,0.0,0.0,-2.1428,-2.1945,-2.3113,-2.4337,0.0,0.0,-2.5243,-2.5335,-2.3602,-2.2356,0.0,0.0,0.0,0.0,0.0,0.0,0.0,0.0,0.0,0.0,0.0,0.0,0.0,0.0,0.0,0.0,0.0,0.0,0.0,0.0,0.0,0.0,0.0,0.0,0.0,0.0,0.0,0.0,0.0,0.0,0.0,0.0,0.0,0.0,0.0,0.0,0.0,0.0,0.0,0.0,0.0,0.0,0.0,0.0,0.0,0.0,0.0,0.0,0.0,0.0,0.0,0.0,0.0,0.0,0.0,-1.7371,-1.7635,-1.8456,-1.98,-1.9996,-2.0633,-2.1738,-2.1074,-2.0195,0.0,0.0,0.0,0.0,0.0,0.0,0.0,0.0,0.0,0.0,0.0,0.0,0.0,0.0,0.0,0.0,0.0,0.0,0.0,0.0,0.0,0.0,0.0,0.0,0.0,0.0,0.0,0.0,0.0,0.0,0.0,0.0,0.0,0.0,0.0,0.0,0.0,0.0,0.0,0.0,0.0,-2.4388,-2.4044,-2.5254,-2.6318,0.0,0.0,-2.6069,-2.4999,-2.4723,-2.419,-2.3299,0.0,0.0,0.0,0.0,0.0,0.0,0.0,0.0,0.0,0.0,0.0,0.0,0.0,0.0,0.0,0.0,0.0,0.0,0.0,0.0,0.0,0.0,0.0,0.0,0.0,0.0,0.0,0.0,0.0,0.0,0.0,0.0,0.0,0.0,0.0,0.0,0.0,0.0,0.0,0.0,0.0,0.0,0.0,0.0,0.0,0.0,0.0,0.0,0.0,0.0,0.0,0.0,0.0,-1.6705,-1.7204,-1.8338,-1.9194,-1.9769,-2.0699,-2.1224,-2.1484,-2.1152,-2.0322,0.0,0.0,0.0,0.0,0.0,0.0,0.0,0.0,0.0,0.0,0.0,0.0,0.0,0.0,0.0,0.0,0.0,0.0,0.0,0.0,0.0,0.0,0.0,0.0,0.0,0.0,0.0,0.0,-1.4911,-1.6487,-1.8109,0.0,0.0,0.0,0.0,0.0,0.0,0.0,0.0,0.0,0.0,-2.5486,-2.5596,-2.6665,0.0,0.0,-2.7731,-2.7464,-2.7341,-2.6485,-2.5724,-2.5316,-2.5071,0.0,0.0,0.0,0.0,0.0,0.0,0.0,0.0,0.0,0.0,0.0,0.0,0.0,0.0,0.0,0.0,0.0,0.0,0.0,0.0,0.0,0.0,0.0,0.0,0.0,0.0,0.0,0.0,0.0,0.0,0.0,0.0,0.0,0.0,0.0,0.0,0.0,0.0,0.0,0.0,0.0,0.0,0.0,0.0,0.0,0.0,0.0,0.0,0.0,0.0,0.0,0.0,-1.6945,-1.7477,-1.8979,-1.9728,-1.9928,-2.0986,-2.1348,-2.1045,-2.0908,-2.0146,0.0,0.0,0.0,0.0,0.0,0.0,0.0,0.0,0.0,0.0,0.0,0.0,0.0,0.0,0.0,0.0,0.0,0.0,0.0,0.0,0.0,0.0,0.0,0.0,0.0,0.0,0.0,0.0,-1.5766,-1.7737,-1.9389,0.0,0.0,0.0,0.0,0.0,0.0,0.0,0.0,0.0,0.0,-2.6634,-2.6907,-2.7947,-2.873,-2.9105,-2.8839,-2.8602,-2.8682,-2.7685,-2.6883,-2.6565,0.0,0.0,0.0,0.0,0.0,0.0,0.0,0.0,0.0,0.0,0.0,0.0,0.0,0.0,0.0,0.0,0.0,0.0,0.0,0.0,0.0,0.0,0.0,0.0,0.0,0.0,0.0,0.0,0.0,0.0,-1.5352,0.0,0.0,0.0,0.0,0.0,0.0,0.0,0.0,0.0,0.0,0.0,0.0,0.0,0.0,0.0,0.0,0.0,0.0,0.0,0.0,0.0,0.0,-1.7745,-1.8553,-1.9438,-2.008,-2.0566,-2.0596,-2.0615,-2.0586,-2.0176,-1.9541,-1.8582,0.0,0.0,0.0,0.0,0.0,0.0,0.0,0.0,0.0,0.0,0.0,0.0,0.0,0.0,0.0,0.0,0.0,0.0,0.0,0.0,0.0,0.0,0.0,0.0,0.0,0.0,-1.3655,-1.689,-1.9855,0.0,0.0,0.0,0.0,0.0,0.0,0.0,0.0,0.0,0.0,-2.7115,-2.8084,-2.8084,-2.9028,-2.9792,-2.9739,-2.9804,-2.9397,-2.8317,-2.8119,-2.7683,0.0,0.0,0.0,0.0,0.0,0.0,0.0,0.0,0.0,0.0,0.0,0.0,0.0,0.0,0.0,0.0,0.0,0.0,0.0,0.0,0.0,0.0,0.0,0.0,0.0,0.0,0.0,-1.5096,-1.5419,0.0,0.0,0.0,0.0,0.0,0.0,0.0,0.0,0.0,0.0,0.0,-1.7524,-1.8194,0.0,0.0,0.0,0.0,0.0,0.0,0.0,0.0,0.0,0.0,0.0,0.0,-1.7803,-1.8562,-1.9482,-2.0117,-2.0547,-2.0576,-2.0576,-2.0557,-2.043,-1.9805,-1.8601,0.0,0.0,0.0,0.0,0.0,0.0,0.0,0.0,0.0,0.0,0.0,0.0,0.0,0.0,0.0,0.0,0.0,0.0,0.0,0.0,0.0,0.0,0.0,0.0,0.0,-1.4987,0.0,0.0,0.0,0.0,0.0,0.0,0.0,0.0,0.0,0.0,0.0,-2.6546,-2.6886,-2.827,-2.9197,-2.9197,-3.0101,-3.0482,0.0,0.0,0.0,0.0,0.0,0.0,0.0,0.0,0.0,0.0,0.0,0.0,0.0,0.0,-2.8872,-2.7999,-2.8312,-2.9069,-3.0232,0.0,0.0,0.0,0.0,0.0,0.0,0.0,0.0,0.0,0.0,0.0,0.0,0.0,0.0,-1.6322,0.0,-1.5851,0.0,0.0,0.0,0.0,0.0,0.0,0.0,0.0,-1.799,-1.862,-1.8882,-1.9502,-1.9736,0.0,-1.916,-1.8682,0.0,0.0,0.0,0.0,0.0,0.0,0.0,0.0,-1.7793,-1.8613,-1.918,-1.9746,-2.0303,-2.0342,-2.041,-2.0557,-2.0283,-1.959,-1.8457,-1.748,-1.6938,0.0,0.0,0.0,0.0,0.0,0.0,0.0,0.0,0.0,0.0,0.0,0.0,0.0,0.0,0.0,0.0,0.0,0.0,0.0,0.0,0.0,0.0,0.0,-1.5946,0.0,0.0,0.0,0.0,0.0,0.0,0.0,0.0,0.0,-2.6262,-2.7297,-2.827,-2.9126,-3.0123,-3.0784,-3.0784,0.0,0.0,0.0,0.0,0.0,0.0,0.0,-3.0175,-2.9804,-2.9779,-2.9779,-2.9779,-2.9779,-2.9779,-2.9779,0.0,0.0,-2.9797,-3.0411,-3.1376,-3.2364,-3.2829,-3.2982,-3.2587,-3.3303,-3.3805,0.0,0.0,0.0,0.0,0.0,0.0,0.0,0.0,-1.7275,-1.7432,0.0,-1.6899,0.0,0.0,0.0,0.0,0.0,0.0,0.0,0.0,-2.0078,-2.0527,-2.0527,-2.0527,-2.0566,-2.0566,-2.0527,-2.0303,-1.9814,-1.8252,0.0,0.0,0.0,0.0,0.0,0.0,-1.7793,-1.8603,-1.8582,-1.8981,-1.9863,-1.9893,-2.0088,-2.0469,-1.9697,-1.8887,-1.8076,-1.7617,-1.7187,-1.6768,-1.7053,0.0,0.0,0.0,0.0,0.0,0.0,0.0,0.0,0.0,0.0,0.0,0.0,0.0,0.0,0.0,0.0,0.0,0.0,0.0,0.0,-1.5265,0.0,0.0,0.0,0.0,0.0,0.0,0.0,0.0,0.0,0.0,-2.7736,-2.846,-2.993,-3.2212,0.0,0.0,0.0,0.0,-3.2638,-3.2542,-3.2605,-3.2345,-3.1402,-3.1182,-3.0907,-2.9997,0.0,0.0,-2.9779,-2.9779,-2.9779,-2.9779,-2.9856,-3.0419,-3.2222,-3.3093,-3.409,-3.5115,-3.527,-3.5474,-3.5474,-3.524,-3.5365,-1.9121,0.0,0.0,0.0,0.0,-1.8163,-1.8213,-1.8056,-1.8555,-1.8398,-1.7822,-1.7695,0.0,0.0,0.0,0.0,0.0,0.0,-1.8135,-1.8838,-1.9394,-1.9814,-2.0107,-2.042,-2.0576,-2.0576,-2.0576,-2.0342,-1.9893,-1.9121,-1.8437,-1.7842,0.0,0.0,0.0,0.0,-1.7793,-1.8504,-1.8562,-1.8906,-1.9453,-1.9473,-1.9531,-1.9648,-1.9121,-1.8711,-1.8457,-1.7764,-1.7566,-1.7994,-1.7729,0.0,0.0,0.0,0.0,0.0,0.0,0.0,0.0,0.0,0.0,0.0,0.0,0.0,0.0,0.0,0.0,0.0,0.0,0.0,-1.5047,-1.6773,-1.8705,0.0,0.0,0.0,0.0,0.0,0.0,0.0,0.0,0.0,-3.1495,-3.1527,-3.1802,0.0,0.0,-3.2593,-3.2593,-3.3157,-3.335,-3.268,0.0,0.0,0.0,-3.1629,-3.1127,-3.0846,-3.0279,-2.9779,-2.9779,-2.9779,-2.9779,-2.9779,-3.0355,-3.1222,-3.2294,-3.2779,-3.3596,-3.5037,-3.5489,-3.5489,-3.5489,-3.5489,-3.5489,-1.9392,-1.9202,-1.9005,-1.8896,-1.8896,-1.8887,-1.8896,-1.8916,-1.918,-1.8994,-1.8496,-1.834,-1.7881,-1.7236,-1.7061,0.0,0.0,0.0,-1.8242,-1.8906,-1.917,-1.9512,-1.9912,-2.001,-2.0244,-2.0624,-2.0391,-2.0176,-1.9902,-1.9658,-1.9102,-1.8271,0.0,0.0,-1.7637,-1.7637,-1.7881,-1.8359,-1.8379,-1.8594,-1.9023,-1.9199,-1.9209,-1.9033,-1.8769,-1.8564,-1.8389,-1.79,-1.7816,-1.8248,-1.7887,-1.774,0.0,0.0,0.0,0.0,0.0,0.0,0.0,0.0,0.0,0.0,0.0,-1.8021,0.0,0.0,0.0,0.0,-1.5619,-1.6362,-1.7298,-1.8987,0.0,0.0,0.0,0.0,0.0,0.0,0.0,-3.0263,-3.1751,-3.2897,-3.3465,-3.3661,-3.3768,-3.3754,-3.3768,-3.3754,-3.3768,0.0,-3.4403,-3.385,-3.4211,-3.4143,-3.2833,-3.2167,-3.1548,-3.0771,-3.0216,-2.9792,-2.9779,-2.9779,-2.9779,-2.9844,-3.0291,-3.1027,-3.2365,-3.2593,-3.3171,-3.5067,-3.5489,-3.5489,-3.5489,-3.5489,-3.5489,-1.8877,-1.8894,-1.9024,-1.9219,-1.9346,-1.9336,-1.9336,-1.9336,-1.9375,-1.9355,-1.9258,-1.8867,-1.8437,-1.7988,-1.7607,0.0,-1.8027,-1.8408,-1.8779,-1.9189,-1.9219,-1.9453,-1.9844,-1.9473,-1.9717,-2.0508,-2.0107,-1.9883,-1.9805,-1.9834,-1.9434,-1.8594,-1.8203,-1.8008,-1.8008,-1.8008,-1.8008,-1.8008,-1.8008,-1.8193,-1.8514,-1.8975,-1.8994,-1.8594,-1.8584,-1.8398,-1.8037,-1.8008,-1.8008,-1.7998,-1.7637,-1.7531,-1.775,0.0,0.0,0.0,0.0,0.0,0.0,0.0,0.0,0.0,0.0,0.0,0.0,0.0,0.0,0.0,-1.8152,0.0,-2.0407,-2.1653,0.0,0.0,0.0,-2.6321,-2.8657,-2.9406,-3.0344,-3.1778,0.0,0.0,-3.4095,0.0,-3.5489,-3.5489,-3.5489,-3.5489,-3.5489,-3.5424,-3.5489,-3.5409,-3.5489,-3.4802,-3.3083,-3.2533,-3.1755,-3.019,-2.9779,-2.9779,-2.9779,-2.9779,-2.9779,-2.9779,-2.9779,-3.0419,-3.2249,-3.2566,-3.3213,-3.5133,-3.5489,-3.5489,-3.5489,-3.5489,-3.5489,-1.7747,-1.773,-1.7792,-1.8565,-1.9766,-1.9766,-1.9766,-1.9805,-2.0117,-1.9902,-1.9287,-1.918,-1.8721,-1.7998,-1.791,-1.791,-1.8018,-1.8115,-1.8213,-1.833,-1.8643,-1.9014,-1.9424,-1.9336,-1.9561,-2.0039,-1.9961,-1.957,-1.8913,-1.9277,-1.9004,-1.8193,-1.8057,-1.8008,-1.8008,-1.8008,-1.8008,-1.8008,-1.8008,-1.8057,-1.8154,-1.8262,-1.8271,-1.8164,-1.8164,-1.8115,-1.8018,-1.8008,-1.8008,-1.8008,-1.791,-1.7733,-1.7496,-1.7722,0.0,0.0,0.0,0.0,0.0,0.0,0.0,0.0,0.0,-1.9819,-1.8566,0.0,-1.9731,0.0,-2.0953,-2.1876,-2.2453,-2.3363,0.0,0.0,-2.7017,-2.8265,-3.0369,-3.1317,-3.2304,-3.336,-3.4455,-3.5133,-3.5133,-3.5359,-3.5489,-3.5489,-3.5489,-3.5489,-3.5489,-3.5489,-3.5489,-3.5489,-3.5489,-3.5082,-3.3796,-3.2403,-3.1136,-3.0023,-2.9779,-2.9779,-2.9779,-2.9779,-2.9779,-2.9779,-2.9779,-3.0482,-3.2222,-3.2555,-3.3277,-3.5008,-3.5489,-3.5489,-3.5489,-3.5489,-3.5489,-1.6601,-1.6601,-1.709,-1.786,-1.8779,-1.9254,-1.9813,-2.0205,-2.0254,-1.9902,-1.9258,-1.8887,-1.8457,-1.8018,-1.8008,-1.8008,-1.8008,-1.8008,-1.8008,-1.8027,-1.8252,-1.8584,-1.8975,-1.8809,-1.9043,-1.9619,-1.9443,-1.9102,-1.8672,-1.8877,-1.8652,-1.8018,-1.8008,-1.8008,-1.8008,-1.8008,-1.8008,-1.8008,-1.8008,-1.8008,-1.8008,-1.8008,-1.8008,-1.8008,-1.8008,-1.8008,-1.8008,-1.8008,-1.8045,-1.8191,-1.8238,-1.8036,-1.7594,-1.8173,-1.8364,0.0,0.0,0.0,0.0,0.0,0.0,0.0,0.0,0.0,0.0,0.0,-2.1357,0.0,-2.3073,0.0,-2.4763,-2.5573,-2.6673,-2.8035,-2.8937,-3.0129,-3.1688,-3.2664,-3.3602,-3.4543,-3.5133,-3.5489,-3.5489,-3.5489,-3.5489,-3.5489,-3.5489,-3.5489,-3.5489,-3.5489,-3.5489,-3.5489,-3.5489,-3.4949,-3.3577,-3.1823,-3.0419,-2.9934,-2.9779,-2.9779,-2.9779,-2.9779,-2.9716,-2.9478,-2.9694,-3.0377,-3.1582,-3.2148,-3.2858,-3.412,-3.4607,-3.4831,-3.537,-3.5489,-3.5459,-1.5538,-1.5621,-1.6527,-1.6911,-1.7114,-1.8072,-1.9191,-2.0294,-1.9944,-1.959,-1.915,-1.8408,-1.8057,-1.8018,-1.8066,-1.8066,-1.8008,-1.8008,-1.8008,-1.8008,-1.8008,-1.8232,-1.8543,-1.8213,-1.8428,-1.918,-1.8818,-1.8613,-1.8484,-1.8613,-1.8428,-1.8027,-1.8008,-1.8008,-1.8008,-1.8008,-1.8008,-1.8008,-1.8008,-1.8008,-1.8008,-1.8008,-1.8008,-1.8008,-1.8008,-1.7988,-1.793,-1.7988,-1.8138,-1.8338,-1.8423,-1.8268,-1.8051,-1.8763,-1.8762,0.0,-1.9079,0.0,0.0,0.0,0.0,0.0,0.0,0.0,0.0,-2.2538,-2.2775,-2.3838,-2.5079,-2.614,-2.7143,-2.7897,-2.8676,-2.9702,-3.0633,-3.1523,-3.2522,-3.3449,-3.4394,-3.5374,-3.5489,-3.5489,-3.5489,-3.5489,-3.5489,-3.5489,-3.5489,-3.5444,-3.537,-3.5429,-3.5489,-3.5489,-3.5258,-3.4278,-3.2664,-3.0904,-2.9718,-2.9654,-2.9541,-2.9591,-2.9503,-2.968,-2.9567,-2.9051,-2.9602,-3.0401,-3.0746,-3.1505,-3.2376,-3.3389,-3.3619,-3.3948,-3.4876,-3.5091,-3.5066,-1.4412,-1.4412,-1.4573,-1.5076,-1.571,-1.595,-1.7054,-1.876,-1.9209,-1.916,-1.875,-1.8584,-1.834,-1.8047,-1.8369,-1.834,-1.8008,-1.8008,-1.8008,-1.8008,-1.8008,-1.8223,-1.8603,-1.8213,-1.8262,-1.873,-1.8682,-1.8457,-1.8135,-1.8397,-1.8428,-1.8018,-1.8008,-1.8008,-1.8008,0.0,0.0,0.0,-1.8008,-1.8008,-1.8008,-1.8008,-1.8008,-1.8008,-1.8008,0.0,-1.7529,-1.7832,-1.788,-1.7609,-1.7895,0.0,0.0,0.0,0.0,0.0,0.0,0.0,0.0,0.0,0.0,0.0,-2.4265,-2.3977,-2.3803,-2.5252,-2.6667,-2.773,-2.8533,-2.8991,-2.9222,-2.9397,-2.9534,-2.9779,-3.062,-3.1609,-3.2522,-3.3463,-3.4394,-3.5359,-3.5489,-3.5489,-3.5474,-3.5489,-3.5489,-3.5415,-3.5489,-3.528,-3.4741,-3.5115,-3.5474,-3.5439,-3.4171,-3.2814,-3.1648,-3.0067,-2.9089,-2.9051,-2.8699,-2.8473,-2.8585,-2.9087,-2.9225,-2.852,-2.9521,-3.0596,-3.073,-3.1476,-3.2338,-3.3332,-3.3469,-3.3574,-3.3829,-3.3868,-3.3868,-1.4088,0.0,-1.3928,-1.4097,0.0,-1.4646,-1.5642,-1.7,-1.7862,-1.8295,-1.833,-1.832,-1.8203,-1.8018,-1.8232,-1.8213,-1.8008,-1.8008,-1.8008,-1.8008,-1.8008,-1.8125,-1.8311,-1.8105,-1.8125,-1.832,-1.833,-1.8213,-1.8027,-1.8223,-1.8223,-1.8008,-1.8008,-1.8008,-1.8008,-1.8008,-1.8008,-1.8008,-1.8008,-1.8008,-1.8008,-1.8008,-1.8008,-1.8008,0.0,0.0,0.0,0.0,0.0,0.0,0.0,0.0,0.0,0.0,0.0,-2.1449,-2.2223,-2.2849,-2.3138,-2.3653,-2.433,-2.5146,-2.5473,-2.5636,-2.5611,-2.6892,-2.816,-2.9239,-2.9628,-2.9779,-2.9779,-2.9779,-2.9779,-2.9856,-3.1044,-3.2092,-3.2678,-3.3891,-3.492,-3.5359,-3.5489,-3.54,-3.504,-3.4996,-3.4846,-3.4577,-3.4517,-3.4256,-3.3657,-3.4292,-3.4778,-3.398,-3.2277,-3.0922,-3.0392,-2.9323,-2.8473,-2.8495,-2.8622,-2.8723,-2.871,-2.9444,-2.9742,-2.9188,-2.9983,-3.0788,-3.065,-3.1214,-3.1941,-3.2393,-3.2527,-3.2527,-3.2587,-3.3028,-3.3387,-1.4062,-1.3988,-1.3665,-1.3499,-1.344,-1.3789,-1.4567,-1.5601,0.0,0.0,0.0,-1.8086,-1.8076,-1.8018,-1.8086,-1.8076,-1.8008,-1.8008,-1.8008,-1.8008,-1.8008,-1.8008,-1.8008,-1.8008,-1.7969,-1.79,-1.79,-1.7852,-1.7793,-1.7783,-1.7783,-1.7783,-1.7793,-1.7773,-1.7783,-1.7783,-1.7783,-1.7793,-1.793,-1.8008,-1.8008,-1.8008,-1.8008,-1.8008,-1.8008,-1.7969,-1.79,-1.7969,-1.8451,-1.9334,-1.9555,-2.0014,-2.0897,-2.1775,-2.2221,-2.2175,-2.3195,-2.3891,-2.4004,-2.4506,-2.5096,-2.5711,-2.6189,-2.6691,-2.7243,-2.7695,-2.8423,-2.9553,-2.9641,-2.9666,-2.9779,-2.9779,-2.9779,-2.9792,-3.1476,-3.2593,-3.2735,-3.4211,-3.5215,-3.5325,-3.516,-3.4951,-3.4382,-3.4307,-3.4128,-3.3649,-3.3404,-3.2886,-3.2211,-3.2931,-3.3244,-3.1886,-3.0623,-2.9521,-2.9149,-2.8589,-2.8015,-2.8221,-2.869,-2.9148,-2.9424,-3.0038,-3.0262,-2.9613,-3.0432,-3.0764,-3.0358,-3.0762,-3.123,-3.1198,-3.1153,-3.118,-3.1243,-3.2005,-3.2555,-1.3941,-1.3701,-1.3661,-1.334,-1.2943,-1.3008,-1.3851,-1.538,-1.7093,-1.792,-1.8037,-1.8398,-1.835,-1.8037,-1.8389,-1.8359,-1.8018,-1.8008,-1.8008,0.0,-1.8008,-1.8008,-1.8008,-1.8008,-1.7822,-1.749,-1.7471,-1.7275,-1.6943,-1.685,-1.684,-1.6924,-1.6914,-1.686,-1.6914,-1.6914,-1.6914,-1.6924,-1.7637,-1.8008,-1.8008,-1.8008,-1.8008,-1.8008,-1.8008,-1.7832,-1.749,-1.7822,-1.7947,-1.7785,-1.8809,-1.9717,-2.0617,-2.151,-2.2237,-2.2871,-2.308,-2.3477,-2.3966,-2.4519,-2.5259,-2.6226,-2.6427,-2.676,-2.7231,-2.7356,-2.7858,-2.8913,-2.9051,-2.9264,-2.9704,-2.9741,-2.9716,-2.9883,-3.1462,-3.2579,-3.2524,-3.3738,-3.4558,-3.4558,-3.4113,-3.3799,-3.3602,-3.3557,-3.3513,-3.3362,-3.2489,-3.1846,-3.0755,-3.0998,-3.0982,-3.0132,-2.9682,-2.9183,-2.8357,-2.7835,-2.7672,-2.8373,-2.809,-2.8226,-2.8879,-2.9652,-2.9946,-2.9302,-3.0334,-3.0746,-2.9761,-3.0103,-3.0357,-3.0142,-3.0018,-2.9983,-3.0013,-3.0205,-3.0372,-1.3621,-1.3594,-1.3293,-1.2999,-1.2808,-1.3166,-1.4026,-1.5305,-1.6645,-1.751,-1.8018,-1.8213,-1.8193,-1.8037,-1.8213,-1.8193,-1.8008,-1.8008,-1.8008,-1.8008,-1.8008,-1.8008,-1.7988,-1.7773,-1.7568,-1.7373,-1.7139,-1.6924,-1.6748,-1.6665,-1.6665,-1.6665,-1.6665,-1.6665,-1.6665,-1.6665,-1.6665,-1.6738,-1.7344,-1.7666,-1.7686,-1.7891,-1.8008,-1.8008,-1.8008,-1.792,-1.7734,-1.79,-1.8372,-1.907,-1.9706,-2.0579,-2.1865,-2.231,-2.2702,-2.309,-2.3427,-2.3715,-2.3979,-2.4782,-2.546,-2.595,-2.6289,-2.6634,-2.6873,-2.7105,-2.762,-2.8386,-2.8486,-2.8586,-2.885,-2.8875,-2.8875,-2.8875,-3.0112,-3.0872,-3.1113,-3.2298,-3.326,-3.3294,-3.3416,-3.3151,-3.2367,-3.2261,-3.1839,-3.1219,-3.0283,-2.9498,-2.8781,-2.8585,-2.8585,-2.8504,-2.8197,-2.7597,-2.6904,-2.6918,-2.6809,-2.6618,-2.7035,-2.7493,-2.8022,-2.8757,-2.9229,-2.9346,-3.0013,-3.0159,-2.95,-2.9753,-2.9824,-2.9735,-2.9597,-2.9604,-2.9579,-2.9346,-2.9286,-1.3293,-1.3394,-1.2939,-1.2782,-1.2777,-1.3418,-1.4171,-1.495,-1.607,-1.6991,-1.7647,-1.7872,-1.8008,-1.8008,-1.8008,-1.8008,-1.8008,-1.8008,-1.8008,-1.8008,-1.8008,-1.7969,-1.7842,-1.7519,-1.7285,-1.707,-1.6738,-1.6533,-1.6445,-1.6436,-1.6373,-1.6436,-1.6436,-1.6373,-1.6373,-1.6436,-1.6373,-1.6465,-1.6865,-1.7129,-1.7246,-1.7559,-1.7831,-1.8111,-1.8121,-1.817,-1.8259,-1.8269,-1.8911,-2.0204,-2.0451,-2.129,-2.2689,-2.3005,-2.3125,-2.3175,-2.3552,-2.3866,-2.4029,-2.4757,-2.5335,-2.5586,-2.6013,-2.6382,-2.6546,-2.6841,-2.7318,-2.7808,-2.7921,-2.7971,-2.8134,-2.8147,-2.8109,-2.817,-2.8925,-2.9588,-2.9661,-3.0821,-3.1732,-3.1797,-3.2155,-3.1944,-3.1013,-3.063,-2.9978,-2.8601,-2.7728,-2.734,-2.7026,-2.6467,-2.646,-2.6739,-2.6578,-2.6257,-2.5768,-2.5923,-2.6076,-2.5444,-2.6519,-2.7335,-2.7834,-2.8397,-2.8791,-2.9451,-2.96,-2.9575,-2.9422,-2.9366,-2.9252,-2.9082,-2.9003,-2.9079,-2.8981,-2.8682,-2.8539,-1.306,-1.2839,-1.2842,-1.2585,-1.2506,-1.3324,-1.3745,-1.4099,-1.579,-1.6636,-1.6922,-1.7638,-1.8008,-1.8008,-1.8008,-1.8008,-1.8008,-1.8008,-1.8008,-1.8008,-1.8008,-1.7822,-1.7471,-1.7402,-1.6963,-1.636,-1.6162,-1.5947,-1.5625,-1.5586,-1.5547,-1.5527,-1.5527,-1.5566,-1.5557,-1.5557,-1.5547,-1.5547,-1.5957,-1.6387,-1.6768,-1.6763,-1.7396,-1.8531,-1.8541,-1.8739,-1.9038,-1.9166,-1.9233,-1.9431,-2.0171,-2.1026,-2.199,-2.2689,-2.3125,-2.3125,-2.3201,-2.3439,-2.3929,-2.4092,-2.4582,-2.5473,-2.5624,-2.59,-2.6445,-2.6559,-2.6766,-2.7231,-2.7356,-2.7557,-2.8021,-2.8059,-2.7984,-2.7959,-2.8808,-2.9535,-2.9459,-2.9915,-3.0179,-3.0179,-2.9939,-2.9317,-2.9233,-2.8768,-2.7906,-2.6729,-2.644,-2.6074,-2.5524,-2.5277,-2.5069,-2.5262,-2.5328,-2.5661,-2.5639,-2.5307,-2.5713,-2.7131,-2.7356,-2.764,-2.8349,-2.8975,-2.948,-2.9068,-2.9415,-2.9229,-2.8847,-2.868,-2.8472,-2.8177,-2.7991,-2.7799,-2.7805,-2.7679,-2.7664,-1.2705,-1.2802,-1.2559,-1.2412,-1.2378,-1.2739,-1.352,-1.4673,-1.5438,-1.6358,-1.7432,-1.7862,-1.8008,-1.8008,-1.8008,-1.8008,-1.8008,-1.8008,-1.8008,-1.8008,-1.8008,-1.7783,-1.7393,-1.7109,-1.666,-1.6135,-1.5801,-1.5586,-1.5439,-1.542,-1.542,-1.542,-1.542,-1.542,-1.542,-1.542,-1.542,-1.542,-1.5586,-1.5771,-1.5996,-1.6403,-1.6924,-1.7443,-1.7905,-1.8218,-1.8459,-1.8785,-1.9273,-1.9767,-2.0194,-2.0889,-2.2077,-2.2471,-2.2799,-2.3088,-2.3125,-2.3238,-2.3477,-2.3803,-2.4192,-2.4632,-2.4958,-2.5372,-2.5887,-2.595,-2.6189,-2.6678,-2.6791,-2.6904,-2.7118,-2.713,-2.713,-2.7201,-2.7525,-2.7734,-2.7708,-2.8305,-2.8662,-2.8621,-2.8584,-2.8291,-2.7705,-2.6847,-2.5996,-2.5383,-2.5345,-2.5129,-2.4808,-2.4833,-2.4643,-2.4455,-2.4518,-2.4672,-2.4803,-2.4952,-2.5296,-2.5752,-2.6078,-2.6638,-2.7494,-2.7788,-2.788,-2.836,-2.8397,-2.8344,-2.8051,-2.8041,-2.7859,-2.75,-2.7125,-2.6881,-2.6494,-2.6449,-2.653,-1.2425,-1.2579,-1.2385,-1.2305,-1.2305,-1.2305,-1.3084,-1.445,-1.495,-1.6018,-1.7226,-1.7725,-1.8008,-1.8008,-1.8008,-1.8008,-1.8008,-1.8008,-1.8008,-1.7988,-1.79,-1.7617,-1.7197,-1.6758,-1.6318,-1.5898,-1.5576,-1.542,-1.542,-1.542,-1.542,-1.542,-1.542,-1.542,-1.542,-1.542,-1.5526,-1.569,-1.569,-1.5806,-1.606,-1.6617,-1.7022,-1.7195,-1.7735,-1.802,-1.8148,-1.8851,-1.9445,-1.9878,-2.0111,-2.0824,-2.2201,-2.2322,-2.256,-2.299,-2.3125,-2.3125,-2.3078,-2.3527,-2.3828,-2.4004,-2.4381,-2.4808,-2.5259,-2.5385,-2.5573,-2.5925,-2.6138,-2.6264,-2.6508,-2.6521,-2.6521,-2.6521,-2.6521,-2.6521,-2.6615,-2.704,-2.7298,-2.717,-2.7271,-2.7135,-2.6177,-2.5256,-2.4582,-2.4394,-2.4318,-2.4368,-2.4368,-2.4305,-2.4167,-2.3841,-2.3766,-2.3849,-2.403,-2.4219,-2.4433,-2.4758,-2.5104,-2.5467,-2.6208,-2.6361,-2.6483,-2.7324,-2.7151,-2.7055,-2.692,-2.6995,-2.71,-2.6991,-2.6649,-2.6174,-2.586,-2.5652,-2.5816,-1.2311,-1.2331,-1.2311,-1.2305,-1.2305,-1.2305,-1.2372,-1.2799,-1.4378,-1.5242,-1.5728,-1.7226,-1.8008,-1.8008,-1.8008,-1.8008,-1.8008,-1.7988,-1.7988,-1.7969,-1.7588,-1.7178,-1.6738,-1.6309,-1.5879,-1.5518,-1.5449,-1.542,-1.542,-1.542,-1.542,-1.542,-1.542,-1.542,-1.541,-1.5468,-1.5748,-1.6322,-1.6436,-1.6754,-1.7368,-1.7479,-1.7812,-1.8269,-1.8428,-1.8608,-1.8988,-1.9738,-1.9843,-1.9208,-1.9796,-2.0776,-2.2093,-2.2284,-2.2523,-2.294,-2.304,-2.3113,-2.31,-2.3115,-2.3414,-2.3866,-2.3991,-2.4268,-2.4782,-2.4845,-2.4908,-2.4946,-2.541,-2.5837,-2.6332,-2.6458,-2.6521,-2.6521,-2.6521,-2.6521,-2.6496,-2.6501,-2.6244,-2.5895,-2.5841,-2.5435,-2.4418,-2.4117,-2.3816,-2.3477,-2.3215,-2.324,-2.3376,-2.324,-2.3165,-2.3213,-2.3223,-2.3412,-2.3987,-2.3903,-2.408,-2.4436,-2.4583,-2.4789,-2.5558,-2.6104,-2.6223,-2.6277,-2.6183,-2.6006,-2.5779,-2.5719,-2.5841,-2.5839,-2.5801,-2.55,-2.5146,-2.5453,-2.5497,-1.2305,-1.2305,-1.2305,-1.2305,-1.2305,-1.2305,-1.2666,-1.3244,-1.3954,-1.495,-1.6079,-1.6853,-1.7432,-1.8008,-1.8008,-1.8008,-1.7988,-1.7734,-1.7754,-1.79,-1.7295,-1.6885,-1.6709,-1.6269,-1.584,-1.5469,-1.542,-1.542,-1.542,-1.542,-1.542,-1.542,-1.542,-1.542,-1.5468,-1.5864,-1.6265,-1.6549,-1.6922,-1.7357,-1.7578,-1.7578,-1.7954,-1.8542,-1.862,-1.8701,-1.8821,-1.957,-1.9841,-1.9558,-1.9407,-1.9867,-2.1094,-2.1594,-2.1857,-2.2096,-2.241,-2.2611,-2.2648,-2.2949,-2.3201,-2.3414,-2.3439,-2.3703,-2.4155,-2.4305,-2.4431,-2.4745,-2.4958,-2.5234,-2.5485,-2.6025,-2.6521,-2.6521,-2.6508,-2.6345,-2.6013,-2.59,-2.5699,-2.5184,-2.4808,-2.4255,-2.3728,-2.3439,-2.3364,-2.3188,-2.3125,-2.3113,-2.305,-2.2849,-2.2611,-2.2611,-2.2598,-2.2569,-2.2419,-2.2976,-2.3369,-2.3838,-2.415,-2.4457,-2.5062,-2.5456,-2.5585,-2.5747,-2.5543,-2.5394,-2.5304,-2.5319,-2.5289,-2.5001,-2.4953,-2.4789,-2.4388,-2.4597,-2.4492,-1.2305,-1.2305,-1.2305,-1.2305,-1.2305,-1.2305,-1.2666,-1.331,-1.3954,-1.4942,-1.607,-1.6784,-1.7432,-1.794,-1.8008,-1.8008,-1.7959,-1.7578,-1.7539,-1.7715,-1.6914,-1.6523,-1.6445,-1.6064,-1.5703,-1.5449,-1.542,-1.542,-1.542,-1.542,-1.542,-1.542,-1.542,-1.542,-1.5468,-1.5921,-1.6312,-1.6821,-1.7368,-1.7797,-1.8178,-1.8058,-1.8274,-1.8874,-1.8821,-1.8727,-1.8715,-1.9202,-1.9475,-1.9371,-1.898,-1.9286,-2.0573,-2.1192,-2.1481,-2.1531,-2.1832,-2.2046,-2.2108,-2.256,-2.2862,-2.2827,-2.299,-2.3326,-2.369,-2.3715,-2.3916,-2.4205,-2.4494,-2.4556,-2.472,-2.5385,-2.5925,-2.5925,-2.5937,-2.5787,-2.541,-2.5347,-2.5096,-2.4619,-2.4079,-2.359,-2.3178,-2.3163,-2.309,-2.3125,-2.294,-2.2815,-2.2799,-2.241,-2.2026,-2.2076,-2.2038,-2.1918,-2.185,-2.2201,-2.2397,-2.2799,-2.3204,-2.3705,-2.4291,-2.4641,-2.4938,-2.5136,-2.5138,-2.503,-2.4965,-2.4961,-2.4741,-2.4387,-2.4268,-2.4134,-2.3895,-2.3729,-2.3806,-1.2305,-1.2305,-1.2305,-1.2305,-1.2305,-1.2305,-1.2298,-1.2659,-1.4243,-1.5092,-1.5587,-1.7088,-1.7794,-1.8008,-1.8008,-1.7998,-1.7871,-1.75,-1.7353,-1.7353,-1.6484,-1.6094,-1.6094,-1.5693,-1.5478,-1.542,-1.542,-1.542,-1.542,-1.542,-1.542,-1.542,-1.542,-1.542,-1.542,-1.5642,-1.6312,-1.7291,-1.7688,-1.8394,-1.9527,-1.9044,-1.9044,-1.9592,-1.9097,-1.8768,-1.878,-1.8821,-1.8886,-1.8874,-1.8768,-1.9298,-2.0391,-2.1066,-2.1405,-2.1343,-2.1443,-2.1481,-2.1531,-2.1995,-2.2309,-2.2347,-2.2702,-2.2987,-2.31,-2.3078,-2.3128,-2.3315,-2.3715,-2.3991,-2.4067,-2.4481,-2.487,-2.4858,-2.5021,-2.4983,-2.4845,-2.4795,-2.4607,-2.4054,-2.354,-2.3175,-2.3053,-2.2977,-2.2987,-2.2836,-2.2573,-2.2297,-2.2259,-2.1933,-2.1575,-2.1524,-2.1606,-2.1622,-2.1543,-2.1531,-2.1487,-2.1597,-2.2011,-2.2445,-2.3301,-2.3807,-2.4139,-2.4328,-2.4357,-2.4234,-2.4219,-2.423,-2.4111,-2.3849,-2.3729,-2.3759,-2.367,-2.3595,-2.3595,-1.2305,-1.2305,-1.2305,-1.2305,-1.2305,-1.2305,-1.2305,-1.2452,-1.3665,-1.453,-1.5376,-1.6498,-1.7423,-1.793,-1.8008,-1.7842,-1.7549,-1.7148,-1.709,-1.7129,-1.6162,-1.5781,-1.5928,-1.5615,-1.542,-1.542,-1.542,-1.542,-1.542,-1.542,-1.542,-1.542,-1.542,-1.542,-1.5526,-1.6348,-1.7235,-1.7622,-1.8608,-1.9371,-1.9747,-1.9579,-1.9579,-1.9747,-1.9592,-1.9475,-1.9475,-1.9475,-1.9475,-1.9423,-1.8992,-1.8917,-1.9364,-1.9949,-2.0326,-2.0363,-2.0727,-2.0983,-2.0991,-2.1418,-2.1744,-2.1782,-2.192,-2.2184,-2.2498,-2.2573,-2.2736,-2.2977,-2.3314,-2.3401,-2.3378,-2.354,-2.3991,-2.4745,-2.482,-2.4607,-2.4268,-2.3941,-2.3627,-2.3452,-2.3238,-2.2987,-2.2673,-2.2585,-2.2435,-2.2133,-2.1882,-2.1744,-2.1713,-2.1584,-2.1358,-2.1049,-2.1224,-2.126,-2.1023,-2.1046,-2.1283,-2.1432,-2.1695,-2.2007,-2.2651,-2.3152,-2.3433,-2.3585,-2.3568,-2.3565,-2.355,-2.3595,-2.3595,-2.3595,-2.364,-2.364,-2.361,-2.3595,-2.3595,-1.2305,-1.2305,-1.2305,-1.2305,-1.2305,-1.2305,-1.2305,-1.2425,-1.3179,-1.4049,-1.501,-1.5839,-1.6682,-1.7397,-1.7539,-1.7393,-1.71,-1.6689,-1.6631,-1.6738,-1.5928,-1.5586,-1.5781,-1.5566,-1.542,-1.542,-1.542,-1.542,-1.542,-1.542,-1.542,-1.542,-1.5642,-1.5806,-1.5921,-1.6968,-1.7688,-1.8124,-1.8874,-1.9527,-1.9695,-1.954,-1.9527,-1.9695,-1.9527,-1.9411,-1.9411,-1.9423,-1.9527,-1.9683,-1.9319,-1.915,-1.915,-1.954,-1.9798,-1.9874,-2.0112,-2.0351,-2.0401,-2.0865,-2.1192,-2.1204,-2.1368,-2.1631,-2.1945,-2.2008,-2.2259,-2.2711,-2.2836,-2.2924,-2.304,-2.3138,-2.3428,-2.4092,-2.4155,-2.4042,-2.3665,-2.3364,-2.3175,-2.3125,-2.3187,-2.2896,-2.2468,-2.2344,-2.2122,-2.1655,-2.1317,-2.1179,-2.1176,-2.0998,-2.0741,-2.0536,-2.0564,-2.0502,-2.037,-2.0601,-2.1013,-2.1329,-2.1677,-2.2055,-2.2555,-2.2867,-2.3141,-2.3127,-2.3121,-2.3121,-2.3106,-2.3447,-2.3595,-2.3595,-2.3475,-2.3595,-2.3595,-2.3595,-2.3595,-1.2291,-1.2278,-1.2278,-1.2238,-1.2211,-1.2204,-1.2184,-1.2324,-1.3082,-1.3846,-1.4519,-1.5441,-1.6066,-1.6641,-1.6875,-1.6816,-1.6631,-1.6328,-1.6094,-1.5996,-1.5596,-1.5459,-1.5469,-1.5439,-1.542,-1.542,-1.542,-1.542,-1.542,-1.542,-1.542,-1.5468,-1.5921,-1.6379,-1.6425,-1.7124,-1.7852,-1.8221,-1.8661,-1.9202,-1.9527,-1.9097,-1.8939,-1.9527,-1.9032,-1.878,-1.8821,-1.8867,-1.9064,-1.9581,-1.9467,-1.9455,-1.9684,-1.9773,-1.9798,-1.9798,-1.9811,-1.9861,-1.9936,-2.0326,-2.0668,-2.0652,-2.0978,-2.143,-2.1418,-2.1468,-2.1681,-2.2184,-2.2272,-2.2447,-2.2824,-2.2899,-2.2915,-2.2965,-2.309,-2.3078,-2.304,-2.2977,-2.2827,-2.2896,-2.3071,-2.2911,-2.2153,-2.2091,-2.1873,-2.1411,-2.0974,-2.0879,-2.0845,-2.0682,-2.0178,-2.0178,-2.0487,-2.0604,-2.0704,-2.0555,-2.0954,-2.1403,-2.1671,-2.1967,-2.2417,-2.276,-2.2688,-2.2681,-2.2644,-2.2631,-2.2718,-2.2939,-2.3116,-2.3041,-2.3131,-2.343,-2.3385,-2.3176,-2.3118,-1.2178,-1.1991,-1.1984,-1.1857,-1.1677,-1.1657,-1.1663,-1.1859,-1.321,-1.383,-1.4454,-1.579,-1.6344,-1.6655,-1.6699,-1.6562,-1.626,-1.6174,-1.585,-1.5596,-1.5478,-1.542,-1.542,-1.542,-1.542,-1.542,-1.542,-1.542,-1.542,-1.542,-1.542,-1.542,-1.5642,-1.5758,-1.5853,-1.6968,-1.7313,-1.7413,-1.8809,-1.8967,-1.8335,-1.8614,-1.8501,-1.8178,-1.8519,-1.8626,-1.872,-1.8848,-1.8692,-1.8401,-1.8515,-1.8794,-1.9208,-1.956,-1.9748,-1.9748,-1.9786,-1.9798,-1.9836,-1.9949,-2.0037,-2.0024,-2.025,-2.0439,-2.0853,-2.0891,-2.1154,-2.1568,-2.1707,-2.1769,-2.1907,-2.197,-2.1958,-2.197,-2.2272,-2.2498,-2.2439,-2.2147,-2.1935,-2.1933,-2.199,-2.1794,-2.1403,-2.1208,-2.0996,-2.056,-2.0513,-2.0642,-2.059,-2.1099,-2.09,-2.0944,-2.1166,-2.1178,-2.1103,-2.0891,-2.0993,-2.1419,-2.1685,-2.1758,-2.2308,-2.2801,-2.2497,-2.2118,-2.1973,-2.1958,-2.1983,-2.2084,-2.2203,-2.2484,-2.2413,-2.2503,-2.2323,-2.2143,-2.2196,-1.183,-1.1683,-1.1683,-1.1583,-1.1436,-1.143,-1.143,-1.1533,-1.2343,-1.3207,-1.3891,-1.471,-1.5538,-1.6111,-1.6162,-1.6055,-1.582,-1.5791,-1.5654,-1.5469,-1.542,-1.542,-1.542,-1.542,-1.542,-1.542,-1.542,-1.542,-1.542,-1.542,-1.542,-1.5468,-1.569,-1.5864,-1.5979,-1.6968,-1.7444,-1.7353,-1.8382,-1.8478,-1.7618,-1.8124,-1.8073,-1.7751,-1.8124,-1.8391,-1.8103,-1.7661,-1.7627,-1.8151,-1.8301,-1.8314,-1.8634,-1.9183,-1.9459,-1.9484,-1.966,-1.9798,-1.9798,-1.9798,-1.9798,-1.9798,-1.9798,-1.9962,-2.0225,-2.0313,-2.0539,-2.1096,-2.1142,-2.1267,-2.1443,-2.1481,-2.1481,-2.1543,-2.1581,-2.1732,-2.192,-2.1706,-2.1531,-2.1518,-2.1479,-2.1302,-2.0797,-2.0729,-2.0423,-2.0079,-2.0156,-2.0105,-2.0075,-2.0982,-2.143,-2.1091,-2.1029,-2.0927,-2.0932,-2.0826,-2.0869,-2.128,-2.1376,-2.1498,-2.1798,-2.2342,-2.1864,-2.1401,-2.1326,-2.1281,-2.1306,-2.1449,-2.1819,-2.1924,-2.1719,-2.1665,-2.161,-2.141,-2.1451,-1.141,-1.1383,-1.1383,-1.1363,-1.1316,-1.1329,-1.1276,-1.1269,-1.1366,-1.2027,-1.3052,-1.3157,-1.421,-1.5284,-1.5458,-1.5449,-1.5439,-1.5488,-1.5391,-1.5322,-1.5283,-1.5254,-1.5146,-1.5342,-1.54,-1.542,-1.542,-1.5361,-1.5303,-1.5303,-1.5273,-1.5223,-1.5792,-1.6079,-1.5966,-1.6786,-1.7314,-1.7144,-1.7489,-1.744,-1.7082,-1.742,-1.7494,-1.7223,-1.7678,-1.7861,-1.7278,-1.6572,-1.6644,-1.8745,-1.8319,-1.7999,-1.8131,-1.8643,-1.8907,-1.8933,-1.9258,-1.9484,-1.9572,-1.9484,-1.956,-1.951,-1.9522,-1.9698,-1.9685,-1.966,-1.9823,-2.0514,-2.058,-2.0665,-2.1054,-2.123,-2.1167,-2.1066,-2.0828,-2.0878,-2.1167,-2.1305,-2.1305,-2.1348,-2.1339,-2.1133,-2.0861,-2.063,-2.0434,-1.9725,-1.9837,-2.0109,-2.0159,-2.068,-2.0681,-2.0143,-2.0191,-2.0401,-2.0536,-2.0732,-2.0852,-2.1094,-2.102,-2.1015,-2.102,-2.1212,-2.0899,-2.0631,-2.0609,-2.0617,-2.0602,-2.088,-2.1272,-2.1233,-2.097,-2.1153,-2.1367,-2.1028,-2.0923,-1.1289,-1.1089,-1.1082,-1.0955,-1.0762,-1.0813,-1.0755,-1.0819,-1.1368,-1.1781,-1.2352,-1.339,-1.4094,-1.4569,-1.5118,-1.542,-1.541,-1.5371,-1.5254,-1.4932,-1.4922,-1.4707,-1.4658,-1.5029,-1.5371,-1.5361,-1.54,-1.5225,-1.5,-1.4893,-1.4746,-1.4482,-1.4696,-1.4631,-1.4834,-1.5456,-1.5416,-1.5248,-1.6067,-1.6328,-1.5941,-1.6287,-1.6584,-1.6375,-1.6977,-1.7545,-1.783,-1.7316,-1.7214,-1.743,-1.722,-1.7146,-1.7547,-1.8078,-1.8355,-1.843,-1.8493,-1.8593,-1.8568,-1.8643,-1.8568,-1.8656,-1.8706,-1.8731,-1.9133,-1.8819,-1.9083,-1.9648,-1.9648,-1.9748,-2.0137,-2.0188,-2.0188,-2.015,-2.0075,-2.0037,-2.015,-2.0188,-2.0275,-2.0253,-2.0256,-2.0117,-2.0039,-1.9964,-1.975,-1.9384,-1.962,-2.0134,-2.0261,-2.0382,-2.006,-1.9539,-2.0046,-2.0356,-2.0284,-2.0427,-2.048,-2.0624,-2.0587,-2.0528,-2.0535,-2.0542,-2.0378,-2.0161,-1.9929,-1.9959,-2.0124,-2.0049,-2.0407,-2.028,-2.0243,-2.0415,-2.0535,-2.0363,-2.0408,-1.0929,-1.0795,-1.0795,-1.0766,-1.0631,-1.0618,-1.0618,-1.0681,-1.1045,-1.1655,-1.2389,-1.3304,-1.4025,-1.4746,-1.5177,-1.542,-1.5352,-1.5186,-1.4883,-1.4561,-1.4482,-1.4355,-1.4194,-1.4476,-1.4814,-1.4814,-1.4795,-1.4658,-1.4521,-1.4463,-1.4375,-1.4107,-1.4068,-1.4189,-1.4087,-1.4506,-1.4582,-1.4512,-1.497,-1.5246,-1.505,-1.5251,-1.5674,-1.5795,-1.6221,-1.6723,-1.7247,-1.7149,-1.6986,-1.6885,-1.6638,-1.6581,-1.6973,-1.7501,-1.779,-1.784,-1.8103,-1.8179,-1.8204,-1.8204,-1.8229,-1.8179,-1.8191,-1.8355,-1.8543,-1.8342,-1.8455,-1.8894,-1.9058,-1.9121,-1.9397,-1.9447,-1.9371,-1.9158,-1.9296,-1.9422,-1.9472,-1.9635,-1.9798,-1.9748,-1.9623,-1.9497,-1.9422,-1.9334,-1.9291,-1.9028,-1.9167,-1.9546,-1.9371,-1.9459,-1.9556,-1.9506,-2.0094,-2.0378,-2.0175,-2.0107,-2.0004,-2.007,-2.0019,-2.0004,-2.0019,-2.0042,-2.0087,-1.9914,-1.9735,-1.972,-1.9824,-1.9705,-1.9705,-1.9839,-1.9899,-1.9765,-1.9765,-1.9974,-2.0004,-1.0491,-1.0618,-1.0618,-1.0618,-1.0618,-1.0618,-1.0618,-1.0618,-1.0618,-1.1296,-1.2528,-1.2834,-1.3726,-1.4746,-1.5294,-1.5391,-1.5195,-1.4853,-1.4453,-1.4082,-1.4043,-1.3945,-1.3896,-1.3906,-1.3945,-1.3955,-1.417,-1.4107,-1.4019,-1.4023,-1.3955,-1.3873,-1.3916,-1.3809,-1.3834,-1.3906,-1.3908,-1.4012,-1.4109,-1.4473,-1.4609,-1.4729,-1.4856,-1.5325,-1.5686,-1.5933,-1.6411,-1.648,-1.6572,-1.6534,-1.6534,-1.6534,-1.6647,-1.6923,-1.7237,-1.7262,-1.7601,-1.7727,-1.7727,-1.7815,-1.784,-1.794,-1.7903,-1.7978,-1.8016,-1.794,-1.8016,-1.8317,-1.8593,-1.8783,-1.8907,-1.8894,-1.8681,-1.848,-1.8681,-1.8808,-1.8933,-1.9309,-1.9422,-1.9572,-1.9359,-1.9157,-1.8857,-1.8668,-1.8661,-1.8669,-1.8812,-1.8879,-1.8688,-1.8824,-1.9166,-1.9363,-1.9909,-2.0145,-2.0008,-1.9948,-1.9837,-1.9786,-1.9705,-1.9705,-1.9705,-1.9794,-1.9899,-1.9824,-1.9705,-1.9705,-1.9705,-1.9705,-1.9705,-1.9705,-1.9705,-1.9705,-1.9705,-1.9705,-1.9705,-0.9913,-1.0618,-1.0618,-1.0618,-1.0618,-1.0555,-1.0604,-1.0618,-1.0534,-1.0744,-1.124,-1.2389,-1.3158,-1.376,-1.4914,-1.5157,-1.4795,-1.4404,-1.4014,-1.3672,-1.3594,-1.3496,-1.3262,-1.3262,-1.3184,-1.3301,-1.3652,-1.3815,-1.3672,-1.3603,-1.3486,-1.3193,-1.3164,-1.3174,-1.3193,-1.3096,-1.3224,-1.3332,-1.3332,-1.3751,-1.4419,-1.4376,-1.4376,-1.4926,-1.532,-1.5632,-1.5908,-1.625,-1.6534,-1.6534,-1.6534,-1.6534,-1.6547,-1.6647,-1.671,-1.6773,-1.6873,-1.7024,-1.6999,-1.6898,-1.6835,-1.6798,-1.6898,-1.7137,-1.7287,-1.72,-1.74,-1.7953,-1.8229,-1.8342,-1.8342,-1.8342,-1.8304,-1.8229,-1.8229,-1.8342,-1.8367,-1.8518,-1.8719,-1.8945,-1.8881,-1.8765,-1.8402,-1.8053,-1.7994,-1.8124,-1.8341,-1.8329,-1.8206,-1.8689,-1.9411,-1.9524,-1.9677,-1.9765,-1.9771,-1.9771,-1.9756,-1.9756,-1.9705,-1.9705,-1.9705,-1.9705,-1.9705,-1.9705,-1.9705,-1.9705,-1.9705,-1.9705,-1.9705,-1.9705,-1.9705,-1.9705,-1.9705,-1.9705,-1.9705,-0.9949,-1.0327,-1.0327,-1.0327,-1.0334,-1.0334,-1.0334,-1.0334,-1.0327,-1.0657,-1.1388,-1.2285,-1.2966,-1.3444,-1.4185,-1.4467,-1.416,-1.3936,-1.3564,-1.3262,-1.3164,-1.3105,-1.2891,-1.2891,-1.2891,-1.2988,-1.3291,-1.3437,-1.3203,-1.3184,-1.3076,-1.2969,-1.2891,-1.2891,-1.2891,-1.292,-1.2891,-1.2891,-1.2978,-1.3478,-1.4571,-1.4329,-1.4514,-1.4698,-1.5017,-1.541,-1.6051,-1.6281,-1.6479,-1.6534,-1.6534,-1.6534,-1.6534,-1.6534,-1.6534,-1.6534,-1.6534,-1.6534,-1.6534,-1.6534,-1.6559,-1.6547,-1.6534,-1.6635,-1.6798,-1.6785,-1.6923,-1.7488,-1.7777,-1.7777,-1.779,-1.7777,-1.7639,-1.7451,-1.7589,-1.7765,-1.784,-1.8016,-1.8154,-1.8242,-1.8053,-1.7949,-1.779,-1.7546,-1.739,-1.7506,-1.7803,-1.7853,-1.7801,-1.8535,-1.9369,-1.9406,-1.9442,-1.969,-1.9705,-1.9705,-1.9705,-1.9705,-1.9705,-1.9705,-1.9705,-1.9705,-1.9705,-1.9705,-1.9705,-1.9705,-1.9705,-1.9705,-1.9705,-1.9705,-1.9705,-1.9705,-1.9705,-1.9705,-1.9705,-0.9719,-1.0027,-1.0027,-1.0033,-1.0033,-1.0027,-1.0033,-1.0033,-1.0027,-1.0504,-1.1396,-1.2027,-1.2645,-1.3233,-1.3669,-1.3848,-1.3506,-1.3457,-1.3184,-1.2998,-1.293,-1.29,-1.2891,-1.2891,-1.2891,-1.29,-1.2939,-1.2891,-1.2939,-1.2939,-1.29,-1.2891,-1.2891,-1.2891,-1.2891,-1.2891,-1.2891,-1.2891,-1.2929,-1.3478,-1.4107,-1.4571,-1.4617,-1.4617,-1.4744,-1.5377,-1.6095,-1.638,-1.6479,-1.6534,-1.6534,-1.6534,-1.6534,-1.6534,-1.6534,-1.6534,-1.6534,-1.6534,-1.6534,-1.6534,-1.6534,-1.6534,-1.6534,-1.6534,-1.6534,-1.6609,-1.671,-1.7099,-1.72,-1.72,-1.7212,-1.7212,-1.7011,-1.6823,-1.6974,-1.7225,-1.73,-1.7388,-1.7426,-1.7413,-1.725,-1.72,-1.7187,-1.7099,-1.6935,-1.7102,-1.7411,-1.7786,-1.7867,-1.8458,-1.9043,-1.9043,-1.9207,-1.9617,-1.9705,-1.9705,-1.9705,-1.9705,-1.9705,-1.9705,-1.9705,-1.9705,-1.9705,-1.9705,-1.9705,-1.9705,-1.9705,-1.9705,-1.9705,-1.9705,-1.9705,-1.9705,-1.9705,-1.9705,-1.9705,-0.8469,-0.9733,-0.974,-0.9733,-0.9733,-0.9733,-0.9733,-0.9733,-0.9733,-0.9798,-1.02,-1.1324,-1.196,-1.2405,-1.3218,-1.3503,-1.3398,-1.3164,-1.2978,-1.2891,-1.2891,-1.2891,-1.2891,-1.2891,-1.2891,-1.2891,-1.2891,-1.2891,-1.2891,-1.2891,-1.2891,-1.2891,-1.2891,-1.2891,-1.2891,-1.2891,-1.2891,-1.2891,-1.2929,-1.3027,-1.3344,-1.4154,-1.4283,-1.4329,-1.4824,-1.5499,-1.5832,-1.6238,-1.6491,-1.6534,-1.6534,-1.6534,-1.6534,-1.6534,-1.6534,-1.6534,-1.6534,-1.6534,-1.6534,-1.6534,-1.6534,-1.6534,-1.6534,-1.6534,-1.6534,-1.6534,-1.6572,-1.6572,-1.666,-1.671,-1.6735,-1.6672,-1.6584,-1.6584,-1.6647,-1.6722,-1.6748,-1.6961,-1.6974,-1.6923,-1.6873,-1.6773,-1.6722,-1.6622,-1.6577,-1.6723,-1.6993,-1.7381,-1.7907,-1.8472,-1.908,-1.9207,-1.9244,-1.9617,-1.9705,-1.9705,-1.9705,-1.9705,-1.9705,-1.9705,-1.9705,-1.9705,-1.9705,-1.9705,-1.9705,-1.9705,-1.9705,-1.9705,-1.9705,-1.9705,-1.9705,-1.9705,-1.9705,-1.9705,-1.9705,-0.7683,-0.8858,-0.9262,-0.9432,-0.9432,-0.9432,-0.9432,-0.9432,-0.9432,-0.9526,-0.9785,-1.0584,-1.1274,-1.1939,-1.2774,-1.3154,-1.3105,-1.2959,-1.2891,-1.2891,-1.2891,-1.2891,-1.2891,-1.2891,-1.2891,-1.2891,-1.2891,-1.2891,-1.2891,-1.2891,-1.2891,-1.2891,-1.2891,-1.2891,-1.2891,-1.2891,-1.2891,-1.3017,-1.3142,-1.319,-1.319,-1.3647,-1.405,-1.3862,-1.4687,-1.5231,-1.5676,-1.6194,-1.6479,-1.6534,-1.6534,-1.6534,-1.6534,-1.6534,-1.6534,-1.6534,-1.6534,-1.6534,-1.6534,-1.6534,-1.6534,-1.6534,-1.6534,-1.6534,-1.6534,-1.6534,-1.6534,-1.6534,-1.6534,-1.6534,-1.6534,-1.6534,-1.6534,-1.6534,-1.6534,-1.6534,-1.6534,-1.6534,-1.6609,-1.6559,-1.6534,-1.6534,-1.6534,-1.6522,-1.6522,-1.6595,-1.6795,-1.7063,-1.7693,-1.8358,-1.9011,-1.9566,-1.9603,-1.969,-1.9705,-1.9705,-1.9705,-1.9705,-1.9705,-1.9705,-1.9705,-1.9705,-1.9705,-1.9705,-1.9705,-1.9705,-1.9705,-1.9705,-1.9705,-1.9705,-1.9705,-1.9705,-1.9705,-1.9705,-1.9705,-0.7072,-0.79,-0.8741,-0.9077,-0.9077,-0.9084,-0.9077,-0.9077,-0.9077,-0.9259,-0.9527,-1.002,-1.0809,-1.1737,-1.2382,-1.2715,-1.29,-1.2891,-1.2891,-1.2891,-1.2891,-1.2891,-1.2891,-1.2891,-1.2891,-1.2891,-1.2891,-1.2891,-1.2891,-1.2891,-1.2891,-1.2891,-1.2891,-1.2891,-1.2891,-1.2891,-1.2891,-1.292,-1.3238,-1.3238,-1.3104,-1.3505,-1.3779,-1.405,-1.4514,-1.5152,-1.5588,-1.6182,-1.6479,-1.6534,-1.6534,-1.6534,-1.6534,-1.6534,-1.6534,-1.6534,-1.6534,-1.6534,-1.6534,-1.6534,-1.6534,-1.6534,-1.6534,-1.6534,-1.6534,-1.6534,-1.6534,-1.6534,-1.6534,-1.6534,-1.6534,-1.6534,-1.6534,-1.6534,-1.6534,-1.6534,-1.6534,-1.6534,-1.6534,-1.6534,-1.6534,-1.6534,-1.6534,-1.6534,-1.6534,-1.6534,-1.6637,-1.6879,-1.7571,-1.845,-1.9026,-1.969,-1.969,-1.9705,-1.9705,-1.9705,-1.9705,-1.9705,-1.9705,-1.9705,-1.9705,-1.9705,-1.9705,-1.9705,-1.9681,-1.9705,-1.9705,-1.9705,-1.9705,-1.9705,-1.9705,-1.9705,-1.9705,-1.9705,-1.9705,-0.6652,-0.683,-0.8246,-0.8798,-0.8851,-0.8838,-0.8844,-0.8878,-0.8858,-0.8884,-0.9052,-0.962,-1.0675,-1.1575,-1.203,-1.2452,-1.2891,-1.2891,-1.2891,-1.2891,-1.2891,-1.2891,-1.2891,-1.2891,-1.2891,-1.2891,-1.2891,-1.2891,-1.2891,-1.2891,-1.2891,-1.2891,-1.2891,-1.2891,-1.2891,-1.2891,-1.2891,-1.2929,-1.3065,-1.3065,-1.3065,-1.3372,-1.3732,-1.4039,-1.4812,-1.5576,-1.562,-1.6194,-1.6534,-1.6534,-1.6534,-1.6534,-1.6534,-1.6534,-1.6534,-1.6534,-1.6534,-1.6534,-1.6534,-1.6534,-1.6534,-1.6534,-1.6534,-1.6534,-1.6534,-1.6534,-1.6534,-1.6534,-1.6534,-1.6534,-1.6534,-1.6534,-1.6534,-1.6534,-1.6534,-1.6534,-1.6534,-1.6534,-1.6534,-1.6534,-1.6534,-1.6534,-1.6534,-1.6534,-1.6534,-1.6534,-1.6993,-1.7271,-1.8013,-1.8831,-1.9273,-1.969,-1.969,-1.9705,-1.9705,-1.9705,-1.9705,-1.9705,-1.9705,-1.9705,-1.9705,-1.969,-1.9471,-1.9501,-1.9461,-1.9576,-1.969,-1.9696,-1.9681,-1.969,-1.9705,-1.9705,-1.9705,-1.9705,-1.9705,-0.647,-0.7343,-0.7883,-0.8374,-0.8804,-0.8804,-0.8804,-0.8804,-0.8804,-0.8804,-0.8864,-0.9909,-1.072,-1.1266,-1.2187,-1.2608,-1.2881,-1.2891,-1.2891,-1.2891,-1.2891,-1.2891,-1.2891,-1.2891,-1.2891,-1.2891,-1.2891,-1.2891,-1.2891,-1.2891,-1.2891,-1.2891,-1.2891,-1.2891,-1.2891,-1.2891,-1.2891,-1.2891,-1.2891,-1.2891,-1.2929,-1.3113,-1.342,-1.3862,-1.4514,-1.5231,-1.5588,-1.6194,-1.6436,-1.6534,-1.6534,-1.6534,-1.6534,-1.6534,-1.6534,-1.6534,-1.6534,-1.6534,-1.6534,-1.6534,-1.6534,-1.6534,-1.6534,-1.6534,-1.6534,-1.6534,-1.6534,-1.6534,-1.6534,-1.6534,-1.6534,-1.6534,-1.6534,-1.6534,-1.6534,-1.6534,-1.6534,-1.6534,-1.6534,-1.6534,-1.6534,-1.6534,-1.6534,-1.6534,-1.6534,-1.6565,-1.7118,-1.7747,-1.8458,-1.9043,-1.9493,-1.9705,-1.9705,-1.9705,-1.9705,-1.9705,-1.969,-1.969,-1.9675,-1.957,-1.9501,-1.9146,-1.9015,-1.909,-1.9116,-1.9116,-1.9251,-1.9501,-1.9636,-1.9675,-1.9705,-1.9705,-1.9705,-1.9705,-1.9705,-0.6416,-0.7402,-0.7836,-0.8315,-0.8752,-0.8804,-0.8804,-0.8804,-0.8804,-0.8804,-0.8857,-1.002,-1.0618,-1.1074,-1.194,-1.2725,-1.2832,-1.2891,-1.2891,-1.2891,-1.2891,-1.2891,-1.2891,-1.2891,-1.2891,-1.2891,-1.2891,-1.2891,-1.2891,-1.2891,-1.2891,-1.2891,-1.2891,-1.2891,-1.2891,-1.2891,-1.2891,-1.2891,-1.2891,-1.2891,-1.2891,-1.2929,-1.3065,-1.36,-1.4283,-1.488,-1.541,-1.5964,-1.6479,-1.6534,-1.6534,-1.6534,-1.6534,-1.6534,-1.6534,-1.6534,-1.6534,-1.6534,-1.6534,-1.6534,-1.6534,-1.6534,-1.6534,-1.6534,-1.6534,-1.6534,-1.6534,-1.6534,-1.6534,-1.6534,-1.6534,-1.6534,-1.6534,-1.6534,-1.6534,-1.6534,-1.6534,-1.6534,-1.6534,-1.6534,-1.6534,-1.6534,-1.6534,-1.6522,-1.668,-1.6837,-1.7435,-1.8027,-1.8664,-1.9169,-1.9581,-1.9705,-1.9705,-1.9705,-1.9705,-1.966,-1.9615,-1.957,-1.951,-1.9301,-1.9126,-1.8759,-1.8437,-1.8425,-1.8474,-1.8545,-1.8777,-1.912,-1.9424,-1.969,-1.969,-1.969,-1.9705,-1.9705,-1.9705,-0.6534,-0.6799,-0.8103,-0.8699,-0.8752,-0.8804,-0.8804,-0.8804,-0.8804,-0.8804,-0.8857,-0.9614,-1.0269,-1.0872,-1.1674,-1.2295,-1.2832,-1.2891,-1.2891,-1.2891,-1.2891,-1.2891,-1.2891,-1.2891,-1.2891,-1.2891,-1.2891,-1.2891,-1.2891,-1.2891,-1.2891,-1.2891,-1.2891,-1.2891,-1.2891,-1.2891,-1.2891,-1.2891,-1.2891,-1.2891,-1.2891,-1.2939,-1.3027,-1.343,-1.4061,-1.4606,-1.5062,-1.5656,-1.612,-1.6293,-1.6337,-1.638,-1.6479,-1.6479,-1.6534,-1.6534,-1.6534,-1.6534,-1.6534,-1.6534,-1.6534,-1.6534,-1.6534,-1.6534,-1.6534,-1.6534,-1.6534,-1.6534,-1.6534,-1.6534,-1.6534,-1.6534,-1.6534,-1.6534,-1.6534,-1.6534,-1.6534,-1.6534,-1.6534,-1.6534,-1.6534,-1.6534,-1.6534,-1.6565,-1.6837,-1.7188,-1.7747,-1.8341,-1.8893,-1.9295,-1.9654,-1.9705,-1.9705,-1.9705,-1.969,-1.96,-1.954,-1.948,-1.9226,-1.8882,-1.8523,-1.8089,-1.7873,-1.7785,-1.7829,-1.7904,-1.8335,-1.8737,-1.9093,-1.94,-1.9645,-1.969,-1.969,-1.9705,-1.9705,-0.5769,-0.6642,-0.7128,-0.7943,-0.8699,-0.8804,-0.8804,-0.8804,-0.8804,-0.8804,-0.8956,-0.9517,-1.0167,-1.0864,-1.1516,-1.2187,-1.2725,-1.2891,-1.2891,-1.2881,-1.2881,-1.2891,-1.2891,-1.2891,-1.2891,-1.2891,-1.2891,-1.2891,-1.2891,-1.2891,-1.2891,-1.2891,-1.2891,-1.2891,-1.2891,-1.2891,-1.2891,-1.2891,-1.2891,-1.2891,-1.2891,-1.2929,-1.3065,-1.342,-1.392,-1.4283,-1.4663,-1.5299,-1.5656,-1.5964,-1.6008,-1.6194,-1.6436,-1.6534,-1.6534,-1.6534,-1.6534,-1.6534,-1.6534,-1.6534,-1.6534,-1.6534,-1.6534,-1.6534,-1.6534,-1.6534,-1.6534,-1.6534,-1.6534,-1.6534,-1.6534,-1.6534,-1.6534,-1.6534,-1.6534,-1.6534,-1.6534,-1.6534,-1.6534,-1.6534,-1.6534,-1.6534,-1.6534,-1.6565,-1.6795,-1.7229,-1.7747,-1.8535,-1.9169,-1.942,-1.9705,-1.9705,-1.9705,-1.9705,-1.9645,-1.9286,-1.9066,-1.8916,-1.8553,-1.8134,-1.7757,-1.7428,-1.7217,-1.7094,-1.7178,-1.7318,-1.776,-1.8204,-1.8693,-1.9045,-1.928,-1.957,-1.969,-1.9705,-1.9705,-0.5386,-0.6253,-0.675,-0.7503,-0.8374,-0.8699,-0.8804,-0.8804,-0.8804,-0.8804,-0.8956,-0.951,-1.0012,-1.0618,-1.1366,-1.1715,-1.2255,-1.2725,-1.2608,-1.2608,-1.2832,-1.2881,-1.2891,-1.2891,-1.2891,-1.2891,-1.2891,-1.2891,-1.2891,-1.2891,-1.2891,-1.2891,-1.2891,-1.2891,-1.2891,-1.2891,-1.2891,-1.2891,-1.2891,-1.2891,-1.2891,-1.2929,-1.3065,-1.3372,-1.3695,-1.4014,-1.4376,-1.4789,-1.5186,-1.5499,-1.582,-1.6051,-1.6392,-1.6534,-1.6534,-1.6534,-1.6534,-1.6534,-1.6534,-1.6534,-1.6534,-1.6534,-1.6534,-1.6534,-1.6534,-1.6534,-1.6534,-1.6534,-1.6534,-1.6534,-1.6534,-1.6534,-1.6534,-1.6534,-1.6534,-1.6534,-1.6436,-1.6436,-1.6436,-1.6436,-1.6429,-1.6441,-1.6484,-1.6595,-1.671,-1.7229,-1.7747,-1.8493,-1.9192,-1.9456,-1.9534,-1.9483,-1.9405,-1.9276,-1.9016,-1.8687,-1.8497,-1.8365,-1.7912,-1.7416,-1.713,-1.6846,-1.6591,-1.6442,-1.6728,-1.7015,-1.721,-1.7612,-1.8011,-1.8455,-1.8877,-1.9211,-1.96,-1.9705,-1.9705,-0.5483,-0.576,-0.7069,-0.767,-0.7883,-0.854,-0.8804,-0.8804,-0.8804,-0.8804,-0.8857,-0.9465,-0.9762,-1.0064,-1.1116,-1.1366,-1.1316,-1.2255,-1.2295,-1.2286,-1.2618,-1.2774,-1.2891,-1.2891,-1.2891,-1.2891,-1.2891,-1.2891,-1.2891,-1.2891,-1.2891,-1.2891,-1.2891,-1.2891,-1.2891,-1.2891,-1.2891,-1.2891,-1.2891,-1.2891,-1.2891,-1.2939,-1.2978,-1.3152,-1.342,-1.3684,-1.4143,-1.4641,-1.5219,-1.5676,-1.6051,-1.6337,-1.6479,-1.6534,-1.6534,-1.6534,-1.6534,-1.6534,-1.6534,-1.6534,-1.6534,-1.6534,-1.6534,-1.6534,-1.6534,-1.6534,-1.6534,-1.6534,-1.6534,-1.6534,-1.6534,-1.6534,-1.6534,-1.6534,-1.6534,-1.6479,-1.638,-1.6337,-1.6337,-1.6343,-1.6353,-1.6316,-1.6296,-1.6351,-1.6236,-1.6515,-1.6956,-1.754,-1.828,-1.9218,-1.9224,-1.9093,-1.8956,-1.8706,-1.8407,-1.805,-1.7827,-1.768,-1.7148,-1.6667,-1.6473,-1.6368,-1.6189,-1.6189,-1.6443,-1.6698,-1.6879,-1.7029,-1.7239,-1.7702,-1.8323,-1.8827,-1.9194,-1.963,-1.9705,-0.5382,-0.6308,-0.675,-0.7509,-0.8427,-0.8699,-0.8804,-0.8804,-0.8804,-0.8804,-0.8811,-0.9008,-0.9361,-0.9865,-1.021,-1.0517,-1.1015,-1.1566,-1.1873,-1.208,-1.2452,-1.2774,-1.2891,-1.2891,-1.2891,-1.2891,-1.2891,-1.2891,-1.2891,-1.2891,-1.2891,-1.2891,-1.2891,-1.2891,-1.2891,-1.2891,-1.2891,-1.2891,-1.2891,-1.2891,-1.2891,-1.2891,-1.2891,-1.3017,-1.3113,-1.342,-1.3909,-1.4226,-1.4767,-1.5588,-1.5732,-1.6008,-1.6479,-1.6534,-1.6534,-1.6534,-1.6534,-1.6534,-1.6534,-1.6534,-1.6497,-1.6484,-1.6454,-1.6522,-1.6534,-1.6509,-1.6509,-1.6534,-1.6534,-1.6534,-1.6534,-1.6534,-1.6534,-1.6534,-1.6479,-1.6337,-1.6238,-1.6139,-1.6126,-1.6015,-1.6039,-1.589,-1.5906,-1.5655,-1.5549,-1.575,-1.6073,-1.6658,-1.7337,-1.8222,-1.8802,-1.8643,-1.8342,-1.8047,-1.7772,-1.744,-1.7167,-1.6909,-1.6488,-1.6189,-1.6099,-1.5994,-1.5873,-1.5948,-1.6203,-1.6383,-1.6531,-1.6683,-1.6833,-1.7197,-1.7774,-1.8313,-1.8812,-1.9185,-1.96,-0.5171,-0.615,-0.6475,-0.7456,-0.8646,-0.8804,-0.8804,-0.8804,-0.8804,-0.8804,-0.8804,-0.8804,-0.9008,-0.9413,-0.9718,-0.9917,-1.0012,-1.0914,-1.1358,-1.1516,-1.2197,-1.2569,-1.2774,-1.2881,-1.2891,-1.2891,-1.2891,-1.2891,-1.2891,-1.2891,-1.2891,-1.2891,-1.2891,-1.2891,-1.2891,-1.2891,-1.2891,-1.2891,-1.2891,-1.2891,-1.2891,-1.2891,-1.2891,-1.2891,-1.2891,-1.3238,-1.3732,-1.3909,-1.4641,-1.5499,-1.5732,-1.6107,-1.6479,-1.6534,-1.6534,-1.6534,-1.6534,-1.6534,-1.6534,-1.6534,-1.6409,-1.6321,-1.6371,-1.6358,-1.6358,-1.6333,-1.6446,-1.6534,-1.6534,-1.6534,-1.6534,-1.6534,-1.6534,-1.6534,-1.638,-1.6238,-1.6095,-1.5964,-1.5794,-1.566,-1.5558,-1.5399,-1.5229,-1.4977,-1.4954,-1.5223,-1.5452,-1.5745,-1.6385,-1.7155,-1.7807,-1.8037,-1.7677,-1.7297,-1.7061,-1.6848,-1.6606,-1.6411,-1.6187,-1.5933,-1.5814,-1.5814,-1.5814,-1.5872,-1.5991,-1.6126,-1.6305,-1.6368,-1.6545,-1.6874,-1.7106,-1.746,-1.803,-1.8634,-1.9091,-0.4952,-0.5706,-0.647,-0.7616,-0.8699,-0.8804,-0.8804,-0.8804,-0.8804,-0.8804,-0.8804,-0.8804,-0.8857,-0.9061,-0.9361,-0.9309,-0.9562,-1.0218,-1.0712,-1.0805,-1.1665,-1.2187,-1.2559,-1.2871,-1.2881,-1.2891,-1.2891,-1.2891,-1.2891,-1.2891,-1.2891,-1.2891,-1.2891,-1.2891,-1.2891,-1.2891,-1.2891,-1.2891,-1.2891,-1.2891,-1.2891,-1.2891,-1.2891,-1.2891,-1.2968,-1.3142,-1.3732,-1.4329,-1.488,-1.5511,-1.6008,-1.6293,-1.6479,-1.6534,-1.6534,-1.6446,-1.6409,-1.6446,-1.6371,-1.6283,-1.6145,-1.6082,-1.6132,-1.6006,-1.5964,-1.6278,-1.6441,-1.6436,-1.6392,-1.6423,-1.6423,-1.6064,-1.5932,-1.5976,-1.592,-1.5599,-1.5231,-1.5194,-1.5302,-1.5151,-1.4999,-1.4899,-1.4751,-1.4513,-1.4212,-1.4651,-1.48,-1.4895,-1.5348,-1.6027,-1.6599,-1.7155,-1.6977,-1.6637,-1.6548,-1.6352,-1.6082,-1.5858,-1.5814,-1.5814,-1.5814,-1.5814,-1.5814,-1.5887,-1.5961,-1.5961,-1.6049,-1.6218,-1.6289,-1.63,-1.6488,-1.6621,-1.7156,-1.7891,-1.8569,-0.5226,-0.6416,-0.7723,-0.8533,-0.8752,-0.8804,-0.8804,-0.8804,-0.8804,-0.8804,-0.8804,-0.8804,-0.8804,-0.8857,-0.9008,-0.8956,-0.9106,-0.9562,-0.9969,-1.0466,-1.1166,-1.1765,-1.2187,-1.2559,-1.2832,-1.2891,-1.2891,-1.2891,-1.2891,-1.2891,-1.2891,-1.2891,-1.2891,-1.2891,-1.2891,-1.2891,-1.2891,-1.2891,-1.2891,-1.2891,-1.2891,-1.2891,-1.2891,-1.2891,-1.2978,-1.3238,-1.3647,-1.3909,-1.4422,-1.488,-1.5499,-1.5964,-1.6436,-1.6479,-1.6479,-1.6459,-1.6145,-1.6158,-1.6082,-1.5869,-1.563,-1.5727,-1.5774,-1.5573,-1.5721,-1.6188,-1.6398,-1.6256,-1.6219,-1.6194,-1.6053,-1.5548,-1.5239,-1.5327,-1.546,-1.4914,-1.4404,-1.4574,-1.4775,-1.4684,-1.4504,-1.4361,-1.42,-1.4,-1.3699,-1.3609,-1.3632,-1.3766,-1.4149,-1.4701,-1.5193,-1.5725,-1.6128,-1.598,-1.6009,-1.6024,-1.5873,-1.5814,-1.5814,-1.5814,-1.5814,-1.5814,-1.5814,-1.5887,-1.5961,-1.5961,-1.602,-1.6197,-1.6212,-1.608,-1.6053,-1.6264,-1.6517,-1.7148,-1.7881,-0.4943,-0.6095,-0.7604,-0.8397,-0.8637,-0.8744,-0.8804,-0.8804,-0.8804,-0.8804,-0.8804,-0.8804,-0.8804,-0.8804,-0.8804,-0.8804,-0.8857,-0.9152,-0.9562,-1.0064,-1.0517,-1.1216,-1.1724,-1.2187,-1.2608,-1.2774,-1.2881,-1.2891,-1.2891,-1.2891,-1.2891,-1.2891,-1.2891,-1.2891,-1.2891,-1.2891,-1.2891,-1.2891,-1.2891,-1.2891,-1.2891,-1.2891,-1.2891,-1.2891,-1.2978,-1.3238,-1.36,-1.3815,-1.419,-1.456,-1.5062,-1.5499,-1.5876,-1.6051,-1.6089,-1.6048,-1.5881,-1.5718,-1.5605,-1.5367,-1.4962,-1.502,-1.5036,-1.4716,-1.407,-1.4482,-1.4969,-1.4927,-1.5018,-1.5052,-1.472,-1.4298,-1.4255,-1.4298,-1.4594,-1.4528,-1.4178,-1.4146,-1.4313,-1.4383,-1.41,-1.3714,-1.3613,-1.3636,-1.3361,-1.3361,-1.3235,-1.3235,-1.3527,-1.3782,-1.4151,-1.4533,-1.5104,-1.5624,-1.5859,-1.5903,-1.5844,-1.5814,-1.5814,-1.5814,-1.5814,-1.5814,-1.5829,-1.5887,-1.5902,-1.5946,-1.6035,-1.6109,-1.6094,-1.5961,-1.5917,-1.5919,-1.6218,-1.6533,-1.721,-0.4473,-0.5363,-0.6734,-0.7747,-0.8313,-0.852,-0.8633,-0.8744,-0.8791,-0.8804,-0.8804,-0.8804,-0.8804,-0.8804,-0.8804,-0.8804,-0.8804,-0.8903,-0.9263,-0.951,-0.9814,-1.0466,-1.1065,-1.1616,-1.2039,-1.251,-1.2774,-1.2881,-1.2891,-1.2891,-1.2891,-1.2891,-1.2891,-1.2891,-1.2891,-1.2891,-1.2891,-1.2891,-1.2891,-1.2891,-1.2891,-1.2891,-1.2891,-1.2891,-1.2929,-1.319,-1.3505,-1.3779,-1.4014,-1.4236,-1.4503,-1.4869,-1.5145,-1.533,-1.5247,-1.5174,-1.5101,-1.4968,-1.4885,-1.4675,-1.4261,-1.4021,-1.3949,-1.3615,-1.3014,-1.3003,-1.3519,-1.3569,-1.3662,-1.3836,-1.3522,-1.3192,-1.3203,-1.3328,-1.3674,-1.3957,-1.3745,-1.3599,-1.3758,-1.39,-1.3679,-1.3253,-1.3235,-1.321,-1.321,-1.321,-1.321,-1.321,-1.3279,-1.3506,-1.3789,-1.4111,-1.4529,-1.5034,-1.5566,-1.5785,-1.5756,-1.5814,-1.5814,-1.5814,-1.5814,-1.5814,-1.5814,-1.5814,-1.5844,-1.5887,-1.5887,-1.5902,-1.5872,-1.5872,-1.6,-1.6029,-1.6131,-1.646,-1.6776,-0.4705,-0.5834,-0.6309,-0.7018,-0.7863,-0.781,-0.8031,-0.8446,-0.8704,-0.8804,-0.8764,-0.8791,-0.8804,-0.8804,-0.8804,-0.8804,-0.8804,-0.8804,-0.8804,-0.9008,-0.9465,-0.9917,-1.0364,-1.1015,-1.1425,-1.1931,-1.2452,-1.2822,-1.2774,-1.2832,-1.2891,-1.2891,-1.2891,-1.2891,-1.2891,-1.2891,-1.2891,-1.2891,-1.2891,-1.2891,-1.2891,-1.2891,-1.2891,-1.2891,-1.2939,-1.2978,-1.3065,-1.3055,-1.3152,-1.3334,-1.3658,-1.4056,-1.4283,-1.4378,-1.4251,-1.4158,-1.4089,-1.4126,-1.4008,-1.3902,-1.3545,-1.3962,-1.377,-1.2977,-1.2472,-1.2163,-1.232,-1.1944,-1.2178,-1.2896,-1.2704,-1.2173,-1.2047,-1.2299,-1.2611,-1.2735,-1.2729,-1.2794,-1.2939,-1.3199,-1.3301,-1.3161,-1.3223,-1.321,-1.321,-1.321,-1.321,-1.321,-1.321,-1.3361,-1.351,-1.3765,-1.4066,-1.4547,-1.5096,-1.558,-1.5683,-1.5756,-1.5814,-1.5814,-1.5814,-1.5814,-1.5814,-1.5814,-1.5814,-1.5829,-1.5814,-1.5814,-1.5814,-1.5871,-1.6123,-1.6246,-1.6254,-1.6483,-1.6869]}]]